[[{"header":{"parameterUnit":"m.s-1","parameterCategory":1,"la1":31.0,"la2":29.5877,"lo1":-88.7671,"lo2":-86.6584,"dy":0.0162,"dx":0.0185,"nx":115,"ny":88,"refTime":"2023-09-23T06:00:00:Z","depth":0,"parameterNumber":2,"parameterNumberName":"U-component_of_WINDS"},"data":[0.0,0.0,0.0,0.0,0.0,0.0,0.0,0.0,0.0,0.0,0.0,0.0,0.0,0.0,0.0,0.0,0.0,0.0,0.0,0.0,0.0,0.0,0.0,0.0,0.0,0.0,0.0,0.0,0.0,0.0,0.0,0.0,0.0,0.0,0.0,0.0,0.0,0.0,0.0,0.0,0.0,0.0,0.0,0.0,0.0,0.0,0.0,0.0,0.0,0.0,0.0,0.0,0.0,0.0,0.0,0.0,0.0,0.0,0.0,0.0,0.0,0.0,0.0,0.0,0.0,0.0,0.0,0.0,0.0,0.0,0.0,0.0,0.0,0.0,0.0,0.0,0.0,0.0,0.0,0.0,0.0,0.0,0.0,0.0,0.0,0.0,0.0,0.0,0.0,0.0,0.0,0.0,0.0,0.0,0.0,0.0,0.0,0.0,0.0,0.0,0.0,0.0,0.0,0.0,0.0,0.0,0.0,0.0,0.0,0.0,0.0,0.0,0.0,0.0,0.0,0.0,0.0,0.0,0.0,0.0,0.0,0.0,0.0,0.0,0.0,0.0,0.0,0.0,0.0,0.0,0.0,0.0,0.0,0.0,0.0,0.0,0.0,0.0,0.0,0.0,0.0,0.0,0.0,0.0,0.0,0.0,0.0,0.0,0.0,0.0,0.0,0.0,0.0,0.0,0.0,0.0,0.0,0.0,0.0,0.0,0.0,0.0,0.0,0.0,0.0,0.0,0.0,0.0,0.0,0.0,0.0,0.0,0.0,0.0,0.0,0.0,0.0,0.0,0.0,0.0,0.0,0.0,0.0,0.0,0.0,0.0,0.0,0.0,0.0,0.0,0.0,0.0,0.0,0.0,0.0,0.0,0.0,0.0,0.0,0.0,0.0,0.0,0.0,0.0,0.0,0.0,0.0,0.0,0.0,0.0,0.0,0.0,0.0,0.0,0.0,0.0,0.0,0.0,0.0,0.0,0.0,0.0,0.0,0.0,0.0,0.0,0.0,0.0,0.0,0.0,0.0,0.0,0.0,0.0,0.0,0.0,0.0,0.0,0.0,0.0,0.0,0.0,0.0,0.0,0.0,0.0,0.0,0.0,0.0,0.0,0.0,0.0,0.0,0.0,0.0,0.0,0.0,0.0,0.0,0.0,0.0,0.0,0.0,0.0,0.0,0.0,0.0,0.0,0.0,0.0,0.0,0.0,0.0,0.0,0.0,0.0,0.0,0.0,0.0,0.0,0.0,0.0,0.0,0.0,0.0,0.0,0.0,0.0,0.0,0.0,0.0,0.0,0.0,0.0,0.0,0.0,0.0,0.0,0.0,0.0,0.0,0.0,0.0,0.0,0.0,0.0,0.0,0.0,0.0,0.0,0.0,0.0,0.0,0.0,0.0,0.0,0.0,0.0,0.0,0.0,0.0,0.0,0.0,0.0,0.0,0.0,0.0,0.0,0.0,0.0,0.0,0.0,0.0,0.0,0.0,0.0,0.0,0.0,0.0,0.0,0.0,0.0,0.0,0.0,0.0,0.0,0.0,0.0,0.0,0.0,0.0,0.0,0.0,0.0,0.0,0.0,0.0,0.0,0.0,0.0,0.0,0.0,0.0,0.0,0.0,0.0,0.0,0.0,0.0,0.0,0.0,0.0,0.0,0.0,0.0,0.0,0.0,0.0,0.0,0.0,0.0,0.0,0.0,0.0,0.0,0.0,0.0,0.0,0.0,0.0,0.0,0.0,0.0,0.0,0.0,0.0,0.0,0.0,0.0,0.0,0.0,0.0,0.0,0.0,0.0,0.0,0.0,0.0,0.0,0.0,0.0,0.0,0.0,0.0,0.0,0.0,0.0,0.0,0.0,0.0,0.0,0.0,0.0,0.0,0.0,0.0,0.0,0.0,0.0,0.0,0.0,0.0,0.0,0.0,0.0,0.0,0.0,0.0,0.0,0.0,0.0,0.0,0.0,0.0,0.0,0.0,0.0,0.0,0.0,0.0,0.0,0.0,0.0,0.0,0.0,0.0,0.0,0.0,0.0,0.0,0.0,0.0,0.0,0.0,0.0,0.0,0.0,0.0,0.0,0.0,0.0,0.0,0.0,0.0,0.0,0.0,0.0,0.0,0.0,0.0,0.0,0.0,0.0,0.0,0.0,0.0,0.0,0.0,0.0,0.0,0.0,0.0,0.0,0.0,0.0,0.0,0.0,0.0,0.0,0.0,0.0,0.0,0.0,0.0,0.0,0.0,0.0,0.0,0.0,0.0,0.0,0.0,0.0,0.0,0.0,0.0,0.0,0.0,0.0,0.0,0.0,0.0,0.0,0.0,0.0,0.0,0.0,0.0,0.0,0.0,0.0,0.0,0.0,0.0,0.0,0.0,0.0,0.0,0.0,0.0,0.0,0.0,0.0,0.0,0.0,0.0,0.0,0.0,0.0,0.0,0.0,0.0,0.0,0.0,0.0,0.0,0.0,0.0,0.0,0.0,0.0,0.0,0.0,0.0,0.0,0.0,0.0,0.0,0.0,0.0,0.0,0.0,0.0,0.0,0.0,0.0,0.0,0.0,0.0,0.0,0.0,0.0,0.0,0.0,0.0,0.0,0.0,0.0,0.0,0.0,0.0,0.0,0.0,0.0,0.0,0.0,0.0,0.0,0.0,0.0,0.0,0.0,0.0,0.0,0.0,0.0,0.0,0.0,0.0,0.0,0.0,0.0,0.0,0.0,0.0,0.0,0.0,0.0,0.0,0.0,0.0,0.0,0.0,0.0,0.0,0.0,0.0,0.0,0.0,0.0,0.0,0.0,0.0,0.0,0.0,0.0,0.0,0.0,0.0,0.0,0.0,0.0,0.0,0.0,0.0,0.0,0.0,0.0,0.0,0.0,0.0,0.0,0.0,0.0,0.0,0.0,0.0,0.0,0.0,0.0,0.0,0.0,0.0,0.0,0.0,0.0,0.0,0.0,0.0,0.0,0.0,0.0,0.0,0.0,0.0,0.0,0.0,0.0,0.0,0.0,0.0,0.0,0.0,0.0,0.0,0.0,0.0,0.0,0.0,0.0,0.0,0.0,0.0,0.0,0.0,0.0,0.0,0.0,0.0,0.0,0.0,0.0,0.0,0.0,0.0,0.0,0.0,0.0,0.0,0.0,0.0,0.0,0.0,0.0,0.0,0.0,0.0,0.0,0.0,0.0,0.0,0.0,0.0,0.0,0.0,0.0,0.0,0.0,0.0,0.0,0.0,0.0,0.0,0.0,0.0,0.0,0.0,0.0,0.0,0.0,0.0,0.0,0.0,0.0,0.0,0.0,0.0,0.0,0.0,0.0,0.0,0.0,0.0,0.0,0.0,0.0,0.0,0.0,0.0,0.0,0.0,0.0,0.0,0.0,0.0,0.0,0.0,0.0,0.0,0.0,0.0,0.0,0.0,0.0,0.0,0.0,0.0,0.0,0.0,0.0,0.0,0.0,0.0,0.0,0.0,0.0,0.0,0.0,0.0,0.0,0.0,0.0,0.0,0.0,0.0,0.0,0.0,0.0,0.0,0.0,0.0,0.0,0.0,0.0,0.0,0.0,0.0,0.0,0.0,0.0,0.0,0.0,0.0,0.0,0.0,0.0,0.0,0.0,0.0,0.0,0.0,0.0,0.0,0.0,0.0,0.0,0.0,0.0,0.0,0.0,0.0,0.0,0.0,0.0,0.0,0.0,0.0,0.0,0.0,0.0,0.0,0.0,0.0,0.0,0.0,0.0,0.0,0.0,0.0,0.0,0.0,0.0,0.0,0.0,0.0,0.0,0.0,0.0,0.0,0.0,0.0,0.0,0.0,0.0,0.0,0.0,0.0,0.0,0.0,0.0,0.0,0.0,0.0,0.0,0.0,0.0,0.0,0.0,0.0,0.0,0.0,0.0,0.0,0.0,0.0,0.0,0.0,0.0,0.0,0.0,0.0,0.0,0.0,0.0,0.0,0.0,0.0,0.0,0.0,0.0,0.0,0.0,0.0,0.0,0.0,0.0,0.0,0.0,0.0,0.0,0.0,0.0,0.0,0.0,0.0,0.0,0.0,0.0,0.0,0.0,0.0,0.0,0.0,0.0,0.0,0.0,0.0,0.0,0.0,0.0,0.0,0.0,0.0,0.0,0.0,0.0,0.0,0.0,0.0,0.0,0.0,0.0,0.0,0.0,0.0,0.0,0.0,0.0,0.0,0.0,0.0,0.0,0.0,0.0,0.0,0.0,0.0,0.0,0.0,0.0,0.0,0.0,0.0,0.0,0.0,0.0,2.0005,0.0,0.0,0.0,0.0,0.0,0.0,0.0,0.0,0.0,0.0,0.0,0.0,0.0,0.0,0.0,0.0,0.0,0.0,0.0,0.0,0.0,0.0,0.0,0.0,0.0,0.0,0.0,0.0,0.0,0.0,0.0,0.0,0.0,0.0,0.0,0.0,0.0,0.0,0.0,0.0,0.0,0.0,0.0,0.0,0.0,0.0,0.0,0.0,0.0,0.0,0.0,0.0,0.0,0.0,0.0,0.0,0.0,0.0,0.0,0.0,0.0,0.0,0.0,0.0,0.0,0.0,0.0,0.0,0.0,0.0,0.0,0.0,0.0,0.0,0.0,0.0,0.0,0.0,0.0,0.0,0.0,0.0,0.0,0.0,0.0,0.0,0.0,0.0,0.0,0.0,0.0,0.0,0.0,0.0,0.0,0.0,0.0,0.0,0.0,0.0,0.0,0.0,0.0,0.0,0.0,0.0,0.0,0.0,0.0,0.0,1.827,1.8723,1.8125,1.836,1.9567,0.0,0.0,0.0,0.0,0.0,0.0,0.0,0.0,0.0,0.0,0.0,0.0,0.0,0.0,0.0,0.0,0.0,0.0,0.0,0.0,0.0,0.0,0.0,0.0,0.0,0.0,0.0,0.0,0.0,0.0,0.0,0.0,0.0,0.0,0.0,0.0,0.0,0.0,0.0,0.0,0.0,0.0,0.0,0.0,0.0,0.0,0.0,0.0,0.0,0.0,0.0,0.0,0.0,0.0,0.0,0.0,0.0,0.0,0.0,0.0,0.0,0.0,0.0,0.0,0.0,0.0,0.0,0.0,0.0,0.0,0.0,0.0,0.0,0.0,0.0,0.0,0.0,0.0,0.0,0.0,0.0,0.0,0.0,0.0,0.0,0.0,0.0,0.0,0.0,0.0,0.0,0.0,0.0,0.0,0.0,0.0,0.0,0.0,0.0,0.0,0.0,0.0,0.0,0.0,0.0,0.0,0.0,0.0,0.0,0.0,0.0,0.0,1.7695,1.8035,1.9074,0.0,0.0,0.0,0.0,0.0,0.0,0.0,0.0,0.0,0.0,0.0,0.0,0.0,0.0,0.0,0.0,0.0,0.0,0.0,0.0,0.0,0.0,0.0,0.0,0.0,0.0,0.0,0.0,0.0,0.0,0.0,0.0,0.0,0.0,0.0,0.0,0.0,0.0,0.0,0.0,0.0,0.0,0.0,0.0,0.0,0.0,0.0,0.0,0.0,0.0,0.0,0.0,0.0,0.0,0.0,0.0,0.0,0.0,0.0,0.0,0.0,0.0,0.0,0.0,0.0,0.0,0.0,0.0,0.0,0.0,0.0,0.0,0.0,0.0,0.0,0.0,0.0,0.0,0.0,0.0,0.0,0.0,0.0,0.0,0.0,0.0,0.0,0.0,0.0,0.0,0.0,0.0,0.0,0.0,0.0,0.0,0.0,0.0,0.0,0.0,0.0,0.0,0.0,0.0,0.0,0.0,0.0,0.0,0.0,0.0,1.6584,1.8955,1.7534,0.0,1.9091,0.0,0.0,0.0,0.0,0.0,0.0,0.0,0.0,0.0,0.0,0.0,0.0,0.0,0.0,0.0,0.0,0.0,0.0,0.0,0.0,0.0,0.0,0.0,0.0,0.0,0.0,0.0,0.0,0.0,0.0,0.0,0.0,0.0,0.0,0.0,0.0,0.0,0.0,0.0,0.0,0.0,0.0,0.0,0.0,0.0,0.0,0.0,0.0,0.0,0.0,0.0,0.0,0.0,0.0,0.0,0.0,0.0,0.0,0.0,0.0,0.0,0.0,0.0,0.0,0.0,0.0,0.0,0.0,0.0,0.0,0.0,0.0,0.0,0.0,0.0,0.0,0.0,0.0,0.0,0.0,0.0,0.0,0.0,0.0,0.0,0.0,0.0,0.0,0.0,0.0,0.0,0.0,0.0,0.0,0.0,0.0,0.0,0.0,0.0,0.0,0.0,0.0,0.0,0.0,0.0,0.0,0.0,0.0,0.0,0.0,1.651,1.7638,1.7471,1.7943,0.0,0.0,0.0,0.0,0.0,0.0,0.0,0.0,0.0,0.0,0.0,0.0,0.0,0.0,0.0,0.0,0.0,0.0,0.0,0.0,0.0,0.0,0.0,0.0,0.0,0.0,0.0,0.0,0.0,0.0,0.0,0.0,0.0,0.0,0.0,0.0,0.0,0.0,0.0,0.0,0.0,0.0,0.0,0.0,0.0,0.0,0.0,0.0,0.0,0.0,0.0,0.0,0.0,0.0,0.0,0.0,0.0,0.0,0.0,0.0,0.0,0.0,0.0,0.0,0.0,0.0,0.0,0.0,0.0,0.0,0.0,0.0,0.0,0.0,0.0,0.0,0.0,0.0,0.0,0.0,0.0,0.0,0.0,0.0,0.0,0.0,0.0,0.0,0.0,0.0,0.0,0.0,0.0,0.0,0.0,0.0,0.0,0.0,0.0,0.0,0.0,0.0,0.0,0.0,0.0,0.0,0.0,0.0,0.0,0.0,1.6037,1.6378,1.6646,1.748,1.8209,1.8815,0.0,0.0,0.0,0.0,0.0,0.0,0.0,0.0,0.0,0.0,0.0,0.0,0.0,0.0,0.0,0.0,0.0,0.0,0.0,0.0,0.0,0.0,0.0,0.0,0.0,0.0,0.0,0.0,0.0,0.0,0.0,0.0,0.0,0.0,0.0,0.0,0.0,0.0,0.0,0.0,0.0,0.0,0.0,0.0,0.0,0.0,0.0,0.0,0.0,0.0,0.0,0.0,0.0,0.0,0.0,0.0,0.0,0.0,0.0,0.0,0.0,0.0,0.0,0.0,0.0,0.0,0.0,0.0,0.0,0.0,0.0,0.0,0.0,0.0,0.0,0.0,0.0,0.0,0.0,0.0,0.0,0.0,0.0,0.0,0.0,0.0,0.0,0.0,0.0,0.0,0.0,0.0,0.0,0.0,0.0,0.0,0.0,0.0,0.0,0.0,0.0,0.0,0.0,0.0,0.0,0.0,0.0,0.0,1.6363,1.5821,1.5858,1.671,1.7538,1.7969,0.0,0.0,0.0,0.0,0.0,0.0,0.0,0.0,0.0,0.0,0.0,0.0,0.0,0.0,0.0,0.0,0.0,0.0,0.0,0.0,0.0,0.0,0.0,0.0,0.0,0.0,0.0,0.0,0.0,0.0,0.0,0.0,0.0,0.0,0.0,0.0,0.0,0.0,0.0,0.0,0.0,0.0,0.0,0.0,0.0,0.0,0.0,0.0,0.0,0.0,0.0,0.0,0.0,0.0,0.0,0.0,0.0,0.0,0.0,0.0,0.0,0.0,0.0,0.0,0.0,0.0,0.0,0.0,0.0,0.0,0.0,0.0,0.0,0.0,0.0,0.0,0.0,0.0,0.0,0.0,0.0,0.0,0.0,0.0,0.0,0.0,0.0,0.0,0.0,0.0,0.0,0.0,0.0,0.0,0.0,0.0,0.0,0.0,0.0,0.0,0.0,0.0,0.0,0.0,0.0,0.0,0.0,0.0,0.0,1.5767,1.6078,1.6621,1.7417,1.7248,1.7592,0.0,0.0,0.0,0.0,0.0,0.0,0.0,0.0,0.0,0.0,0.0,0.0,0.0,0.0,0.0,0.0,0.0,0.0,0.0,0.0,0.0,0.0,0.0,0.0,0.0,0.0,0.0,0.0,0.0,0.0,0.0,0.0,0.0,0.0,0.0,0.0,0.0,0.0,0.0,0.0,0.0,0.0,0.0,0.0,0.0,0.0,0.0,0.0,0.0,0.0,0.0,0.0,0.0,0.0,0.0,0.0,0.0,0.0,0.0,0.0,0.0,0.0,0.0,0.0,0.0,0.0,0.0,0.0,0.0,0.0,0.0,0.0,0.0,0.0,0.0,0.0,0.0,0.0,0.0,0.0,0.0,0.0,0.0,0.0,0.0,0.0,0.0,0.0,0.0,0.0,0.0,0.0,0.0,0.0,0.0,0.0,0.0,0.0,0.0,0.0,0.0,0.0,0.0,0.0,0.0,0.0,0.0,0.0,0.0,1.5376,0.0,1.6511,1.7021,1.6733,1.6977,0.0,0.0,0.0,0.0,0.0,0.0,0.0,0.0,0.0,0.0,0.0,0.0,0.0,0.0,0.0,0.0,0.0,0.0,0.0,0.0,0.0,0.0,0.0,0.0,0.0,0.0,0.0,0.0,0.0,0.0,0.0,0.0,0.0,0.0,0.0,0.0,0.0,0.0,0.0,0.0,0.0,0.0,0.0,0.0,0.0,0.0,0.0,0.0,0.0,0.0,0.0,0.0,0.0,0.0,0.0,0.0,0.0,0.0,0.0,0.0,0.0,0.0,0.0,0.0,0.0,0.0,0.0,0.0,0.0,0.0,0.0,0.0,0.0,0.0,0.0,0.0,0.0,0.0,0.0,0.0,0.0,0.0,0.0,0.0,0.0,0.0,0.0,0.0,0.0,0.0,0.0,0.0,0.0,0.0,0.0,0.0,0.0,0.0,0.0,0.0,0.0,0.0,0.0,0.0,0.0,0.0,0.0,0.0,1.5221,1.529,1.5314,1.541,1.5373,1.6118,1.6109,0.0,0.0,0.0,0.0,0.0,0.0,0.0,0.0,0.0,0.0,0.0,0.0,0.0,0.0,0.0,0.0,0.0,0.0,0.0,0.0,0.0,0.0,0.0,0.0,0.0,0.0,0.0,0.0,0.0,0.0,0.0,0.0,0.0,0.0,0.0,0.0,0.0,0.0,0.0,0.0,0.0,0.0,0.0,0.0,0.0,0.0,0.0,0.0,0.0,0.0,0.0,0.0,0.0,0.0,0.0,0.0,0.0,0.0,0.0,0.0,0.0,0.0,0.0,0.0,0.0,0.0,0.0,0.0,0.0,0.0,0.0,0.0,0.0,0.0,0.0,0.0,0.0,0.0,0.0,0.0,0.0,0.0,0.0,0.0,0.0,0.0,0.0,0.0,0.0,0.0,0.0,0.0,0.0,0.0,0.0,0.0,0.0,0.0,0.0,0.0,0.0,0.0,0.0,0.0,0.0,0.0,0.0,0.0,0.0,1.5371,1.5311,1.5857,1.6929,1.6092,1.6006,0.0,0.0,0.0,0.0,0.0,0.0,0.0,0.0,0.0,0.0,0.0,0.0,0.0,0.0,0.0,0.0,0.0,0.0,0.0,0.0,0.0,0.0,0.0,0.0,0.0,0.0,0.0,0.0,0.0,0.0,0.0,0.0,0.0,0.0,0.0,0.0,0.0,0.0,0.0,0.0,0.0,0.0,0.0,0.0,0.0,0.0,0.0,0.0,0.0,0.0,0.0,0.0,0.0,0.0,0.0,0.0,0.0,0.0,0.0,0.0,0.0,0.0,0.0,0.0,0.0,0.0,0.0,0.0,0.0,0.0,0.0,0.0,0.0,0.0,0.0,0.0,0.0,0.0,0.0,0.0,0.0,0.0,0.0,0.0,0.0,0.0,0.0,0.0,0.0,0.0,0.0,0.0,0.0,0.0,0.0,0.0,0.0,0.0,0.0,0.0,0.0,0.0,0.0,0.0,0.0,0.0,0.0,0.0,0.0,1.6276,1.6149,1.6584,1.7657,1.6591,1.6327,1.6959,0.0,0.0,0.0,0.0,0.0,0.0,0.0,0.0,0.0,0.0,0.0,0.0,0.0,0.0,0.0,0.0,0.0,0.0,0.0,0.0,0.0,0.0,0.0,0.0,0.0,0.0,0.0,0.0,0.0,0.0,0.0,0.0,0.0,0.0,0.0,0.0,0.0,0.0,0.0,0.0,0.0,0.0,0.0,0.0,0.0,0.0,0.0,0.0,0.0,0.0,0.0,0.0,0.0,0.0,0.0,0.0,0.0,0.0,0.0,0.0,0.0,0.0,0.0,0.0,0.0,0.0,0.0,0.0,0.0,0.0,0.0,0.0,0.0,0.0,0.0,0.0,0.0,0.0,0.0,0.0,0.0,0.0,0.0,0.0,0.0,0.0,0.0,0.0,0.0,0.0,0.0,0.0,0.0,0.0,0.0,0.0,0.0,0.0,0.0,0.0,0.0,0.0,0.0,0.0,0.0,0.0,0.0,0.0,1.7922,1.775,1.7708,1.7748,1.7501,1.7034,0.0,0.0,0.0,0.0,0.0,0.0,0.0,0.0,0.0,0.0,0.0,0.0,0.0,0.0,0.0,0.0,0.0,0.0,0.0,0.0,0.0,0.0,0.0,0.0,0.0,0.0,0.0,0.0,0.0,0.0,0.0,0.0,0.0,0.0,0.0,0.0,0.0,0.0,0.0,0.0,0.0,0.0,0.0,0.0,0.0,0.0,0.0,0.0,0.0,0.0,0.0,0.0,0.0,0.0,0.0,0.0,0.0,0.0,0.0,0.0,0.0,0.0,0.0,0.0,0.0,0.0,0.0,0.0,0.0,0.0,0.0,0.0,0.0,0.0,0.0,0.0,0.0,0.0,0.0,0.0,0.0,0.0,0.0,0.0,0.0,0.0,0.0,0.0,0.0,0.0,0.0,0.0,0.0,0.0,0.0,0.0,0.0,0.0,0.0,0.0,0.0,0.0,0.0,0.0,0.0,0.0,0.0,0.0,0.0,1.9386,2.0277,2.057,2.0211,1.8294,1.7742,0.0,0.0,0.0,0.0,0.0,0.0,0.0,0.0,0.0,0.0,0.0,0.0,0.0,0.0,0.0,0.0,0.0,0.0,0.0,0.0,0.0,0.0,0.0,0.0,0.0,0.0,0.0,0.0,0.0,0.0,0.0,0.0,0.0,0.0,0.0,0.0,0.0,0.0,0.0,0.0,0.0,0.0,0.0,0.0,0.0,0.0,0.0,0.0,0.0,0.0,0.0,0.0,0.0,0.0,0.0,0.0,0.0,0.0,0.0,0.0,0.0,0.0,0.0,0.0,0.0,0.0,0.0,0.0,0.0,0.0,0.0,0.0,0.0,0.0,0.0,0.0,0.0,0.0,0.0,0.0,0.0,0.0,0.0,0.0,0.0,0.0,0.0,0.0,0.0,0.0,0.0,0.0,0.0,0.0,0.0,0.0,0.0,0.0,0.0,0.0,0.0,0.0,0.0,0.0,0.0,0.0,0.0,0.0,1.8973,1.9869,2.1909,2.2815,2.2563,1.9948,1.88,0.0,0.0,0.0,0.0,0.0,0.0,0.0,0.0,0.0,0.0,0.0,0.0,0.0,0.0,0.0,0.0,0.0,0.0,0.0,0.0,0.0,0.0,0.0,0.0,0.0,0.0,0.0,0.0,0.0,0.0,0.0,0.0,0.0,0.0,0.0,0.0,0.0,0.0,0.0,0.0,0.0,0.0,0.0,0.0,0.0,0.0,0.0,0.0,0.0,0.0,0.0,0.0,0.0,0.0,0.0,0.0,0.0,0.0,0.0,0.0,0.0,0.0,0.0,0.0,0.0,0.0,0.0,0.0,0.0,0.0,0.0,0.0,0.0,0.0,0.0,0.0,0.0,0.0,0.0,0.0,0.0,0.0,0.0,0.0,0.0,0.0,0.0,0.0,0.0,0.0,0.0,0.0,0.0,0.0,0.0,0.0,0.0,0.0,0.0,0.0,0.0,0.0,0.0,0.0,0.0,0.0,0.0,0.0,1.9955,1.9957,2.284,2.4355,2.4227,2.1765,2.0041,0.0,0.0,0.0,0.0,0.0,0.0,0.0,0.0,0.0,0.0,0.0,0.0,0.0,0.0,0.0,0.0,0.0,0.0,0.0,0.0,0.0,0.0,0.0,0.0,0.0,0.0,0.0,0.0,0.0,0.0,0.0,0.0,0.0,0.0,0.0,0.0,0.0,0.0,0.0,0.0,0.0,0.0,0.0,0.0,0.0,0.0,0.0,0.0,0.0,0.0,0.0,0.0,0.0,0.0,0.0,0.0,0.0,0.0,0.0,0.0,0.0,0.0,0.0,0.0,0.0,0.0,0.0,0.0,0.0,0.0,0.0,0.0,0.0,0.0,0.0,0.0,0.0,0.0,0.0,0.0,0.0,0.0,0.0,0.0,0.0,0.0,0.0,0.0,0.0,0.0,0.0,0.0,0.0,0.0,0.0,0.0,0.0,0.0,0.0,0.0,0.0,0.0,0.0,0.0,0.0,0.0,0.0,0.0,2.027,2.1421,2.3269,2.4057,2.3617,2.1459,2.0535,0.0,0.0,0.0,0.0,0.0,0.0,0.0,0.0,0.0,0.0,0.0,0.0,0.0,0.0,0.0,0.0,0.0,0.0,0.0,0.0,0.0,0.0,0.0,0.0,0.0,0.0,0.0,0.0,0.0,0.0,0.0,0.0,0.0,0.0,0.0,0.0,0.0,0.0,0.0,0.0,0.0,0.0,0.0,0.0,0.0,0.0,0.0,0.0,1.8728,0.0,0.0,0.0,0.0,0.0,0.0,0.0,0.0,0.0,0.0,0.0,0.0,0.0,0.0,0.0,0.0,0.0,0.0,0.0,0.0,0.0,0.0,0.0,0.0,0.0,0.0,0.0,0.0,0.0,0.0,0.0,0.0,0.0,0.0,0.0,0.0,0.0,0.0,0.0,0.0,0.0,0.0,0.0,0.0,0.0,0.0,0.0,0.0,0.0,0.0,0.0,0.0,0.0,0.0,0.0,0.0,0.0,0.0,0.0,2.0346,2.1832,2.3271,2.3876,2.3534,2.1941,2.1115,0.0,0.0,0.0,0.0,0.0,0.0,0.0,0.0,0.0,0.0,0.0,0.0,0.0,0.0,0.0,0.0,0.0,0.0,0.0,0.0,0.0,0.0,0.0,0.0,0.0,0.0,0.0,0.0,0.0,0.0,0.0,0.0,0.0,0.0,0.0,0.0,0.0,0.0,0.0,0.0,0.0,0.0,0.0,0.0,0.0,0.0,0.0,0.0,0.0,0.0,0.0,0.0,0.0,0.0,0.0,0.0,0.0,0.0,0.0,0.0,0.0,0.0,0.0,0.0,0.0,0.0,0.0,0.0,0.0,0.0,0.0,0.0,0.0,0.0,0.0,0.0,0.0,0.0,0.0,0.0,0.0,0.0,0.0,0.0,0.0,0.0,0.0,0.0,0.0,0.0,0.0,0.0,0.0,0.0,0.0,0.0,0.0,0.0,0.0,0.0,0.0,0.0,0.0,0.0,0.0,0.0,0.0,1.8955,2.04,2.2062,2.3226,2.3774,2.3671,2.2526,2.1608,2.098,0.0,0.0,0.0,0.0,0.0,0.0,0.0,0.0,0.0,0.0,0.0,0.0,0.0,0.0,0.0,0.0,0.0,0.0,0.0,0.0,0.0,0.0,0.0,0.0,0.0,0.0,0.0,0.0,0.0,0.0,0.0,0.0,0.0,0.0,0.0,0.0,0.0,0.0,1.9338,1.9522,0.0,0.0,0.0,0.0,0.0,0.0,0.0,0.0,1.7471,0.0,0.0,0.0,0.0,0.0,0.0,0.0,0.0,0.0,0.0,0.0,0.0,0.0,0.0,0.0,0.0,0.0,0.0,0.0,0.0,0.0,0.0,0.0,0.0,0.0,0.0,0.0,0.0,0.0,0.0,0.0,0.0,0.0,0.0,0.0,0.0,0.0,0.0,0.0,0.0,0.0,0.0,0.0,0.0,0.0,0.0,0.0,0.0,0.0,0.0,0.0,0.0,0.0,0.0,0.0,0.0,1.913,1.9393,2.0786,2.3386,2.3671,2.3602,2.3212,2.2377,2.1539,2.0749,0.0,0.0,0.0,0.0,0.0,0.0,0.0,0.0,0.0,0.0,0.0,0.0,0.0,0.0,0.0,0.0,0.0,0.0,0.0,0.0,0.0,0.0,0.0,0.0,0.0,0.0,0.0,0.0,0.0,0.0,0.0,0.0,0.0,0.0,0.0,0.0,0.0,0.0,0.0,1.8891,1.8933,0.0,0.0,0.0,0.0,0.0,0.0,0.0,0.0,1.7136,0.0,0.0,0.0,0.0,0.0,0.0,0.0,0.0,0.0,0.0,0.0,0.0,0.0,0.0,0.0,0.0,0.0,0.0,0.0,0.0,0.0,0.0,0.0,0.0,0.0,0.0,0.0,0.0,0.0,0.0,0.0,0.0,0.0,0.0,0.0,0.0,0.0,0.0,0.0,0.0,0.0,0.0,0.0,0.0,0.0,0.0,0.0,0.0,0.0,0.0,0.0,0.0,0.0,0.0,0.0,1.9945,2.0215,2.1349,2.3498,2.3491,2.3324,2.3052,2.2037,2.1216,0.0,0.0,0.0,0.0,0.0,0.0,0.0,0.0,0.0,0.0,0.0,0.0,0.0,0.0,0.0,0.0,0.0,0.0,0.0,0.0,0.0,0.0,0.0,0.0,0.0,0.0,0.0,0.0,0.0,0.0,0.0,0.0,0.0,0.0,0.0,0.0,0.0,0.0,0.0,0.0,1.8747,1.8385,1.8214,0.0,0.0,0.0,0.0,0.0,0.0,1.6612,1.6645,0.0,0.0,0.0,0.0,0.0,0.0,0.0,0.0,0.0,0.0,0.0,0.0,0.0,0.0,0.0,0.0,0.0,0.0,0.0,0.0,0.0,0.0,0.0,0.0,0.0,0.0,0.0,0.0,0.0,0.0,0.0,0.0,0.0,0.0,0.0,0.0,0.0,0.0,0.0,0.0,0.0,0.0,0.0,0.0,0.0,0.0,0.0,0.0,0.0,0.0,0.0,0.0,0.0,0.0,0.0,2.0517,2.0879,2.1775,2.327,2.3091,2.2935,2.279,2.1453,2.0637,0.0,0.0,0.0,0.0,0.0,0.0,0.0,0.0,0.0,0.0,0.0,0.0,0.0,0.0,0.0,0.0,0.0,0.0,0.0,0.0,0.0,0.0,0.0,0.0,0.0,0.0,0.0,0.0,0.0,0.0,0.0,0.0,0.0,0.0,0.0,0.0,0.0,0.0,0.0,0.0,0.0,1.7953,1.7929,1.7099,0.0,0.0,0.0,0.0,1.6118,1.5819,0.0,0.0,0.0,0.0,0.0,0.0,0.0,0.0,0.0,0.0,0.0,0.0,0.0,0.0,0.0,0.0,0.0,0.0,0.0,0.0,0.0,0.0,0.0,0.0,0.0,0.0,0.0,0.0,0.0,0.0,0.0,0.0,0.0,0.0,0.0,0.0,0.0,0.0,0.0,0.0,0.0,0.0,0.0,0.0,0.0,0.0,0.0,0.0,0.0,0.0,0.0,0.0,0.0,0.0,0.0,0.0,2.0462,2.0953,2.18,2.3021,2.2755,2.2449,2.2192,2.0445,1.9617,0.0,0.0,0.0,0.0,0.0,0.0,0.0,0.0,0.0,0.0,0.0,0.0,0.0,0.0,0.0,0.0,0.0,0.0,0.0,0.0,0.0,0.0,0.0,0.0,0.0,0.0,0.0,0.0,0.0,0.0,0.0,0.0,0.0,0.0,0.0,0.0,0.0,0.0,0.0,0.0,0.0,1.729,1.791,1.6104,1.4805,0.0,0.0,1.4904,1.5057,1.4902,0.0,0.0,0.0,0.0,0.0,0.0,0.0,0.0,0.0,0.0,0.0,0.0,0.0,0.0,0.0,0.0,0.0,0.0,0.0,0.0,0.0,0.0,0.0,0.0,0.0,0.0,0.0,0.0,0.0,0.0,0.0,0.0,0.0,0.0,0.0,0.0,0.0,0.0,0.0,0.0,0.0,0.0,0.0,0.0,0.0,0.0,0.0,0.0,0.0,0.0,0.0,0.0,0.0,0.0,0.0,2.0177,2.0615,2.1369,2.1909,2.2204,2.2068,2.1907,2.1705,2.0,1.9179,0.0,0.0,0.0,0.0,0.0,0.0,0.0,0.0,0.0,0.0,0.0,0.0,0.0,0.0,0.0,0.0,0.0,0.0,0.0,0.0,0.0,0.0,0.0,0.0,0.0,0.0,0.0,0.0,0.0,0.0,0.0,0.0,0.0,0.0,0.0,0.0,0.0,0.0,0.0,0.0,0.0,0.0,1.6008,1.5492,0.0,0.0,0.0,1.4687,1.4371,0.0,0.0,0.0,0.0,0.0,0.0,0.0,0.0,0.0,0.0,0.0,0.0,0.0,0.0,0.0,0.0,0.0,0.0,0.0,0.0,0.0,0.0,0.0,0.0,0.0,0.0,0.0,0.0,0.0,0.0,0.0,0.0,0.0,0.0,0.0,0.0,0.0,0.0,0.0,0.0,0.0,0.0,0.0,0.0,0.0,0.0,0.0,0.0,0.0,0.0,0.0,0.0,0.0,0.0,0.0,0.0,0.0,2.0713,2.1562,2.1903,2.1602,2.1381,2.1228,2.1102,1.9609,0.0,0.0,0.0,0.0,0.0,0.0,0.0,0.0,0.0,0.0,0.0,0.0,0.0,0.0,0.0,0.0,0.0,0.0,0.0,0.0,0.0,0.0,0.0,0.0,0.0,0.0,0.0,1.961,0.0,0.0,0.0,0.0,0.0,0.0,0.0,0.0,0.0,0.0,0.0,0.0,0.0,0.0,1.5209,1.4247,1.4363,1.4116,0.0,0.0,1.3761,1.3407,1.3279,1.3423,0.0,0.0,0.0,0.0,0.0,0.0,0.0,0.0,0.0,0.0,0.0,0.0,0.0,0.0,0.0,0.0,0.0,0.0,0.0,0.0,0.0,0.0,0.0,0.0,0.0,0.0,0.0,0.0,0.0,0.0,0.0,0.0,0.0,0.0,0.0,0.0,0.0,0.0,0.0,0.0,0.0,0.0,0.0,0.0,0.0,0.0,0.0,0.0,0.0,0.0,0.0,0.0,0.0,0.0,0.0,2.0624,2.1276,2.1601,2.1499,2.078,2.0382,2.0333,1.9163,1.8383,0.0,0.0,0.0,0.0,0.0,0.0,0.0,0.0,0.0,0.0,0.0,0.0,0.0,0.0,0.0,0.0,0.0,0.0,0.0,0.0,0.0,0.0,0.0,0.0,0.0,0.0,0.0,0.0,0.0,0.0,0.0,0.0,0.0,0.0,0.0,0.0,0.0,0.0,0.0,0.0,0.0,1.4708,1.3299,1.2296,1.1584,0.0,0.0,1.1348,1.1853,1.1684,1.1791,1.2696,0.0,0.0,0.0,0.0,0.0,0.0,0.0,0.0,0.0,0.0,0.0,0.0,0.0,0.0,0.0,0.0,0.0,0.0,0.0,0.0,0.0,0.0,0.0,0.0,0.0,0.0,0.0,0.0,0.0,0.0,0.0,0.0,0.0,0.0,0.0,0.0,0.0,0.0,0.0,0.0,0.0,0.0,0.0,0.0,0.0,0.0,0.0,0.0,0.0,0.0,0.0,0.0,0.0,2.0183,2.0004,2.0574,2.0728,2.045,1.9899,1.9594,1.9573,1.8714,1.7526,0.0,0.0,0.0,0.0,0.0,0.0,0.0,0.0,0.0,0.0,0.0,0.0,0.0,0.0,0.0,0.0,0.0,0.0,0.0,0.0,0.0,0.0,0.0,0.0,0.0,0.0,0.0,0.0,1.9872,1.9745,1.9655,0.0,0.0,0.0,0.0,0.0,0.0,0.0,0.0,0.0,0.0,1.2543,1.2368,1.191,0.0,0.0,1.1053,1.1288,1.0981,1.0847,1.0839,1.1233,1.1275,0.0,0.0,0.0,0.0,0.0,0.0,0.0,0.0,0.0,0.0,0.0,0.0,0.0,0.0,0.0,0.0,0.0,0.0,0.0,0.0,0.0,0.0,0.0,0.0,0.0,0.0,0.0,0.0,0.0,0.0,0.0,0.0,0.0,0.0,0.0,0.0,0.0,0.0,0.0,0.0,0.0,0.0,0.0,0.0,0.0,0.0,0.0,0.0,0.0,0.0,0.0,0.0,1.9595,1.9375,1.9815,1.9899,1.961,1.9174,1.8959,1.8898,1.843,1.7505,0.0,0.0,0.0,0.0,0.0,0.0,0.0,0.0,0.0,0.0,0.0,0.0,0.0,0.0,0.0,0.0,0.0,0.0,0.0,0.0,0.0,0.0,0.0,0.0,0.0,0.0,0.0,0.0,1.9514,1.9043,1.8907,0.0,0.0,0.0,0.0,0.0,0.0,0.0,0.0,0.0,0.0,1.0156,1.0414,1.0396,1.0167,0.9725,1.0324,1.0671,1.0261,0.9946,0.9835,0.9813,0.0,0.0,0.0,0.0,0.0,0.0,0.0,0.0,0.0,0.0,0.0,0.0,0.0,0.0,0.0,0.0,0.0,0.0,0.0,0.0,0.0,0.0,0.0,0.0,0.0,0.0,0.0,0.0,0.0,0.0,1.7558,0.0,0.0,0.0,0.0,0.0,0.0,0.0,0.0,0.0,0.0,0.0,0.0,0.0,0.0,0.0,0.0,0.0,0.0,0.0,0.0,0.0,0.0,1.8853,1.8821,1.9071,1.9168,1.9114,1.8725,1.8514,1.85,1.8369,1.8585,1.9196,0.0,0.0,0.0,0.0,0.0,0.0,0.0,0.0,0.0,0.0,0.0,0.0,0.0,0.0,0.0,0.0,0.0,0.0,0.0,0.0,0.0,0.0,0.0,0.0,0.0,0.0,1.9594,1.8249,1.7342,0.0,0.0,0.0,0.0,0.0,0.0,0.0,0.0,0.0,0.0,0.8526,0.7786,0.7326,0.7154,0.7346,0.7865,0.8468,0.9001,0.9458,0.896,0.8508,0.0,0.0,0.0,0.0,0.0,0.0,0.0,0.0,0.0,0.0,0.0,0.0,0.0,0.0,0.0,0.0,0.0,0.0,0.0,0.0,0.0,0.0,0.0,0.0,0.0,0.0,0.0,1.7606,1.7661,0.0,0.0,0.0,0.0,0.0,0.0,0.0,0.0,0.0,0.0,0.0,1.8263,1.8095,0.0,0.0,0.0,0.0,0.0,0.0,0.0,0.0,0.0,0.0,0.0,0.0,1.8515,1.8362,1.86,1.8715,1.8677,1.8325,1.8109,1.8095,1.8069,1.8448,1.9354,0.0,0.0,0.0,0.0,0.0,0.0,0.0,0.0,0.0,0.0,0.0,0.0,0.0,0.0,0.0,0.0,0.0,0.0,0.0,0.0,0.0,0.0,0.0,0.0,0.0,1.8935,0.0,0.0,0.0,0.0,0.0,0.0,0.0,0.0,0.0,0.0,0.0,0.898,0.7933,0.6881,0.6128,0.5901,0.5896,0.5946,0.0,0.0,0.0,0.0,0.0,0.0,0.0,0.0,0.0,0.0,0.0,0.0,0.0,0.0,0.1262,0.3304,0.3419,0.2813,0.1663,0.0,0.0,0.0,0.0,0.0,0.0,0.0,0.0,0.0,0.0,0.0,0.0,0.0,0.0,1.8148,0.0,1.8212,0.0,0.0,0.0,0.0,0.0,0.0,0.0,0.0,1.8006,1.8128,1.8022,1.7855,1.7873,0.0,1.7767,1.7766,0.0,0.0,0.0,0.0,0.0,0.0,0.0,0.0,1.8003,1.7753,1.8106,1.8284,1.8261,1.7936,1.7747,1.7747,1.806,1.8345,1.8582,1.6818,1.5737,0.0,0.0,0.0,0.0,0.0,0.0,0.0,0.0,0.0,0.0,0.0,0.0,0.0,0.0,0.0,0.0,0.0,0.0,0.0,0.0,0.0,0.0,0.0,1.7531,0.0,0.0,0.0,0.0,0.0,0.0,0.0,0.0,0.0,0.9347,0.7911,0.6637,0.625,0.5159,0.4371,0.431,0.0,0.0,0.0,0.0,0.0,0.0,0.0,0.4402,0.3796,0.352,0.2914,0.1756,0.0883,0.0443,0.0719,0.0,0.0,0.1274,0.1437,0.0829,-0.0222,-0.0501,-0.0778,-0.1781,-0.2395,-0.2896,0.0,0.0,0.0,0.0,0.0,0.0,0.0,0.0,1.7992,1.7976,0.0,1.7961,0.0,0.0,0.0,0.0,0.0,1.803,0.0,0.0,1.8534,1.8701,1.813,1.8101,1.8079,1.8036,1.7395,1.7219,1.7513,1.7835,0.0,0.0,0.0,0.0,0.0,0.0,1.7335,1.7049,1.7592,1.7882,1.7842,1.757,1.7393,1.7366,1.8249,1.82,1.7249,1.8887,1.8908,1.6615,1.787,0.0,0.0,0.0,0.0,0.0,0.0,0.0,0.0,0.0,0.0,0.0,0.0,0.0,0.0,0.0,0.0,0.0,0.0,0.0,0.0,1.6275,0.0,0.0,0.0,0.0,0.0,0.0,0.0,0.0,0.0,0.0,0.7741,0.6341,0.5019,0.4508,0.0,0.0,0.0,0.0,0.2265,0.2144,0.2627,0.295,0.2952,0.2415,0.1764,0.1159,0.0,0.0,0.0056,-0.0837,-0.1173,-0.0111,-0.1452,-0.2352,-0.1174,-0.0837,-0.106,-0.184,-0.2119,-0.2563,-0.3403,-0.4015,-0.4519,2.0305,0.0,0.0,0.0,0.0,1.8102,1.7838,1.7631,1.7597,1.7582,1.7646,1.7631,0.0,0.0,0.0,0.0,0.0,0.0,1.787,1.7598,1.805,1.8147,1.7965,1.7979,1.7965,1.7951,1.7733,1.7688,1.7762,1.7644,1.7418,1.7153,0.0,0.0,0.0,0.0,1.6853,1.6946,1.7076,1.717,1.717,1.7073,1.6934,1.6769,1.7005,1.7235,1.7394,1.7315,1.7075,1.6591,1.6753,0.0,0.0,0.0,0.0,0.0,0.0,0.0,0.0,0.0,0.0,0.0,0.0,0.0,0.0,0.0,0.0,0.0,0.0,0.0,1.5624,1.4198,1.3314,0.0,0.0,0.0,0.0,0.0,0.0,0.0,0.0,0.0,0.4646,0.3959,0.3226,0.0,0.0,0.1228,0.1228,0.0724,0.039,0.0389,0.0388,0.0,0.061,0.0665,0.05,-0.0111,-0.0781,-0.1509,-0.2233,-0.2347,-0.235,-0.2345,-0.2794,-0.3077,-0.2796,-0.2683,-0.2794,-0.3294,-0.3461,-0.3685,-0.4242,-0.4519,-0.4688,2.0715,1.9851,1.9623,1.9321,1.904,1.8755,1.8517,1.8387,1.8327,1.8184,1.7999,1.8036,1.8091,1.8242,1.8155,0.0,0.0,0.0,1.7763,1.7532,1.7905,1.8004,1.7792,1.7792,1.7792,1.7779,1.7608,1.7502,1.7515,1.7295,1.7006,1.6632,0.0,0.0,1.6123,1.6332,1.6488,1.6546,1.6788,1.6791,1.6582,1.6225,1.5908,1.562,1.5531,1.5666,1.6013,1.6112,1.5985,1.5555,1.6084,1.596,0.0,0.0,0.0,0.0,0.0,0.0,0.0,0.0,0.0,0.0,0.0,1.5576,1.5849,0.0,0.0,0.0,1.4654,1.3861,1.3418,1.192,0.0,0.0,0.0,0.0,0.0,0.0,0.0,0.5496,0.3831,0.2672,0.2514,0.1899,0.1396,0.1286,0.067,0.0168,-0.0168,0.0,-0.1228,-0.1563,-0.173,-0.173,-0.1619,-0.1227,-0.1059,-0.1398,-0.2012,-0.2629,-0.3246,-0.3244,-0.3302,-0.3524,-0.3633,-0.3747,-0.4021,-0.4076,-0.4076,-0.4245,-0.4298,-0.4411,-0.4857,-0.4849,-0.4956,2.0924,2.0909,2.0908,2.0451,1.9775,1.9695,1.9684,1.9686,1.9686,1.9374,1.8789,1.8789,1.8714,1.8588,1.8409,0.0,1.7604,1.7784,1.7706,1.747,1.8068,1.8091,1.7594,1.7626,1.7626,1.7568,1.7127,1.6897,1.6897,1.6803,1.6456,1.5881,1.6073,1.5918,1.5485,1.5956,1.6074,1.5828,1.6363,1.6416,1.5928,1.5118,1.4549,1.4258,1.4071,1.392,1.3747,1.5217,1.5335,1.3975,1.555,1.5909,1.453,0.0,0.0,0.0,0.0,0.0,0.0,0.0,0.0,0.0,0.0,0.0,0.0,0.0,0.0,0.0,1.2464,0.0,1.1031,0.9563,0.0,0.0,0.0,0.694,0.6732,0.5295,0.422,0.4055,0.0,0.0,0.1173,0.0168,-0.0335,0.0111,-0.0223,-0.0783,-0.151,-0.1955,-0.2569,-0.3188,-0.3411,-0.3413,-0.3244,-0.2965,-0.2687,-0.2798,-0.319,-0.3413,-0.3527,-0.3799,-0.4021,-0.4076,-0.4132,-0.4353,-0.5014,-0.512,-0.5128,-0.4853,-0.4853,-0.4963,-0.5293,-0.534,-0.5445,2.1103,2.084,2.0825,2.0581,2.0133,1.9806,1.9713,1.97,1.97,1.9414,1.8972,1.8927,1.8745,1.8453,1.8398,1.8096,1.76,1.8072,1.8009,1.7591,1.7702,1.7709,1.7594,1.7626,1.7626,1.7581,1.713,1.6921,1.6851,1.5867,1.5096,1.4646,1.4433,1.4488,1.4776,1.4705,1.4602,1.4472,1.4387,1.4373,1.4492,1.4283,1.4061,1.3752,1.3705,1.3467,1.2997,1.3575,1.3647,1.3025,1.3657,1.3903,1.3558,1.3415,0.0,0.0,0.0,0.0,0.0,0.0,0.0,0.0,0.0,1.2609,1.2908,0.0,1.2724,0.0,1.0532,0.9548,0.9306,0.8554,0.0,0.0,0.694,0.625,0.4426,0.3825,0.3335,0.2734,0.1509,0.0448,-0.0168,-0.0838,-0.151,-0.1902,-0.1566,-0.1398,-0.1623,-0.2516,-0.3188,-0.3413,-0.3691,-0.3858,-0.3855,-0.3799,-0.3633,-0.3688,-0.3802,-0.3965,-0.4301,-0.4356,-0.4463,-0.4739,-0.5062,-0.5273,-0.5437,-0.5719,-0.5887,-0.5882,-0.5828,-0.5882,-0.5996,-0.5878,-0.576,2.0723,2.051,2.051,2.0439,2.0234,2.0027,1.9946,1.9898,1.9946,1.9646,1.911,1.8864,1.8621,1.8423,1.8423,1.8244,1.8002,1.8361,1.8229,1.7739,1.8062,1.7957,1.7472,1.746,1.7303,1.705,1.6584,1.6207,1.6033,1.5287,1.4684,1.4239,1.4082,1.3928,1.3807,1.3807,1.3902,1.4023,1.3602,1.3424,1.3637,1.316,1.3025,1.3314,1.256,1.2276,1.2393,1.2129,1.1981,1.2067,1.2255,1.2344,1.2325,1.1861,1.1391,0.0,0.0,0.0,0.0,0.0,0.0,0.0,0.0,0.0,0.0,0.0,1.0761,1.02,0.8919,0.7979,0.7582,0.6747,0.5896,0.4969,0.4852,0.431,0.2956,0.2565,0.212,0.1399,0.0503,-0.0392,-0.1118,-0.1734,-0.224,-0.2635,-0.2519,-0.2404,-0.2462,-0.313,-0.3747,-0.391,-0.419,-0.4242,-0.4021,-0.4021,-0.4021,-0.4187,-0.4353,-0.4629,-0.5011,-0.5171,-0.5336,-0.5559,-0.5714,-0.5932,-0.6041,-0.6263,-0.6431,-0.6593,-0.6756,-0.6696,-0.6317,-0.6421,-0.6519,2.0016,1.9901,1.9901,1.985,1.9798,1.9798,1.9965,2.022,2.022,1.9888,1.9291,1.876,1.8497,1.8485,1.8497,1.8412,1.8279,1.8499,1.8301,1.7751,1.8343,1.8143,1.719,1.719,1.6916,1.6417,1.5857,1.5397,1.5109,1.4946,1.4596,1.4025,1.4003,1.347,1.2494,1.2875,1.3254,1.3663,1.3211,1.2977,1.2967,1.1999,1.1909,1.2677,1.1216,1.0813,1.1715,1.0914,1.0626,1.1158,1.1158,1.1167,1.1183,0.9919,0.9678,0.0,0.9714,0.0,0.0,0.0,0.0,0.0,0.0,0.0,0.0,0.8712,0.8457,0.8477,0.741,0.6436,0.5887,0.4765,0.3846,0.3234,0.2571,0.2128,0.1959,0.1457,0.0897,0.0112,-0.0447,-0.1062,-0.1679,-0.2296,-0.2691,-0.2691,-0.2968,-0.319,-0.3469,-0.3799,-0.4245,-0.4691,-0.4802,-0.4743,-0.4467,-0.4353,-0.4463,-0.4736,-0.5011,-0.534,-0.5605,-0.5991,-0.6263,-0.6263,-0.6317,-0.6426,-0.6707,-0.6756,-0.6864,-0.7085,-0.7456,-0.745,-0.6696,-0.6912,-0.7283,1.9008,1.8263,1.8263,1.8058,1.7797,1.7797,1.8715,2.0182,2.022,1.9965,1.9506,1.9086,1.8894,1.8894,1.8894,1.8382,1.7529,1.799,1.7679,1.6666,1.6813,1.6793,1.6587,1.6545,1.6534,1.6374,1.5924,1.5624,1.5541,1.4702,1.3594,1.2316,1.2297,1.1722,1.0678,0.0,0.0,0.0,1.1603,1.166,1.1669,1.1469,1.1418,1.161,1.083,0.0,1.0661,1.0517,1.0466,1.0576,1.0576,0.0,0.0,0.0,0.0,0.0,0.0,0.0,0.0,0.0,0.0,0.0,0.8088,0.8146,0.8153,0.7272,0.6846,0.7219,0.5868,0.4889,0.4556,0.3895,0.3181,0.2516,0.2294,0.1792,0.0728,0.0449,0.0112,-0.0615,-0.1229,-0.1623,-0.1846,-0.2296,-0.2691,-0.2691,-0.2747,-0.3135,-0.3799,-0.4242,-0.4577,-0.4743,-0.5183,-0.5517,-0.5462,-0.5618,-0.5664,-0.5878,-0.5937,-0.5991,-0.6095,-0.6372,-0.6593,-0.6593,-0.6815,-0.6977,-0.7144,-0.7203,-0.7198,-0.7413,-0.7889,-0.8049,-0.7252,-0.7456,-0.7836,1.8004,0.0,1.7512,1.7401,0.0,1.7213,1.7786,1.8715,1.8715,1.8608,1.8405,1.8201,1.8093,1.8093,1.8093,1.7793,1.7297,1.7532,1.7346,1.6798,1.6787,1.6612,1.6348,1.6348,1.6182,1.5904,1.5362,1.4961,1.4634,1.3756,1.2752,1.155,1.155,1.1149,1.0373,0.9959,1.0069,1.0615,1.0747,1.0846,1.0846,1.0592,1.0694,1.1091,1.0123,0.0,0.0,0.0,0.0,0.0,0.0,0.0,0.0,1.0167,0.0,0.9547,0.937,0.9051,0.8528,0.8205,0.7623,0.6725,0.6401,0.645,0.6913,0.6131,0.5567,0.5605,0.4802,0.3956,0.3292,0.2901,0.2402,0.1737,0.1344,0.084,0.0224,-0.0168,-0.0615,-0.1229,-0.1623,-0.1903,-0.2296,-0.2579,-0.2802,-0.291,-0.335,-0.3793,-0.4236,-0.4515,-0.4739,-0.534,-0.5723,-0.6005,-0.6005,-0.6105,-0.6263,-0.6372,-0.6367,-0.6421,-0.6642,-0.681,-0.6923,-0.6923,-0.7085,-0.7252,-0.7311,-0.7371,-0.7413,-0.7521,-0.7949,-0.8109,-0.7681,-0.8196,-0.8587,1.6989,1.6866,1.6856,1.6866,1.6866,1.6866,1.6856,1.6922,0.0,0.0,0.0,1.7082,1.7071,1.7082,1.7082,1.6972,1.6786,1.6872,1.686,1.6794,1.6671,1.6377,1.5948,1.5753,1.5418,1.4982,1.4446,1.3929,1.3513,1.2923,1.22,1.1307,1.1242,1.0926,1.03,0.9769,0.9725,1.0115,1.021,1.0261,1.0269,0.9814,0.9961,1.0712,0.9458,0.9099,0.9747,0.9047,0.8791,0.9145,0.9131,0.9131,0.9138,0.8981,0.8725,0.8249,0.7658,0.7278,0.7165,0.6691,0.615,0.5609,0.5007,0.4992,0.5729,0.5156,0.457,0.4196,0.3904,0.3236,0.2294,0.1961,0.1625,0.1122,0.0505,0.0112,-0.0168,-0.0559,-0.1118,-0.179,-0.2015,-0.2184,-0.2805,-0.2914,-0.3026,-0.3297,-0.379,-0.4563,-0.4728,-0.4842,-0.5226,-0.5937,-0.6209,-0.6317,-0.6317,-0.6431,-0.6485,-0.6761,-0.6756,-0.6804,-0.7079,-0.7139,-0.7192,-0.7192,-0.7252,-0.7365,-0.7365,-0.7467,-0.7574,-0.7574,-0.7949,-0.8262,-0.8249,-0.9026,-0.929,1.614,1.5633,1.5642,1.5633,1.5633,1.5633,1.5633,1.5738,1.6754,1.7027,1.6708,1.6655,1.6655,1.6697,1.6708,1.6159,1.5342,1.5719,1.5622,1.5087,1.4562,1.4343,1.4473,1.3687,1.3295,1.333,1.305,1.2924,1.3091,1.2978,1.226,1.1061,1.0943,1.0309,0.9176,0.9153,0.916,0.9015,0.9465,0.971,0.9718,0.9666,0.9666,0.9762,0.9113,0.858,0.8237,0.809,0.7824,0.7456,0.7343,0.7278,0.7278,0.7122,0.6961,0.6907,0.6804,0.6421,0.5869,0.5701,0.5382,0.4736,0.4125,0.4122,0.4948,0.4505,0.407,0.3978,0.3077,0.2348,0.2015,0.1569,0.1177,0.0954,0.0841,0.0392,-0.0615,-0.0894,-0.1342,-0.241,-0.2691,-0.2747,-0.2914,-0.3023,-0.3241,-0.368,-0.379,-0.3846,-0.4941,-0.5601,-0.5991,-0.6209,-0.6426,-0.6593,-0.6701,-0.6928,-0.709,-0.7203,-0.7246,-0.73,-0.7408,-0.7467,-0.7413,-0.7467,-0.7467,-0.7521,-0.7616,-0.767,-0.7729,-0.7842,-0.8262,-0.8778,-0.9131,-0.9695,-0.9622,1.4619,1.4401,1.4341,1.4401,1.4401,1.4341,1.4155,1.3983,1.4674,1.5369,1.5955,1.5945,1.5811,1.5594,1.5245,1.4666,1.3961,1.3988,1.3783,1.3329,1.3243,1.3142,1.3058,1.2796,1.263,1.2489,1.2222,1.198,1.1831,1.1485,1.0894,0.9995,0.9825,0.9437,0.8831,0.8938,0.8777,0.8368,0.8896,0.8995,0.8672,0.877,0.867,0.8249,0.8015,0.7749,0.7396,0.7351,0.7257,0.6986,0.6987,0.6997,0.688,0.6703,0.6543,0.6485,0.6095,0.5769,0.5437,0.4831,0.434,0.4018,0.3458,0.3292,0.3685,0.3461,0.3183,0.2916,0.2298,0.1847,0.1457,0.1177,0.0954,0.0898,0.0336,-0.028,-0.084,-0.1511,-0.2128,-0.2691,-0.286,-0.2972,-0.3137,-0.3246,-0.3357,-0.3744,-0.3959,-0.4783,-0.6041,-0.6539,-0.682,-0.6815,-0.6923,-0.7036,-0.7139,-0.73,-0.7413,-0.7419,-0.7467,-0.7521,-0.7521,-0.758,-0.7639,-0.7521,-0.7568,-0.7676,-0.7788,-0.7889,-0.8002,-0.8162,-0.8368,-0.8732,-0.904,-0.948,-0.9732,1.3511,1.3511,1.3511,1.345,1.3442,1.339,1.31,1.2747,1.3014,1.3795,1.4737,1.4779,1.4459,1.4006,1.3559,1.3055,1.2599,1.2482,1.2305,1.2089,1.2241,1.2241,1.2028,1.2099,1.1958,1.1733,1.1371,1.1026,1.0689,1.0163,0.9647,0.9245,0.9018,0.8871,0.8804,0.8711,0.8432,0.7931,0.8262,0.8203,0.7723,0.7921,0.7733,0.7138,0.7161,0.7017,0.6749,0.6736,0.6649,0.6582,0.6578,0.6564,0.6473,0.6288,0.6079,0.5955,0.5441,0.5062,0.4893,0.3953,0.3403,0.3405,0.2847,0.2516,0.2519,0.2368,0.2199,0.1968,0.1738,0.14,0.1009,0.0897,0.0841,0.0673,-0.0168,-0.0783,-0.1176,-0.2017,-0.2691,-0.286,-0.297,-0.3137,-0.3304,-0.3416,-0.358,-0.3965,-0.4952,-0.6154,-0.6977,-0.7203,-0.7365,-0.7365,-0.7365,-0.7365,-0.7467,-0.7521,-0.7521,-0.7574,-0.7568,-0.7622,-0.7681,-0.7854,-0.7913,-0.7788,-0.7783,-0.7943,-0.8008,-0.8115,-0.8268,-0.8374,-0.8421,-0.8415,-0.8495,-0.9278,-0.9717,1.345,1.3511,1.345,1.3381,1.3191,1.307,1.2976,1.289,1.3,1.307,1.3141,1.2848,1.2377,1.1888,1.2032,1.1714,1.1147,1.1693,1.1944,1.1832,1.1655,1.1601,1.1699,1.1005,1.0669,1.065,1.0198,1.0075,1.0152,0.9825,0.9519,0.9216,0.9157,0.8997,0.8751,0.8549,0.8221,0.7883,0.7456,0.7246,0.7203,0.7305,0.7295,0.712,0.7206,0.6958,0.6298,0.6147,0.5922,0.5528,0.5317,0.5126,0.5104,0.498,0.4851,0.4698,0.4632,0.4346,0.3796,0.3125,0.28,0.2736,0.2242,0.1853,0.1856,0.1383,0.1331,0.1589,0.1293,0.1012,0.0898,0.0897,0.0617,0.0168,-0.0224,-0.0671,-0.1679,-0.2128,-0.2464,-0.3021,-0.3246,-0.336,-0.3416,-0.3527,-0.3855,-0.4563,-0.5773,-0.6756,-0.6864,-0.7192,-0.7515,-0.7622,-0.7574,-0.7521,-0.7521,-0.7634,-0.7687,-0.7676,-0.7771,-0.7883,-0.8049,-0.815,-0.8196,-0.8162,-0.8262,-0.8262,-0.8315,-0.8368,-0.8374,-0.8474,-0.8468,-0.8455,-0.8606,-0.9363,-0.985,1.2228,1.2158,1.2104,1.2042,1.1973,1.1911,1.1787,1.1725,1.1717,1.1559,1.1336,1.1319,1.1447,1.1696,1.1456,1.1021,1.0531,1.0729,1.0741,1.0609,1.0614,1.0615,1.0506,1.0342,1.0167,1.004,0.9793,0.9659,0.9552,0.9312,0.8928,0.8486,0.8419,0.8201,0.7676,0.7546,0.7215,0.6642,0.6426,0.6154,0.5905,0.6407,0.6398,0.5862,0.59,0.5769,0.5358,0.5334,0.5269,0.5104,0.5147,0.513,0.4896,0.4826,0.4755,0.4619,0.4274,0.3963,0.3725,0.2783,0.2251,0.2251,0.1661,0.1306,0.1307,0.1083,0.1024,0.1071,0.0994,0.0861,0.0789,0.0448,0.0112,-0.028,-0.0896,-0.1566,-0.2011,-0.2516,-0.2852,-0.3246,-0.336,-0.3416,-0.3527,-0.3635,-0.4184,-0.5113,-0.61,-0.6588,-0.7128,-0.7456,-0.767,-0.7949,-0.7949,-0.7842,-0.7794,-0.786,-0.7967,-0.8008,-0.8055,-0.8162,-0.8262,-0.8368,-0.8368,-0.8421,-0.8421,-0.8527,-0.8586,-0.8639,-0.8639,-0.8738,-0.8844,-0.8883,-0.8908,-0.9332,-0.9354,1.1247,1.1185,1.1059,1.0996,1.0989,1.0843,1.0795,1.0724,1.0656,1.0471,1.0261,1.0388,1.0795,1.1303,1.0927,1.0472,1.0171,1.0116,1.0007,0.9846,1.01,1.0134,0.996,1.0127,1.0134,0.992,0.9577,0.9137,0.8637,0.8429,0.8103,0.7664,0.7674,0.7438,0.6942,0.6783,0.6404,0.5903,0.5698,0.5336,0.5033,0.5571,0.5624,0.4997,0.5078,0.507,0.49,0.4944,0.4999,0.5043,0.5176,0.5162,0.4996,0.4942,0.4746,0.4417,0.3701,0.3258,0.3258,0.2277,0.1664,0.1603,0.1234,0.0988,0.099,0.0996,0.0871,0.0739,0.0732,0.0717,0.029,-0.0057,-0.0457,-0.0901,-0.1802,-0.2317,-0.2517,-0.2963,-0.3302,-0.3416,-0.3471,-0.3527,-0.3691,-0.4076,-0.4838,-0.566,-0.615,-0.6588,-0.7509,-0.7777,-0.7943,-0.8168,-0.8221,-0.8162,-0.8062,-0.8133,-0.824,-0.8281,-0.8268,-0.8315,-0.8474,-0.8533,-0.858,-0.8626,-0.8573,-0.8633,-0.8791,-0.8903,-0.8956,-0.9106,-0.9204,-0.9211,-0.9145,-0.9211,-0.9309,1.1129,1.1059,1.0933,1.0807,1.0787,1.0404,1.0376,1.0604,1.0281,1.0294,1.0468,1.0281,1.0127,1.0268,1.0268,0.9993,0.9791,1.0053,1.0147,1.0147,1.0408,1.0598,1.0591,1.0604,1.0528,1.0246,0.9269,0.8281,0.7345,0.7231,0.7079,0.6993,0.7088,0.7069,0.6776,0.6278,0.6054,0.5865,0.5342,0.4864,0.4772,0.4912,0.5056,0.5058,0.5275,0.5329,0.5312,0.5176,0.5179,0.5394,0.5104,0.5009,0.5028,0.4931,0.4549,0.3867,0.2709,0.2037,0.1978,0.1489,0.1117,0.1053,0.1058,0.0991,0.0999,0.0891,0.0765,0.0682,0.0508,0.019,-0.0431,-0.0608,-0.1071,-0.1992,-0.2418,-0.282,-0.3256,-0.3416,-0.3585,-0.3583,-0.3638,-0.3694,-0.3796,-0.4893,-0.5496,-0.6091,-0.6907,-0.7622,-0.7788,-0.8062,-0.8162,-0.8221,-0.8321,-0.8368,-0.8374,-0.8394,-0.84,-0.844,-0.8474,-0.8514,-0.8685,-0.8798,-0.8837,-0.889,-0.9001,-0.9054,-0.9099,-0.9099,-0.9152,-0.9256,-0.9368,-0.9368,-0.9465,-0.9263,-0.9465,1.087,1.0751,1.0681,1.0688,1.0667,1.0504,1.0468,1.0611,1.0517,1.0461,1.0591,1.0448,1.0401,1.0463,1.0401,1.0241,1.0,1.0261,1.0501,1.0668,1.0788,1.0666,1.0348,1.0265,0.9915,0.9379,0.8538,0.7854,0.7305,0.722,0.6983,0.6657,0.6556,0.6298,0.5834,0.5541,0.5366,0.5244,0.5011,0.4873,0.4814,0.4872,0.4965,0.5099,0.5075,0.5082,0.5074,0.5108,0.5159,0.5213,0.5199,0.5179,0.5065,0.4637,0.4047,0.3297,0.2513,0.2019,0.1954,0.1435,0.1044,0.1044,0.0915,0.0849,0.0851,0.0726,0.0595,0.0394,-0.0066,-0.0657,-0.1298,-0.1387,-0.1465,-0.1973,-0.2828,-0.3367,-0.3503,-0.3585,-0.3638,-0.3691,-0.3802,-0.3913,-0.4187,-0.4842,-0.5546,-0.6095,-0.6912,-0.7568,-0.8002,-0.8221,-0.8321,-0.8427,-0.8474,-0.858,-0.8646,-0.8553,-0.8559,-0.8646,-0.8738,-0.8837,-0.8995,-0.8995,-0.8995,-0.8988,-0.9152,-0.9323,-0.9316,-0.9406,-0.9406,-0.9517,-0.9621,-0.9784,-0.9991,-0.9784,-1.0138,0.997,0.9913,0.9913,0.9907,0.9894,0.9819,0.9832,0.9888,0.9819,0.9951,1.0148,1.004,1.004,1.0168,1.0034,0.9819,0.9656,1.0027,1.0258,1.0309,1.0255,1.0135,0.9817,0.9632,0.9248,0.8636,0.784,0.7192,0.6813,0.6701,0.6423,0.5968,0.5912,0.5651,0.5164,0.5102,0.5037,0.4965,0.4935,0.4928,0.4897,0.4982,0.4967,0.5108,0.5084,0.506,0.5064,0.5155,0.5206,0.5148,0.5062,0.4782,0.444,0.3754,0.3188,0.268,0.1993,0.1612,0.1612,0.121,0.0941,0.0875,0.0808,0.0674,0.0674,0.054,0.0337,-0.0067,-0.0538,-0.1209,-0.1866,-0.2138,-0.228,-0.2584,-0.3385,-0.387,-0.3735,-0.3764,-0.3789,-0.3863,-0.3965,-0.419,-0.4519,-0.4952,-0.5655,-0.6426,-0.7074,-0.7563,-0.8103,-0.8374,-0.8474,-0.8573,-0.8685,-0.8738,-0.8857,-0.8818,-0.8765,-0.8857,-0.8935,-0.9086,-0.9197,-0.9197,-0.9197,-0.9138,-0.9249,-0.942,-0.9577,-0.9673,-0.9769,-0.9873,-1.0035,-1.0205,-1.03,-1.0352,-1.0659,0.8565,0.8641,0.8565,0.8674,0.8722,0.8488,0.8318,0.8597,0.8375,0.8816,0.939,0.8888,0.9034,0.9262,0.8941,0.8544,0.8656,0.9058,0.9225,0.9074,0.9018,0.9017,0.9017,0.8722,0.843,0.8178,0.7214,0.635,0.5799,0.5696,0.5497,0.5287,0.5409,0.5389,0.5131,0.5131,0.5111,0.507,0.5006,0.4934,0.4925,0.5048,0.5138,0.5162,0.526,0.5325,0.5404,0.5408,0.5342,0.5196,0.4573,0.3796,0.3109,0.2439,0.2008,0.1873,0.1144,0.0674,0.0809,0.0674,0.0539,0.0539,0.0539,0.0472,0.0472,0.0337,-0.0067,-0.0605,-0.1076,-0.1546,-0.2147,-0.28,-0.3323,-0.3941,-0.4017,-0.4058,-0.4022,-0.4004,-0.3998,-0.4051,-0.4135,-0.4463,-0.4952,-0.5285,-0.5887,-0.6804,-0.7348,-0.7729,-0.8262,-0.8527,-0.8573,-0.8679,-0.8791,-0.8896,-0.9015,-0.9075,-0.9068,-0.9061,-0.9131,-0.9214,-0.9295,-0.9302,-0.9287,-0.9287,-0.9524,-0.9695,-0.994,-1.0035,-1.0095,-1.0249,-1.0411,-1.0565,-1.0667,-1.0769,-1.0913,0.8676,0.8698,0.8842,0.8838,0.8827,0.8753,0.8695,0.8692,0.8679,0.8727,0.8814,0.8733,0.8783,0.8711,0.8425,0.8037,0.7637,0.7712,0.8169,0.8901,0.8875,0.871,0.8495,0.8127,0.7413,0.6593,0.6242,0.5903,0.5628,0.5589,0.5512,0.5442,0.5377,0.536,0.5284,0.5287,0.5343,0.5264,0.524,0.524,0.5267,0.5277,0.5287,0.5294,0.5404,0.5428,0.5428,0.5428,0.516,0.4688,0.4383,0.3636,0.2452,0.1868,0.1476,0.1009,0.0741,0.054,0.054,0.054,0.0472,0.0472,0.0405,0.0337,0.027,-0.027,-0.0741,-0.1143,-0.188,-0.2753,-0.3086,-0.3754,-0.3954,-0.3623,-0.3991,-0.4299,-0.4162,-0.4128,-0.4138,-0.415,-0.4301,-0.4519,-0.4853,-0.5242,-0.5955,-0.6804,-0.7343,-0.7889,-0.8368,-0.8633,-0.8745,-0.8844,-0.8949,-0.9054,-0.9166,-0.9225,-0.9271,-0.9263,-0.9287,-0.9318,-0.9392,-0.9406,-0.9392,-0.9562,-0.9799,-1.0066,-1.0257,-1.036,-1.0411,-1.0565,-1.0769,-1.0871,-1.1023,-1.1124,-1.1226,0.8162,0.8176,0.8229,0.8264,0.8312,0.8179,0.8122,0.8069,0.8042,0.8053,0.8078,0.7884,0.7942,0.7966,0.7678,0.7279,0.6869,0.6734,0.7242,0.8113,0.8004,0.7794,0.7577,0.7199,0.6537,0.5745,0.5616,0.56,0.5583,0.5532,0.5501,0.5481,0.5406,0.5425,0.5428,0.5428,0.5428,0.5428,0.5425,0.5428,0.5362,0.516,0.4957,0.4891,0.4619,0.442,0.442,0.442,0.442,0.4154,0.3818,0.2748,0.1545,0.1209,0.0941,0.0606,0.0405,0.0337,0.0405,0.0337,0.0337,0.0337,0.027,0.0,-0.0269,-0.0942,-0.128,-0.215,-0.2885,-0.3556,-0.3956,-0.4359,-0.4422,-0.4084,-0.4298,-0.4495,-0.4436,-0.4451,-0.4484,-0.4538,-0.4646,-0.4947,-0.5406,-0.5609,-0.6284,-0.7106,-0.761,-0.799,-0.8527,-0.8798,-0.8903,-0.9001,-0.9106,-0.9211,-0.9263,-0.9368,-0.9472,-0.9465,-0.9451,-0.9496,-0.951,-0.9562,-0.9555,-0.9955,-1.0252,-1.051,-1.0707,-1.0632,-1.0683,-1.0879,-1.1023,-1.1124,-1.1175,-1.1226,-1.1276,0.7056,0.7052,0.7085,0.7224,0.7269,0.6992,0.6915,0.6884,0.6653,0.6841,0.7137,0.6793,0.6789,0.7066,0.6738,0.6462,0.629,0.6261,0.6395,0.66,0.6481,0.6443,0.6497,0.625,0.594,0.5655,0.5552,0.5494,0.5613,0.5491,0.5442,0.541,0.5452,0.5428,0.5428,0.5428,0.5428,0.5428,0.5428,0.5362,0.5362,0.4688,0.4217,0.4015,0.3416,0.3013,0.3013,0.2878,0.3213,0.3749,0.2613,0.1478,0.0674,0.0404,0.0404,0.0405,0.0135,0.0135,0.0202,0.0135,0.0,0.0,-0.0067,-0.0404,-0.1074,-0.1412,-0.2085,-0.3288,-0.3751,-0.4084,-0.4622,-0.4827,-0.4891,-0.502,-0.4854,-0.4844,-0.489,-0.4924,-0.4874,-0.4937,-0.514,-0.5564,-0.6292,-0.6322,-0.7062,-0.7836,-0.8084,-0.8249,-0.8639,-0.891,-0.9008,-0.9106,-0.9256,-0.9309,-0.9413,-0.9465,-0.9517,-0.9569,-0.9555,-0.9562,-0.9614,-0.9614,-0.9777,-1.0177,-1.0637,-1.0894,-1.1031,-1.0947,-1.0981,-1.1124,-1.1226,-1.1276,-1.1276,-1.1276,-1.1326,0.7342,0.737,0.7473,0.7529,0.7564,0.7278,0.698,0.6839,0.6891,0.6768,0.6615,0.658,0.6565,0.6527,0.6316,0.6165,0.6115,0.6032,0.5957,0.5988,0.594,0.5978,0.6092,0.6002,0.5916,0.5752,0.5711,0.5705,0.5732,0.5599,0.5532,0.5525,0.5413,0.5432,0.5428,0.5439,0.5428,0.5428,0.5428,0.5302,0.504,0.4422,0.402,0.3823,0.3084,0.2681,0.2611,0.2143,0.2011,0.2144,0.1344,0.0606,0.0404,0.0202,0.0,0.0135,0.0067,0.0,0.0067,0.0,-0.0067,-0.0202,-0.0202,-0.0606,-0.1475,-0.2011,-0.275,-0.3687,-0.4217,-0.4616,-0.4954,-0.5024,-0.509,-0.5279,-0.515,-0.5071,-0.5071,-0.5071,-0.5097,-0.5218,-0.5715,-0.6168,-0.6383,-0.6749,-0.7226,-0.7895,-0.8137,-0.8249,-0.8798,-0.9061,-0.9159,-0.9256,-0.9361,-0.9458,-0.951,-0.9562,-0.9562,-0.9621,-0.9614,-0.9614,-0.9666,-0.971,-0.9976,-1.0316,-1.0834,-1.1158,-1.1217,-1.1175,-1.1276,-1.1276,-1.1276,-1.1276,-1.1276,-1.1276,-1.1276,0.7553,0.741,0.7609,0.765,0.7613,0.7303,0.7126,0.7024,0.6875,0.6656,0.6428,0.6407,0.6378,0.6293,0.6222,0.6152,0.6148,0.6067,0.6,0.6,0.6003,0.5979,0.5966,0.5983,0.5979,0.5922,0.5966,0.5952,0.5881,0.5749,0.5688,0.5633,0.5467,0.549,0.5555,0.541,0.54,0.5416,0.5335,0.5058,0.4597,0.3849,0.3218,0.2757,0.2097,0.1638,0.1501,0.1149,0.0941,0.0874,0.0539,0.027,0.0135,0.0067,0.0,0.0,-0.0067,-0.0135,-0.0135,-0.0135,-0.027,-0.0337,-0.0405,-0.0875,-0.1543,-0.2142,-0.2744,-0.3887,-0.4348,-0.4749,-0.5153,-0.5289,-0.5355,-0.5481,-0.547,-0.5417,-0.5352,-0.535,-0.542,-0.5601,-0.5966,-0.6384,-0.6406,-0.6798,-0.7335,-0.7817,-0.8084,-0.8461,-0.8949,-0.9166,-0.9351,-0.9446,-0.9516,-0.9553,-0.9584,-0.9577,-0.9614,-0.9614,-0.9792,-0.9792,-0.988,-0.9976,-1.0308,-1.0691,-1.1039,-1.1302,-1.1302,-1.1276,-1.1276,-1.1276,-1.1276,-1.1276,-1.1276,-1.1276,-1.1276,0.7552,0.739,0.7575,0.7663,0.751,0.714,0.7059,0.7098,0.6788,0.6565,0.6489,0.639,0.6307,0.6261,0.628,0.6244,0.6321,0.621,0.6227,0.622,0.6203,0.6122,0.5956,0.6037,0.6084,0.6108,0.6227,0.6213,0.6118,0.5959,0.5861,0.5734,0.5513,0.5497,0.555,0.5447,0.5367,0.5326,0.5005,0.4518,0.389,0.3055,0.2259,0.1577,0.0904,0.0492,0.0,0.0,0.0,0.0,0.0,0.0135,0.0,0.0,0.0,0.0,-0.0202,-0.027,-0.0337,-0.0405,-0.0472,-0.054,-0.054,-0.0942,-0.1745,-0.2143,-0.2813,-0.422,-0.4411,-0.4882,-0.5355,-0.5554,-0.562,-0.5683,-0.5811,-0.5818,-0.5749,-0.5683,-0.5752,-0.5954,-0.6145,-0.6415,-0.6563,-0.6852,-0.7359,-0.8416,-0.8629,-0.9078,-0.9472,-0.9648,-0.9735,-0.9746,-0.972,-0.9709,-0.968,-0.965,-0.9681,-0.9725,-0.9955,-1.0118,-1.0316,-1.047,-1.0802,-1.1082,-1.1175,-1.126,-1.1293,-1.1276,-1.1276,-1.1276,-1.1276,-1.1276,-1.1276,-1.1276,-1.1276,0.7635,0.7562,0.7523,0.7508,0.7442,0.7236,0.6997,0.7001,0.6732,0.6593,0.6468,0.6329,0.6274,0.6264,0.6274,0.6261,0.6264,0.6268,0.6261,0.6261,0.6261,0.6237,0.6159,0.62,0.6268,0.6346,0.6403,0.6464,0.6458,0.6281,0.6083,0.5885,0.5646,0.5461,0.5369,0.53,0.5228,0.5131,0.4576,0.4068,0.3514,0.238,0.1497,0.1072,0.0432,0.0,0.0,0.0,0.0,0.0,0.0,0.0,0.0,0.0,0.0,-0.0204,-0.0271,-0.0338,-0.0473,-0.0542,-0.0607,-0.0744,-0.0744,-0.1144,-0.1946,-0.2551,-0.3353,-0.4422,-0.5017,-0.5345,-0.569,-0.5822,-0.5822,-0.5822,-0.5888,-0.5954,-0.6017,-0.6079,-0.6086,-0.6222,-0.6741,-0.7237,-0.7297,-0.8083,-0.852,-0.9087,-0.9452,-0.9862,-1.0051,-1.012,-1.0125,-1.0053,-0.994,-0.9877,-0.9826,-0.9806,-0.9844,-0.9932,-1.0162,-1.0383,-1.0581,-1.0845,-1.1065,-1.115,-1.1184,-1.1226,-1.1276,-1.1276,-1.1276,-1.1276,-1.1276,-1.1276,-1.1276,-1.1276,-1.1276,0.7458,0.7378,0.7467,0.7415,0.7323,0.7139,0.7007,0.7007,0.6871,0.6763,0.6668,0.6532,0.643,0.6363,0.6356,0.6332,0.6369,0.6335,0.6363,0.6363,0.6359,0.6363,0.6359,0.6363,0.6407,0.6488,0.663,0.6619,0.649,0.6319,0.6147,0.5946,0.5645,0.5498,0.5457,0.5238,0.5167,0.5069,0.4261,0.3569,0.2987,0.1912,0.0955,0.0663,0.0,0.0,0.0,0.0,0.0,0.0,-0.0071,-0.0139,-0.0139,-0.0139,-0.0278,-0.0419,-0.056,-0.056,-0.07,-0.0769,-0.0836,-0.0893,-0.0961,-0.1428,-0.2023,-0.2621,-0.3422,-0.442,-0.5011,-0.5335,-0.5822,-0.602,-0.602,-0.6086,-0.609,-0.6218,-0.6412,-0.6346,-0.6218,-0.6354,-0.6815,-0.6999,-0.751,-0.8452,-0.8859,-0.8968,-0.9426,-0.9836,-1.0322,-1.0406,-1.0428,-1.0397,-1.0199,-1.0068,-1.0002,-1.003,-1.0014,-1.0198,-1.0462,-1.0624,-1.0777,-1.0989,-1.1251,-1.1234,-1.1226,-1.1226,-1.1276,-1.1276,-1.1276,-1.1276,-1.1276,-1.1276,-1.1276,-1.1276,-1.1276,0.7396,0.7207,0.7371,0.7361,0.717,0.7153,0.7136,0.7027,0.699,0.6902,0.6895,0.677,0.6597,0.6522,0.6468,0.6396,0.6366,0.6441,0.6508,0.6508,0.6508,0.6508,0.6428,0.6431,0.6435,0.6461,0.6676,0.6662,0.6354,0.6235,0.6105,0.5885,0.5608,0.5431,0.5532,0.5366,0.5126,0.5038,0.3982,0.319,0.2505,0.1495,0.06,0.0,0.0,0.0,0.0,0.0,0.0,-0.0074,-0.0218,-0.0364,-0.0365,-0.0362,-0.0431,-0.0655,-0.0796,-0.0867,-0.0938,-0.1085,-0.1149,-0.1125,-0.1197,-0.1598,-0.2251,-0.2858,-0.3687,-0.4495,-0.5245,-0.5649,-0.6033,-0.6277,-0.638,-0.6406,-0.6461,-0.6643,-0.6815,-0.6609,-0.6544,-0.6626,-0.7012,-0.719,-0.7584,-0.8238,-0.8588,-0.9016,-0.9453,-0.9948,-1.0407,-1.0733,-1.0814,-1.0792,-1.0638,-1.0543,-1.0446,-1.0424,-1.0399,-1.0566,-1.0808,-1.0836,-1.0989,-1.1133,-1.1285,-1.1285,-1.1276,-1.1276,-1.1276,-1.1276,-1.1276,-1.1276,-1.1276,-1.1276,-1.1276,-1.1276,-1.1276,0.7526,0.7512,0.7478,0.7333,0.7312,0.72,0.7146,0.7119,0.6993,0.6932,0.6915,0.6776,0.6709,0.6641,0.6519,0.6458,0.6481,0.6586,0.6664,0.6661,0.6661,0.6496,0.6334,0.6334,0.6245,0.6204,0.6427,0.6484,0.6288,0.6205,0.6081,0.5785,0.5534,0.5459,0.5246,0.5002,0.4902,0.4709,0.3503,0.2557,0.2165,0.1081,0.0232,0.0,0.0,0.0,-0.0233,-0.0233,-0.031,-0.0466,-0.0542,-0.0619,-0.0691,-0.0602,-0.0666,-0.0808,-0.0881,-0.1031,-0.1176,-0.1171,-0.1152,-0.1206,-0.1502,-0.1998,-0.2734,-0.35,-0.4442,-0.5271,-0.6128,-0.6624,-0.6788,-0.6859,-0.6892,-0.6954,-0.6992,-0.7154,-0.7306,-0.733,-0.7209,-0.7297,-0.747,-0.7637,-0.8024,-0.8631,-0.9369,-0.9894,-1.0377,-1.0681,-1.1059,-1.1231,-1.1311,-1.1253,-1.1143,-1.1077,-1.0978,-1.0942,-1.0945,-1.0999,-1.1179,-1.1082,-1.1167,-1.1234,-1.1276,-1.1276,-1.1276,-1.1276,-1.1276,-1.1276,-1.1276,-1.1276,-1.1276,-1.1276,-1.1276,-1.1276,-1.1276,0.7597,0.7594,0.7519,0.7441,0.7366,0.7292,0.721,0.7048,0.7068,0.7037,0.693,0.6959,0.6885,0.6817,0.6753,0.6671,0.6644,0.6659,0.6642,0.6645,0.6476,0.6395,0.6229,0.6226,0.6092,0.603,0.6141,0.6294,0.6079,0.6141,0.5941,0.5709,0.5552,0.5363,0.5073,0.4626,0.4518,0.4045,0.284,0.188,0.1801,0.0471,0.0,-0.0079,-0.0236,-0.0314,-0.0314,-0.0393,-0.0471,-0.0628,-0.0707,-0.0786,-0.086,-0.093,-0.0994,-0.1062,-0.1135,-0.1211,-0.1515,-0.159,-0.1649,-0.1908,-0.2289,-0.2999,-0.3667,-0.452,-0.5394,-0.6229,-0.6785,-0.7313,-0.7296,-0.739,-0.7467,-0.7446,-0.7427,-0.7522,-0.7695,-0.7736,-0.7811,-0.7967,-0.8122,-0.828,-0.8628,-0.9325,-1.0205,-1.08,-1.131,-1.1498,-1.156,-1.1622,-1.1622,-1.1589,-1.1548,-1.1598,-1.1545,-1.1576,-1.1538,-1.1577,-1.1509,-1.1412,-1.137,-1.143,-1.1345,-1.1276,-1.1276,-1.1404,-1.1276,-1.1276,-1.1276,-1.1276,-1.1276,-1.1276,-1.1276,-1.1276,-1.1276,0.7685,0.7689,0.7655,0.7556,0.7424,0.738,0.7278,0.716,0.7136,0.7132,0.7139,0.7126,0.7065,0.699,0.6949,0.6892,0.6682,0.6642,0.6615,0.6532,0.6362,0.6279,0.6192,0.6183,0.6067,0.5786,0.5874,0.5928,0.5849,0.5923,0.5883,0.5709,0.5472,0.5426,0.5241,0.4405,0.4042,0.3381,0.2236,0.1341,0.0785,0.0235,-0.0236,-0.0157,-0.0471,-0.055,-0.0471,-0.055,-0.0707,-0.0786,-0.0943,-0.1022,-0.1022,-0.1257,-0.1413,-0.1414,-0.1413,-0.1649,-0.1801,-0.2032,-0.2156,-0.2631,-0.3183,-0.3968,-0.4874,-0.5533,-0.6367,-0.7124,-0.7492,-0.7757,-0.783,-0.7957,-0.799,-0.8034,-0.7899,-0.7859,-0.8129,-0.824,-0.8244,-0.8429,-0.8705,-0.8941,-0.918,-0.9533,-1.0281,-1.0989,-1.1435,-1.1498,-1.1622,-1.1622,-1.1608,-1.175,-1.1859,-1.2071,-1.2157,-1.2241,-1.2203,-1.218,-1.1969,-1.1741,-1.1633,-1.1567,-1.1567,-1.1593,-1.1636,-1.1721,-1.1507,-1.1285,-1.1276,-1.1276,-1.1276,-1.1276,-1.1276,-1.1276,-1.1276,0.7987,0.7977,0.7841,0.7702,0.7556,0.7434,0.7285,0.7149,0.7139,0.7139,0.7139,0.7139,0.7041,0.7017,0.7011,0.685,0.6717,0.6673,0.6562,0.6383,0.6301,0.6213,0.6139,0.6148,0.5946,0.5733,0.5786,0.5657,0.5613,0.5772,0.5678,0.56,0.5556,0.5502,0.5365,0.4248,0.3918,0.3575,0.2124,0.08,0.0079,-0.0235,-0.0393,-0.0471,-0.0629,-0.0707,-0.0786,-0.0864,-0.0943,-0.1179,-0.1258,-0.1258,-0.1335,-0.1647,-0.1803,-0.1803,-0.1804,-0.1883,-0.2038,-0.2273,-0.2647,-0.3215,-0.3691,-0.4594,-0.5604,-0.6607,-0.7387,-0.7875,-0.8081,-0.8209,-0.8477,-0.8557,-0.8699,-0.864,-0.8539,-0.8656,-0.8827,-0.8617,-0.8615,-0.8737,-0.8942,-0.9338,-0.9713,-0.9989,-1.0345,-1.1045,-1.156,-1.156,-1.1685,-1.1747,-1.1934,-1.2143,-1.2304,-1.2478,-1.267,-1.2747,-1.2702,-1.2697,-1.2518,-1.2206,-1.2018,-1.197,-1.2107,-1.2141,-1.2132,-1.1961,-1.1696,-1.149,-1.1345,-1.1276,-1.1276,-1.1276,-1.1276,-1.1276,-1.1285,0.8038,0.8031,0.7967,0.7807,0.7604,0.7522,0.7363,0.7173,0.7139,0.7139,0.7139,0.7139,0.7054,0.6966,0.6786,0.6665,0.6452,0.6413,0.6349,0.6171,0.608,0.5994,0.5905,0.5908,0.5733,0.5733,0.5733,0.5716,0.5681,0.5689,0.5609,0.5654,0.5505,0.5575,0.5266,0.3988,0.3475,0.2782,0.1491,0.0161,-0.0395,-0.055,-0.0629,-0.0629,-0.0866,-0.0945,-0.0944,-0.11,-0.1179,-0.1336,-0.1336,-0.1414,-0.157,-0.1803,-0.1959,-0.2273,-0.2431,-0.2589,-0.2668,-0.2746,-0.3115,-0.3645,-0.4199,-0.5046,-0.6395,-0.7343,-0.8016,-0.8385,-0.8627,-0.8861,-0.8978,-0.912,-0.9247,-0.9244,-0.9026,-0.9101,-0.9157,-0.9034,-0.8974,-0.9111,-0.9236,-0.9522,-0.9849,-1.0012,-1.0341,-1.0911,-1.1339,-1.149,-1.174,-1.212,-1.2305,-1.2613,-1.2789,-1.2984,-1.3107,-1.3186,-1.3033,-1.3029,-1.3159,-1.2841,-1.2534,-1.2483,-1.2565,-1.2466,-1.2329,-1.2124,-1.1875,-1.173,-1.1619,-1.1447,-1.1276,-1.1345,-1.1413,-1.1327,-1.1327,0.8007,0.8038,0.8038,0.7889,0.7658,0.7557,0.7416,0.7088,0.7039,0.6956,0.7055,0.6952,0.6831,0.6719,0.6554,0.6471,0.6343,0.6204,0.6106,0.5919,0.5819,0.5733,0.5733,0.5735,0.5735,0.5733,0.5733,0.5725,0.5727,0.5733,0.5733,0.5641,0.521,0.5205,0.477,0.3399,0.2155,0.1637,0.0422,-0.0411,-0.0726,-0.0883,-0.0802,-0.0882,-0.104,-0.1196,-0.1111,-0.1191,-0.1271,-0.1336,-0.1492,-0.1648,-0.1803,-0.2117,-0.2431,-0.2666,-0.2981,-0.3217,-0.3217,-0.3295,-0.353,-0.4075,-0.4927,-0.6002,-0.6927,-0.7787,-0.8399,-0.8841,-0.9013,-0.9241,-0.9442,-0.9617,-0.9591,-0.9558,-0.9403,-0.9405,-0.9335,-0.9238,-0.92,-0.9303,-0.9421,-0.9494,-0.969,-0.9838,-1.023,-1.0816,-1.1122,-1.1373,-1.1864,-1.2367,-1.2613,-1.2928,-1.3103,-1.3224,-1.3346,-1.3451,-1.3297,-1.333,-1.3456,-1.3368,-1.3027,-1.2998,-1.3076,-1.2897,-1.2612,-1.2552,-1.2466,-1.2184,-1.191,-1.1807,-1.1713,-1.1601,-1.1567,-1.149,-1.1524,0.7913,0.8038,0.8035,0.794,0.7694,0.7511,0.7321,0.7137,0.6759,0.678,0.6842,0.6673,0.6542,0.6499,0.646,0.6367,0.6103,0.6213,0.6099,0.5863,0.5735,0.5741,0.5738,0.5733,0.5733,0.5733,0.5733,0.5733,0.5741,0.576,0.5746,0.5636,0.4896,0.4554,0.384,0.2481,0.0875,0.0262,-0.0516,-0.0765,-0.0921,-0.1,-0.1083,-0.1168,-0.1253,-0.1328,-0.122,-0.1296,-0.1367,-0.1343,-0.165,-0.196,-0.2117,-0.2588,-0.2902,-0.3137,-0.3372,-0.3608,-0.3608,-0.3686,-0.4077,-0.4851,-0.5854,-0.678,-0.7403,-0.8165,-0.8765,-0.9216,-0.9387,-0.9544,-0.969,-0.99,-0.9846,-0.9776,-0.9674,-0.9653,-0.9561,-0.9482,-0.9466,-0.9542,-0.9608,-0.9773,-0.9967,-1.0134,-1.0492,-1.107,-1.1626,-1.1926,-1.2236,-1.2736,-1.2858,-1.3103,-1.3277,-1.3407,-1.3493,-1.3528,-1.3596,-1.3553,-1.3588,-1.3597,-1.3494,-1.3519,-1.3397,-1.3355,-1.3108,-1.3083,-1.3014,-1.2714,-1.2466,-1.2295,-1.2141,-1.197,-1.1952,-1.1916,-1.1993,0.7674,0.7609,0.7609,0.7576,0.7524,0.743,0.7254,0.6941,0.6786,0.6786,0.6741,0.6519,0.6379,0.6391,0.6167,0.6204,0.6129,0.6174,0.6029,0.5874,0.5836,0.5795,0.5768,0.5741,0.5733,0.5738,0.5738,0.5733,0.5738,0.5613,0.5138,0.4761,0.4218,0.3757,0.2861,0.1609,0.0266,-0.0613,-0.087,-0.1033,-0.1101,-0.118,-0.1264,-0.1264,-0.1348,-0.1343,-0.1329,-0.1311,-0.1459,-0.1602,-0.1816,-0.2121,-0.251,-0.2982,-0.3217,-0.3452,-0.3684,-0.3763,-0.3841,-0.3841,-0.4151,-0.5076,-0.6005,-0.6938,-0.7723,-0.8637,-0.916,-0.9533,-0.9614,-0.9771,-0.9846,-0.9916,-0.99,-0.9895,-0.9879,-0.9857,-0.9782,-0.9688,-0.9734,-0.9884,-1.0007,-1.0228,-1.0344,-1.0587,-1.0923,-1.1313,-1.1921,-1.2452,-1.2894,-1.3112,-1.3347,-1.3425,-1.361,-1.374,-1.3845,-1.3896,-1.3956,-1.3893,-1.3831,-1.3851,-1.3845,-1.3554,-1.3494,-1.3502,-1.3562,-1.3468,-1.3348,-1.3194,-1.2954,-1.2646,-1.2432,-1.2261,-1.2248,-1.2359,-1.2444,0.7455,0.7417,0.7286,0.7224,0.729,0.7296,0.7052,0.6774,0.6631,0.6587,0.6555,0.6403,0.6312,0.6244,0.615,0.6018,0.6075,0.6102,0.6053,0.5983,0.5909,0.5858,0.5809,0.579,0.5801,0.5784,0.57,0.5705,0.5223,0.5336,0.4316,0.3378,0.3077,0.2525,0.1967,0.0805,-0.0267,-0.0882,-0.114,-0.1135,-0.1291,-0.1291,-0.1292,-0.1378,-0.138,-0.1448,-0.1517,-0.1574,-0.1793,-0.2006,-0.2294,-0.2592,-0.2904,-0.3295,-0.345,-0.3684,-0.3841,-0.3841,-0.3843,-0.3997,-0.4382,-0.5234,-0.616,-0.718,-0.8196,-0.9032,-0.962,-0.9771,-0.9846,-0.9922,-0.9922,-0.9922,-0.9922,-0.9906,-0.9906,-0.9895,-0.997,-0.9947,-1.0118,-1.0237,-1.0398,-1.0599,-1.0942,-1.1225,-1.1902,-1.2313,-1.3048,-1.3443,-1.3642,-1.384,-1.3924,-1.3987,-1.4033,-1.4127,-1.4221,-1.4273,-1.4316,-1.4333,-1.4324,-1.4234,-1.417,-1.3905,-1.3836,-1.4024,-1.4016,-1.3836,-1.3708,-1.3613,-1.328,-1.2894,-1.2774,-1.2732,-1.2672,-1.2774,-1.2851,0.7169,0.7302,0.6994,0.6988,0.7087,0.6936,0.6819,0.6764,0.6496,0.6308,0.6236,0.6291,0.6283,0.6146,0.6187,0.6181,0.6165,0.6222,0.6198,0.6086,0.601,0.5934,0.5907,0.5901,0.5901,0.5901,0.5629,0.5206,0.4624,0.4215,0.2995,0.1679,0.1199,0.0911,0.0628,-0.0448,-0.1165,-0.1343,-0.1341,-0.1338,-0.1423,-0.1421,-0.142,-0.1508,-0.1507,-0.1659,-0.197,-0.2027,-0.2157,-0.2512,-0.2786,-0.3003,-0.3159,-0.3536,-0.3686,-0.3763,-0.3841,-0.3921,-0.4079,-0.4079,-0.4774,-0.5699,-0.6623,-0.7484,-0.843,-0.9261,-0.9846,-0.9922,-0.9922,-0.9922,-0.9922,-0.9922,-0.9922,-0.9922,-0.9922,-1.0067,-1.0143,-1.0293,-1.0443,-1.0513,-1.0669,-1.087,-1.1378,-1.19,-1.276,-1.3489,-1.4173,-1.4476,-1.4456,-1.4379,-1.4358,-1.4341,-1.4324,-1.4478,-1.4572,-1.4624,-1.4732,-1.4767,-1.481,-1.4761,-1.4815,-1.469,-1.469,-1.4646,-1.4444,-1.423,-1.4144,-1.4067,-1.3691,-1.3365,-1.3339,-1.328,-1.3194,-1.3175,-1.3218,0.6609,0.6677,0.6542,0.6435,0.6509,0.6677,0.6699,0.6443,0.6355,0.6355,0.6314,0.6298,0.6304,0.6304,0.6276,0.6285,0.6325,0.6333,0.6317,0.6208,0.6143,0.6092,0.6051,0.6024,0.6024,0.5834,0.5462,0.4808,0.4267,0.3325,0.2071,0.0842,-0.0187,-0.064,-0.0631,-0.1076,-0.1345,-0.1345,-0.1435,-0.1435,-0.1436,-0.1436,-0.1615,-0.1885,-0.1885,-0.2131,-0.2529,-0.2499,-0.2706,-0.3063,-0.326,-0.3372,-0.3517,-0.3816,-0.3777,-0.3849,-0.3923,-0.4155,-0.4543,-0.4929,-0.5696,-0.6465,-0.7084,-0.7936,-0.9175,-0.9625,-0.9846,-0.9933,-0.9954,-0.9949,-0.9922,-1.0078,-1.0084,-1.0159,-1.0154,-1.0293,-1.0438,-1.0594,-1.0669,-1.0738,-1.0887,-1.1626,-1.2231,-1.2556,-1.326,-1.4077,-1.4706,-1.4788,-1.4735,-1.4658,-1.4581,-1.4581,-1.4607,-1.4795,-1.4932,-1.4992,-1.5137,-1.5249,-1.5292,-1.5326,-1.535,-1.5286,-1.5138,-1.4878,-1.4792,-1.4632,-1.4512,-1.4358,-1.4119,-1.3905,-1.381,-1.3656,-1.3537,-1.3519,-1.3647,0.6334,0.6273,0.6182,0.6135,0.615,0.6474,0.6454,0.6333,0.6366,0.6399,0.641,0.6355,0.6361,0.6396,0.6374,0.635,0.6437,0.6434,0.642,0.632,0.6276,0.6211,0.6165,0.605,0.5761,0.5473,0.4803,0.4043,0.2819,0.2147,0.0967,-0.0286,-0.1132,-0.1218,-0.1293,-0.1372,-0.1446,-0.1442,-0.1436,-0.1436,-0.1436,-0.1615,-0.1885,-0.2154,-0.233,-0.2676,-0.2918,-0.3148,-0.3189,-0.3481,-0.3588,-0.3679,-0.3814,-0.3959,-0.4008,-0.4094,-0.422,-0.4437,-0.4789,-0.547,-0.6237,-0.7157,-0.7468,-0.8389,-0.9539,-0.9846,-0.9942,-1.0046,-1.0046,-1.0182,-1.0291,-1.0434,-1.0548,-1.0554,-1.0574,-1.0644,-1.0709,-1.0865,-1.0871,-1.0935,-1.1091,-1.2035,-1.2914,-1.3302,-1.372,-1.4457,-1.5187,-1.5121,-1.5009,-1.4992,-1.4966,-1.4983,-1.5026,-1.5215,-1.5334,-1.5377,-1.554,-1.5771,-1.5788,-1.5692,-1.5678,-1.5523,-1.5342,-1.5221,-1.5222,-1.512,-1.4855,-1.4641,-1.4483,-1.4328,-1.4297,-1.4115,-1.3891,-1.397,-1.4092,0.6155,0.6265,0.5993,0.5893,0.5939,0.6149,0.6306,0.641,0.6325,0.6339,0.6423,0.641,0.6401,0.6415,0.6415,0.642,0.6434,0.6437,0.6429,0.6401,0.6336,0.629,0.6081,0.5979,0.5192,0.4505,0.3725,0.266,0.1002,0.0493,-0.0391,-0.1175,-0.146,-0.1541,-0.1519,-0.1594,-0.1566,-0.1637,-0.1618,-0.1616,-0.1794,-0.2063,-0.2243,-0.2512,-0.2777,-0.3114,-0.3436,-0.357,-0.3663,-0.3863,-0.3906,-0.3965,-0.4045,-0.4235,-0.4347,-0.4499,-0.475,-0.4733,-0.5132,-0.5889,-0.67,-0.7702,-0.8426,-0.9103,-0.9661,-1.0013,-1.0132,-1.0339,-1.0483,-1.0761,-1.0925,-1.1016,-1.1184,-1.112,-1.1033,-1.11,-1.1123,-1.1169,-1.1099,-1.1105,-1.1193,-1.1865,-1.2865,-1.3424,-1.4048,-1.4968,-1.55,-1.553,-1.5471,-1.5514,-1.5506,-1.5523,-1.5583,-1.5677,-1.5728,-1.5651,-1.5788,-1.5959,-1.5982,-1.5965,-1.5882,-1.5833,-1.5704,-1.5652,-1.5703,-1.5608,-1.5292,-1.5068,-1.4884,-1.4754,-1.4833,-1.4714,-1.4512,-1.4559,-1.4666,0.5841,0.5874,0.5782,0.5782,0.5803,0.5945,0.6124,0.6304,0.6355,0.6374,0.6314,0.6317,0.6323,0.6317,0.6314,0.6366,0.641,0.6437,0.6437,0.6415,0.6391,0.5892,0.549,0.5085,0.429,0.3292,0.2297,0.1499,0.0501,-0.0396,-0.1091,-0.1499,-0.1584,-0.1568,-0.1754,-0.1934,-0.198,-0.2028,-0.1995,-0.2072,-0.2334,-0.2602,-0.2781,-0.3048,-0.3227,-0.3652,-0.3901,-0.3938,-0.4044,-0.4112,-0.405,-0.4014,-0.4257,-0.4351,-0.4446,-0.4851,-0.5017,-0.517,-0.5839,-0.6687,-0.748,-0.83,-0.9232,-0.9782,-1.0108,-1.0229,-1.0404,-1.0619,-1.0878,-1.1134,-1.1369,-1.1508,-1.1554,-1.1502,-1.1494,-1.1473,-1.1516,-1.1474,-1.1474,-1.1462,-1.1546,-1.2222,-1.3071,-1.3586,-1.4223,-1.5243,-1.5901,-1.5888,-1.584,-1.5857,-1.5805,-1.5805,-1.5822,-1.5822,-1.5831,-1.5762,-1.5951,-1.6122,-1.6164,-1.6232,-1.6182,-1.6151,-1.6028,-1.5951,-1.5874,-1.5805,-1.5677,-1.5455,-1.5288,-1.5405,-1.5486,-1.5283,-1.5163,-1.5212,-1.5277,0.5733,0.5733,0.5733,0.5733,0.5752,0.5855,0.5996,0.614,0.6298,0.6328,0.6271,0.6271,0.6241,0.6208,0.6249,0.6309,0.6361,0.6418,0.6437,0.6437,0.6337,0.5627,0.4931,0.4228,0.3317,0.2115,0.1108,0.0403,-0.0402,-0.1002,-0.1603,-0.1611,-0.1595,-0.179,-0.1976,-0.2143,-0.2487,-0.2622,-0.267,-0.2731,-0.2894,-0.3148,-0.3408,-0.3585,-0.3765,-0.4032,-0.4206,-0.4234,-0.4297,-0.4278,-0.4293,-0.4376,-0.4626,-0.4711,-0.4874,-0.5289,-0.573,-0.5937,-0.6408,-0.7644,-0.8273,-0.897,-0.9807,-1.0375,-1.0578,-1.0679,-1.0858,-1.1044,-1.1252,-1.1472,-1.1694,-1.1905,-1.1911,-1.1822,-1.1904,-1.1978,-1.1918,-1.1858,-1.1834,-1.1902,-1.2276,-1.289,-1.3457,-1.3817,-1.4577,-1.5773,-1.6425,-1.6382,-1.6216,-1.5985,-1.5891,-1.5805,-1.5831,-1.5848,-1.5882,-1.6057,-1.6194,-1.6365,-1.6488,-1.6539,-1.6527,-1.6495,-1.6469,-1.6237,-1.5979,-1.5928,-1.5955,-1.587,-1.579,-1.591,-1.602,-1.5981,-1.5869,-1.5867,-1.5878,0.5733,0.5733,0.5733,0.5733,0.5749,0.5852,0.5909,0.5928,0.6157,0.6244,0.6227,0.623,0.6159,0.6097,0.6149,0.6227,0.6295,0.6366,0.6315,0.6334,0.5934,0.5231,0.4228,0.3925,0.2215,0.0907,0.0101,-0.0504,-0.1212,-0.1611,-0.161,-0.1617,-0.1714,-0.1907,-0.2187,-0.2537,-0.2976,-0.3331,-0.3356,-0.3304,-0.3285,-0.344,-0.3676,-0.3765,-0.4034,-0.4297,-0.4295,-0.4366,-0.4339,-0.4487,-0.4651,-0.4745,-0.493,-0.5197,-0.5362,-0.584,-0.637,-0.6836,-0.7368,-0.8375,-0.8983,-0.9547,-1.0033,-1.0697,-1.092,-1.098,-1.1128,-1.1532,-1.1761,-1.1974,-1.22,-1.2308,-1.232,-1.2212,-1.223,-1.2248,-1.2111,-1.2152,-1.221,-1.2198,-1.2273,-1.2982,-1.3661,-1.4115,-1.4301,-1.5928,-1.6371,-1.6254,-1.613,-1.5781,-1.5965,-1.5901,-1.6114,-1.6208,-1.6268,-1.6418,-1.6473,-1.6604,-1.6779,-1.6846,-1.6817,-1.6865,-1.6839,-1.6638,-1.6408,-1.6288,-1.6245,-1.6175,-1.6227,-1.6356,-1.6495,-1.6636,-1.6597,-1.6437,-1.6364,0.5733,0.5733,0.5733,0.5733,0.5749,0.5855,0.5899,0.5918,0.6062,0.6075,0.6005,0.5994,0.5983,0.5966,0.601,0.6102,0.6252,0.6227,0.6067,0.5613,0.5231,0.4126,0.272,0.2014,0.0705,-0.0404,-0.101,-0.1111,-0.1515,-0.1616,-0.1615,-0.1716,-0.1912,-0.2297,-0.2566,-0.2905,-0.3468,-0.383,-0.3926,-0.3844,-0.389,-0.3965,-0.4121,-0.4121,-0.4297,-0.4297,-0.4372,-0.441,-0.4465,-0.4526,-0.4706,-0.5005,-0.5242,-0.5539,-0.5977,-0.6552,-0.6897,-0.755,-0.8467,-0.9137,-0.9653,-1.0172,-1.0658,-1.0952,-1.1183,-1.1244,-1.1477,-1.1905,-1.2269,-1.2389,-1.2504,-1.2601,-1.2693,-1.2571,-1.2541,-1.2409,-1.2361,-1.2422,-1.2481,-1.2481,-1.2481,-1.3035,-1.3734,-1.4144,-1.4429,-1.4598,-1.4814,-1.4894,-1.5095,-1.5019,-1.5967,-1.6096,-1.6504,-1.6638,-1.6655,-1.6805,-1.6862,-1.7058,-1.7295,-1.7278,-1.7243,-1.7208,-1.7264,-1.7055,-1.6884,-1.6766,-1.6599,-1.658,-1.6587,-1.67,-1.6682,-1.683,-1.6866,-1.6771,-1.6762,0.5684,0.573,0.5733,0.5733,0.5744,0.5803,0.5825,0.5839,0.5901,0.5893,0.5844,0.5871,0.5877,0.5877,0.5931,0.574,0.5914,0.5917,0.5381,0.472,0.4024,0.2919,0.1713,0.0605,-0.0202,-0.1111,-0.1414,-0.1515,-0.1615,-0.1899,-0.1993,-0.1993,-0.238,-0.2744,-0.29,-0.3556,-0.3922,-0.4093,-0.4258,-0.4359,-0.4297,-0.4297,-0.4297,-0.4297,-0.4297,-0.4389,-0.4467,-0.4601,-0.468,-0.4842,-0.5117,-0.531,-0.5534,-0.5641,-0.6171,-0.6854,-0.7494,-0.8181,-0.9306,-1.0011,-1.0352,-1.0808,-1.1171,-1.1404,-1.1832,-1.1899,-1.1911,-1.2316,-1.2401,-1.2601,-1.2601,-1.2699,-1.2699,-1.2589,-1.2583,-1.2559,-1.2547,-1.2535,-1.2608,-1.2608,-1.2693,-1.3018,-1.3658,-1.4061,-1.4378,-1.4945,-1.4816,-1.467,-1.4576,-1.4337,-1.5321,-1.6086,-1.6301,-1.6508,-1.6431,-1.674,-1.7192,-1.7424,-1.7743,-1.7857,-1.7883,-1.7716,-1.7582,-1.7645,-1.7489,-1.7053,-1.6974,-1.6946,-1.6799,-1.6769,-1.683,-1.6908,-1.6954,-1.7055,-1.7138,0.5627,0.5727,0.5733,0.5733,0.5733,0.5735,0.5649,0.5649,0.5649,0.556,0.5489,0.5585,0.5644,0.5567,0.5575,0.5373,0.5084,0.471,0.4185,0.3718,0.3219,0.1913,0.1008,0.0202,-0.0404,-0.0909,-0.1313,-0.1414,-0.1515,-0.1891,-0.2262,-0.2442,-0.2895,-0.3328,-0.3587,-0.3837,-0.3903,-0.4162,-0.4369,-0.4316,-0.4297,-0.4297,-0.43,-0.43,-0.4389,-0.4478,-0.4659,-0.4837,-0.5013,-0.5277,-0.5445,-0.5628,-0.5811,-0.5908,-0.6612,-0.739,-0.8265,-0.9039,-0.9928,-1.0761,-1.1043,-1.1398,-1.1627,-1.1849,-1.2266,-1.2357,-1.2369,-1.2448,-1.2613,-1.2699,-1.2699,-1.2699,-1.2699,-1.2699,-1.2699,-1.2705,-1.2705,-1.2705,-1.2705,-1.2705,-1.2869,-1.3118,-1.3366,-1.3782,-1.421,-1.4887,-1.5144,-1.5054,-1.483,-1.4352,-1.4522,-1.5198,-1.5663,-1.5816,-1.6405,-1.6942,-1.764,-1.7891,-1.8127,-1.8382,-1.8435,-1.8241,-1.8219,-1.8416,-1.8185,-1.775,-1.747,-1.7415,-1.7241,-1.6994,-1.7073,-1.7138,-1.7147,-1.7275,-1.7513,0.5534,0.5733,0.5733,0.5733,0.5733,0.5733,0.5463,0.5191,0.5102,0.4921,0.4768,0.4652,0.4563,0.4204,0.3848,0.3837,0.4223,0.3726,0.3283,0.2914,0.2114,0.0907,0.0101,0.0,0.0101,-0.0403,-0.1006,-0.1411,-0.1694,-0.2166,-0.2545,-0.2927,-0.3449,-0.368,-0.3627,-0.3873,-0.4215,-0.4361,-0.4336,-0.4297,-0.4297,-0.4389,-0.4478,-0.448,-0.4659,-0.4746,-0.4924,-0.5191,-0.5282,-0.5463,-0.5555,-0.5644,-0.5911,-0.6349,-0.7139,-0.7929,-0.8894,-0.9831,-1.0671,-1.1219,-1.1508,-1.1685,-1.186,-1.2026,-1.2283,-1.2381,-1.2466,-1.2619,-1.2699,-1.2699,-1.2705,-1.2705,-1.2699,-1.2699,-1.2705,-1.2705,-1.2705,-1.2705,-1.2705,-1.2705,-1.2784,-1.2869,-1.2869,-1.3118,-1.3118,-1.3626,-1.3626,-1.3626,-1.3711,-1.3717,-1.3815,-1.4573,-1.5218,-1.6563,-1.7662,-1.7595,-1.8073,-1.832,-1.8514,-1.8638,-1.8656,-1.8727,-1.8761,-1.887,-1.8757,-1.84,-1.8154,-1.7852,-1.7642,-1.7432,-1.7431,-1.7413,-1.7422,-1.7559,-1.7862]},{"header":{"parameterUnit":"m.s-1","parameterCategory":1,"la1":31.0,"la2":29.5877,"lo1":-88.7671,"lo2":-86.6584,"dy":0.0162,"dx":0.0185,"nx":115,"ny":88,"refTime":"2023-09-23T06:00:00:Z","depth":0,"parameterNumber":3,"parameterNumberName":"V-component_of_WINDS"},"data":[0.0,0.0,0.0,0.0,0.0,0.0,0.0,0.0,0.0,0.0,0.0,0.0,0.0,0.0,0.0,0.0,0.0,0.0,0.0,0.0,0.0,0.0,0.0,0.0,0.0,0.0,0.0,0.0,0.0,0.0,0.0,0.0,0.0,0.0,0.0,0.0,0.0,0.0,0.0,0.0,0.0,0.0,0.0,0.0,0.0,0.0,0.0,0.0,0.0,0.0,0.0,0.0,0.0,0.0,0.0,0.0,0.0,0.0,0.0,0.0,0.0,0.0,0.0,0.0,0.0,0.0,0.0,0.0,0.0,0.0,0.0,0.0,0.0,0.0,0.0,0.0,0.0,0.0,0.0,0.0,0.0,0.0,0.0,0.0,0.0,0.0,0.0,0.0,0.0,0.0,0.0,0.0,0.0,0.0,0.0,0.0,0.0,0.0,0.0,0.0,0.0,0.0,0.0,0.0,0.0,0.0,0.0,0.0,0.0,0.0,0.0,0.0,0.0,0.0,0.0,0.0,0.0,0.0,0.0,0.0,0.0,0.0,0.0,0.0,0.0,0.0,0.0,0.0,0.0,0.0,0.0,0.0,0.0,0.0,0.0,0.0,0.0,0.0,0.0,0.0,0.0,0.0,0.0,0.0,0.0,0.0,0.0,0.0,0.0,0.0,0.0,0.0,0.0,0.0,0.0,0.0,0.0,0.0,0.0,0.0,0.0,0.0,0.0,0.0,0.0,0.0,0.0,0.0,0.0,0.0,0.0,0.0,0.0,0.0,0.0,0.0,0.0,0.0,0.0,0.0,0.0,0.0,0.0,0.0,0.0,0.0,0.0,0.0,0.0,0.0,0.0,0.0,0.0,0.0,0.0,0.0,0.0,0.0,0.0,0.0,0.0,0.0,0.0,0.0,0.0,0.0,0.0,0.0,0.0,0.0,0.0,0.0,0.0,0.0,0.0,0.0,0.0,0.0,0.0,0.0,0.0,0.0,0.0,0.0,0.0,0.0,0.0,0.0,0.0,0.0,0.0,0.0,0.0,0.0,0.0,0.0,0.0,0.0,0.0,0.0,0.0,0.0,0.0,0.0,0.0,0.0,0.0,0.0,0.0,0.0,0.0,0.0,0.0,0.0,0.0,0.0,0.0,0.0,0.0,0.0,0.0,0.0,0.0,0.0,0.0,0.0,0.0,0.0,0.0,0.0,0.0,0.0,0.0,0.0,0.0,0.0,0.0,0.0,0.0,0.0,0.0,0.0,0.0,0.0,0.0,0.0,0.0,0.0,0.0,0.0,0.0,0.0,0.0,0.0,0.0,0.0,0.0,0.0,0.0,0.0,0.0,0.0,0.0,0.0,0.0,0.0,0.0,0.0,0.0,0.0,0.0,0.0,0.0,0.0,0.0,0.0,0.0,0.0,0.0,0.0,0.0,0.0,0.0,0.0,0.0,0.0,0.0,0.0,0.0,0.0,0.0,0.0,0.0,0.0,0.0,0.0,0.0,0.0,0.0,0.0,0.0,0.0,0.0,0.0,0.0,0.0,0.0,0.0,0.0,0.0,0.0,0.0,0.0,0.0,0.0,0.0,0.0,0.0,0.0,0.0,0.0,0.0,0.0,0.0,0.0,0.0,0.0,0.0,0.0,0.0,0.0,0.0,0.0,0.0,0.0,0.0,0.0,0.0,0.0,0.0,0.0,0.0,0.0,0.0,0.0,0.0,0.0,0.0,0.0,0.0,0.0,0.0,0.0,0.0,0.0,0.0,0.0,0.0,0.0,0.0,0.0,0.0,0.0,0.0,0.0,0.0,0.0,0.0,0.0,0.0,0.0,0.0,0.0,0.0,0.0,0.0,0.0,0.0,0.0,0.0,0.0,0.0,0.0,0.0,0.0,0.0,0.0,0.0,0.0,0.0,0.0,0.0,0.0,0.0,0.0,0.0,0.0,0.0,0.0,0.0,0.0,0.0,0.0,0.0,0.0,0.0,0.0,0.0,0.0,0.0,0.0,0.0,0.0,0.0,0.0,0.0,0.0,0.0,0.0,0.0,0.0,0.0,0.0,0.0,0.0,0.0,0.0,0.0,0.0,0.0,0.0,0.0,0.0,0.0,0.0,0.0,0.0,0.0,0.0,0.0,0.0,0.0,0.0,0.0,0.0,0.0,0.0,0.0,0.0,0.0,0.0,0.0,0.0,0.0,0.0,0.0,0.0,0.0,0.0,0.0,0.0,0.0,0.0,0.0,0.0,0.0,0.0,0.0,0.0,0.0,0.0,0.0,0.0,0.0,0.0,0.0,0.0,0.0,0.0,0.0,0.0,0.0,0.0,0.0,0.0,0.0,0.0,0.0,0.0,0.0,0.0,0.0,0.0,0.0,0.0,0.0,0.0,0.0,0.0,0.0,0.0,0.0,0.0,0.0,0.0,0.0,0.0,0.0,0.0,0.0,0.0,0.0,0.0,0.0,0.0,0.0,0.0,0.0,0.0,0.0,0.0,0.0,0.0,0.0,0.0,0.0,0.0,0.0,0.0,0.0,0.0,0.0,0.0,0.0,0.0,0.0,0.0,0.0,0.0,0.0,0.0,0.0,0.0,0.0,0.0,0.0,0.0,0.0,0.0,0.0,0.0,0.0,0.0,0.0,0.0,0.0,0.0,0.0,0.0,0.0,0.0,0.0,0.0,0.0,0.0,0.0,0.0,0.0,0.0,0.0,0.0,0.0,0.0,0.0,0.0,0.0,0.0,0.0,0.0,0.0,0.0,0.0,0.0,0.0,0.0,0.0,0.0,0.0,0.0,0.0,0.0,0.0,0.0,0.0,0.0,0.0,0.0,0.0,0.0,0.0,0.0,0.0,0.0,0.0,0.0,0.0,0.0,0.0,0.0,0.0,0.0,0.0,0.0,0.0,0.0,0.0,0.0,0.0,0.0,0.0,0.0,0.0,0.0,0.0,0.0,0.0,0.0,0.0,0.0,0.0,0.0,0.0,0.0,0.0,0.0,0.0,0.0,0.0,0.0,0.0,0.0,0.0,0.0,0.0,0.0,0.0,0.0,0.0,0.0,0.0,0.0,0.0,0.0,0.0,0.0,0.0,0.0,0.0,0.0,0.0,0.0,0.0,0.0,0.0,0.0,0.0,0.0,0.0,0.0,0.0,0.0,0.0,0.0,0.0,0.0,0.0,0.0,0.0,0.0,0.0,0.0,0.0,0.0,0.0,0.0,0.0,0.0,0.0,0.0,0.0,0.0,0.0,0.0,0.0,0.0,0.0,0.0,0.0,0.0,0.0,0.0,0.0,0.0,0.0,0.0,0.0,0.0,0.0,0.0,0.0,0.0,0.0,0.0,0.0,0.0,0.0,0.0,0.0,0.0,0.0,0.0,0.0,0.0,0.0,0.0,0.0,0.0,0.0,0.0,0.0,0.0,0.0,0.0,0.0,0.0,0.0,0.0,0.0,0.0,0.0,0.0,0.0,0.0,0.0,0.0,0.0,0.0,0.0,0.0,0.0,0.0,0.0,0.0,0.0,0.0,0.0,0.0,0.0,0.0,0.0,0.0,0.0,0.0,0.0,0.0,0.0,0.0,0.0,0.0,0.0,0.0,0.0,0.0,0.0,0.0,0.0,0.0,0.0,0.0,0.0,0.0,0.0,0.0,0.0,0.0,0.0,0.0,0.0,0.0,0.0,0.0,0.0,0.0,0.0,0.0,0.0,0.0,0.0,0.0,0.0,0.0,0.0,0.0,0.0,0.0,0.0,0.0,0.0,0.0,0.0,0.0,0.0,0.0,0.0,0.0,0.0,0.0,0.0,0.0,0.0,0.0,0.0,0.0,0.0,0.0,0.0,0.0,0.0,0.0,0.0,0.0,0.0,0.0,0.0,0.0,0.0,0.0,0.0,0.0,0.0,0.0,0.0,0.0,0.0,0.0,0.0,0.0,0.0,0.0,0.0,0.0,0.0,0.0,0.0,0.0,0.0,0.0,0.0,0.0,0.0,0.0,0.0,0.0,0.0,0.0,0.0,0.0,0.0,0.0,0.0,0.0,0.0,0.0,0.0,0.0,0.0,0.0,0.0,0.0,0.0,0.0,0.0,0.0,0.0,0.0,0.0,0.0,0.0,0.0,0.0,0.0,0.0,0.0,0.0,0.0,0.0,0.0,0.0,0.0,0.0,0.0,0.0,0.0,0.0,0.0,0.0,0.0,0.0,0.0,0.0,0.0,0.0,0.0,0.0,0.0,0.0,0.0,0.0,0.0,0.0,0.0,0.0,0.0,0.0,0.0,0.0,-0.1706,0.0,0.0,0.0,0.0,0.0,0.0,0.0,0.0,0.0,0.0,0.0,0.0,0.0,0.0,0.0,0.0,0.0,0.0,0.0,0.0,0.0,0.0,0.0,0.0,0.0,0.0,0.0,0.0,0.0,0.0,0.0,0.0,0.0,0.0,0.0,0.0,0.0,0.0,0.0,0.0,0.0,0.0,0.0,0.0,0.0,0.0,0.0,0.0,0.0,0.0,0.0,0.0,0.0,0.0,0.0,0.0,0.0,0.0,0.0,0.0,0.0,0.0,0.0,0.0,0.0,0.0,0.0,0.0,0.0,0.0,0.0,0.0,0.0,0.0,0.0,0.0,0.0,0.0,0.0,0.0,0.0,0.0,0.0,0.0,0.0,0.0,0.0,0.0,0.0,0.0,0.0,0.0,0.0,0.0,0.0,0.0,0.0,0.0,0.0,0.0,0.0,0.0,0.0,0.0,0.0,0.0,0.0,0.0,0.0,0.0,-0.4302,-0.3682,-0.2668,-0.1889,-0.1283,0.0,0.0,0.0,0.0,0.0,0.0,0.0,0.0,0.0,0.0,0.0,0.0,0.0,0.0,0.0,0.0,0.0,0.0,0.0,0.0,0.0,0.0,0.0,0.0,0.0,0.0,0.0,0.0,0.0,0.0,0.0,0.0,0.0,0.0,0.0,0.0,0.0,0.0,0.0,0.0,0.0,0.0,0.0,0.0,0.0,0.0,0.0,0.0,0.0,0.0,0.0,0.0,0.0,0.0,0.0,0.0,0.0,0.0,0.0,0.0,0.0,0.0,0.0,0.0,0.0,0.0,0.0,0.0,0.0,0.0,0.0,0.0,0.0,0.0,0.0,0.0,0.0,0.0,0.0,0.0,0.0,0.0,0.0,0.0,0.0,0.0,0.0,0.0,0.0,0.0,0.0,0.0,0.0,0.0,0.0,0.0,0.0,0.0,0.0,0.0,0.0,0.0,0.0,0.0,0.0,0.0,0.0,0.0,0.0,0.0,0.0,0.0,-0.186,-0.1064,-0.0541,0.0,0.0,0.0,0.0,0.0,0.0,0.0,0.0,0.0,0.0,0.0,0.0,0.0,0.0,0.0,0.0,0.0,0.0,0.0,0.0,0.0,0.0,0.0,0.0,0.0,0.0,0.0,0.0,0.0,0.0,0.0,0.0,0.0,0.0,0.0,0.0,0.0,0.0,0.0,0.0,0.0,0.0,0.0,0.0,0.0,0.0,0.0,0.0,0.0,0.0,0.0,0.0,0.0,0.0,0.0,0.0,0.0,0.0,0.0,0.0,0.0,0.0,0.0,0.0,0.0,0.0,0.0,0.0,0.0,0.0,0.0,0.0,0.0,0.0,0.0,0.0,0.0,0.0,0.0,0.0,0.0,0.0,0.0,0.0,0.0,0.0,0.0,0.0,0.0,0.0,0.0,0.0,0.0,0.0,0.0,0.0,0.0,0.0,0.0,0.0,0.0,0.0,0.0,0.0,0.0,0.0,0.0,0.0,0.0,0.0,-0.2405,-0.1825,-0.0919,0.0,0.1377,0.0,0.0,0.0,0.0,0.0,0.0,0.0,0.0,0.0,0.0,0.0,0.0,0.0,0.0,0.0,0.0,0.0,0.0,0.0,0.0,0.0,0.0,0.0,0.0,0.0,0.0,0.0,0.0,0.0,0.0,0.0,0.0,0.0,0.0,0.0,0.0,0.0,0.0,0.0,0.0,0.0,0.0,0.0,0.0,0.0,0.0,0.0,0.0,0.0,0.0,0.0,0.0,0.0,0.0,0.0,0.0,0.0,0.0,0.0,0.0,0.0,0.0,0.0,0.0,0.0,0.0,0.0,0.0,0.0,0.0,0.0,0.0,0.0,0.0,0.0,0.0,0.0,0.0,0.0,0.0,0.0,0.0,0.0,0.0,0.0,0.0,0.0,0.0,0.0,0.0,0.0,0.0,0.0,0.0,0.0,0.0,0.0,0.0,0.0,0.0,0.0,0.0,0.0,0.0,0.0,0.0,0.0,0.0,0.0,0.0,-0.1918,-0.1427,-0.0572,0.047,0.0,0.0,0.0,0.0,0.0,0.0,0.0,0.0,0.0,0.0,0.0,0.0,0.0,0.0,0.0,0.0,0.0,0.0,0.0,0.0,0.0,0.0,0.0,0.0,0.0,0.0,0.0,0.0,0.0,0.0,0.0,0.0,0.0,0.0,0.0,0.0,0.0,0.0,0.0,0.0,0.0,0.0,0.0,0.0,0.0,0.0,0.0,0.0,0.0,0.0,0.0,0.0,0.0,0.0,0.0,0.0,0.0,0.0,0.0,0.0,0.0,0.0,0.0,0.0,0.0,0.0,0.0,0.0,0.0,0.0,0.0,0.0,0.0,0.0,0.0,0.0,0.0,0.0,0.0,0.0,0.0,0.0,0.0,0.0,0.0,0.0,0.0,0.0,0.0,0.0,0.0,0.0,0.0,0.0,0.0,0.0,0.0,0.0,0.0,0.0,0.0,0.0,0.0,0.0,0.0,0.0,0.0,0.0,0.0,0.0,-0.1756,-0.1253,-0.069,-0.0076,0.0715,0.1646,0.0,0.0,0.0,0.0,0.0,0.0,0.0,0.0,0.0,0.0,0.0,0.0,0.0,0.0,0.0,0.0,0.0,0.0,0.0,0.0,0.0,0.0,0.0,0.0,0.0,0.0,0.0,0.0,0.0,0.0,0.0,0.0,0.0,0.0,0.0,0.0,0.0,0.0,0.0,0.0,0.0,0.0,0.0,0.0,0.0,0.0,0.0,0.0,0.0,0.0,0.0,0.0,0.0,0.0,0.0,0.0,0.0,0.0,0.0,0.0,0.0,0.0,0.0,0.0,0.0,0.0,0.0,0.0,0.0,0.0,0.0,0.0,0.0,0.0,0.0,0.0,0.0,0.0,0.0,0.0,0.0,0.0,0.0,0.0,0.0,0.0,0.0,0.0,0.0,0.0,0.0,0.0,0.0,0.0,0.0,0.0,0.0,0.0,0.0,0.0,0.0,0.0,0.0,0.0,0.0,0.0,0.0,0.0,-0.2154,-0.1106,-0.0173,0.0547,0.0842,0.1178,0.0,0.0,0.0,0.0,0.0,0.0,0.0,0.0,0.0,0.0,0.0,0.0,0.0,0.0,0.0,0.0,0.0,0.0,0.0,0.0,0.0,0.0,0.0,0.0,0.0,0.0,0.0,0.0,0.0,0.0,0.0,0.0,0.0,0.0,0.0,0.0,0.0,0.0,0.0,0.0,0.0,0.0,0.0,0.0,0.0,0.0,0.0,0.0,0.0,0.0,0.0,0.0,0.0,0.0,0.0,0.0,0.0,0.0,0.0,0.0,0.0,0.0,0.0,0.0,0.0,0.0,0.0,0.0,0.0,0.0,0.0,0.0,0.0,0.0,0.0,0.0,0.0,0.0,0.0,0.0,0.0,0.0,0.0,0.0,0.0,0.0,0.0,0.0,0.0,0.0,0.0,0.0,0.0,0.0,0.0,0.0,0.0,0.0,0.0,0.0,0.0,0.0,0.0,0.0,0.0,0.0,0.0,0.0,0.0,-0.1518,-0.0702,0.0109,0.0913,0.1131,0.15,0.0,0.0,0.0,0.0,0.0,0.0,0.0,0.0,0.0,0.0,0.0,0.0,0.0,0.0,0.0,0.0,0.0,0.0,0.0,0.0,0.0,0.0,0.0,0.0,0.0,0.0,0.0,0.0,0.0,0.0,0.0,0.0,0.0,0.0,0.0,0.0,0.0,0.0,0.0,0.0,0.0,0.0,0.0,0.0,0.0,0.0,0.0,0.0,0.0,0.0,0.0,0.0,0.0,0.0,0.0,0.0,0.0,0.0,0.0,0.0,0.0,0.0,0.0,0.0,0.0,0.0,0.0,0.0,0.0,0.0,0.0,0.0,0.0,0.0,0.0,0.0,0.0,0.0,0.0,0.0,0.0,0.0,0.0,0.0,0.0,0.0,0.0,0.0,0.0,0.0,0.0,0.0,0.0,0.0,0.0,0.0,0.0,0.0,0.0,0.0,0.0,0.0,0.0,0.0,0.0,0.0,0.0,0.0,0.0,-0.0671,0.0,0.0649,0.1302,0.1464,0.1784,0.0,0.0,0.0,0.0,0.0,0.0,0.0,0.0,0.0,0.0,0.0,0.0,0.0,0.0,0.0,0.0,0.0,0.0,0.0,0.0,0.0,0.0,0.0,0.0,0.0,0.0,0.0,0.0,0.0,0.0,0.0,0.0,0.0,0.0,0.0,0.0,0.0,0.0,0.0,0.0,0.0,0.0,0.0,0.0,0.0,0.0,0.0,0.0,0.0,0.0,0.0,0.0,0.0,0.0,0.0,0.0,0.0,0.0,0.0,0.0,0.0,0.0,0.0,0.0,0.0,0.0,0.0,0.0,0.0,0.0,0.0,0.0,0.0,0.0,0.0,0.0,0.0,0.0,0.0,0.0,0.0,0.0,0.0,0.0,0.0,0.0,0.0,0.0,0.0,0.0,0.0,0.0,0.0,0.0,0.0,0.0,0.0,0.0,0.0,0.0,0.0,0.0,0.0,0.0,0.0,0.0,0.0,0.0,-0.1265,0.03,0.1071,0.1552,0.1888,0.1908,0.1978,0.0,0.0,0.0,0.0,0.0,0.0,0.0,0.0,0.0,0.0,0.0,0.0,0.0,0.0,0.0,0.0,0.0,0.0,0.0,0.0,0.0,0.0,0.0,0.0,0.0,0.0,0.0,0.0,0.0,0.0,0.0,0.0,0.0,0.0,0.0,0.0,0.0,0.0,0.0,0.0,0.0,0.0,0.0,0.0,0.0,0.0,0.0,0.0,0.0,0.0,0.0,0.0,0.0,0.0,0.0,0.0,0.0,0.0,0.0,0.0,0.0,0.0,0.0,0.0,0.0,0.0,0.0,0.0,0.0,0.0,0.0,0.0,0.0,0.0,0.0,0.0,0.0,0.0,0.0,0.0,0.0,0.0,0.0,0.0,0.0,0.0,0.0,0.0,0.0,0.0,0.0,0.0,0.0,0.0,0.0,0.0,0.0,0.0,0.0,0.0,0.0,0.0,0.0,0.0,0.0,0.0,0.0,0.0,0.0,-0.0067,0.0802,0.1597,0.2191,0.2262,0.2571,0.0,0.0,0.0,0.0,0.0,0.0,0.0,0.0,0.0,0.0,0.0,0.0,0.0,0.0,0.0,0.0,0.0,0.0,0.0,0.0,0.0,0.0,0.0,0.0,0.0,0.0,0.0,0.0,0.0,0.0,0.0,0.0,0.0,0.0,0.0,0.0,0.0,0.0,0.0,0.0,0.0,0.0,0.0,0.0,0.0,0.0,0.0,0.0,0.0,0.0,0.0,0.0,0.0,0.0,0.0,0.0,0.0,0.0,0.0,0.0,0.0,0.0,0.0,0.0,0.0,0.0,0.0,0.0,0.0,0.0,0.0,0.0,0.0,0.0,0.0,0.0,0.0,0.0,0.0,0.0,0.0,0.0,0.0,0.0,0.0,0.0,0.0,0.0,0.0,0.0,0.0,0.0,0.0,0.0,0.0,0.0,0.0,0.0,0.0,0.0,0.0,0.0,0.0,0.0,0.0,0.0,0.0,0.0,0.0,0.064,0.1804,0.2664,0.3113,0.3187,0.3508,0.4072,0.0,0.0,0.0,0.0,0.0,0.0,0.0,0.0,0.0,0.0,0.0,0.0,0.0,0.0,0.0,0.0,0.0,0.0,0.0,0.0,0.0,0.0,0.0,0.0,0.0,0.0,0.0,0.0,0.0,0.0,0.0,0.0,0.0,0.0,0.0,0.0,0.0,0.0,0.0,0.0,0.0,0.0,0.0,0.0,0.0,0.0,0.0,0.0,0.0,0.0,0.0,0.0,0.0,0.0,0.0,0.0,0.0,0.0,0.0,0.0,0.0,0.0,0.0,0.0,0.0,0.0,0.0,0.0,0.0,0.0,0.0,0.0,0.0,0.0,0.0,0.0,0.0,0.0,0.0,0.0,0.0,0.0,0.0,0.0,0.0,0.0,0.0,0.0,0.0,0.0,0.0,0.0,0.0,0.0,0.0,0.0,0.0,0.0,0.0,0.0,0.0,0.0,0.0,0.0,0.0,0.0,0.0,0.0,0.2121,0.3854,0.4621,0.4302,0.4485,0.4644,0.0,0.0,0.0,0.0,0.0,0.0,0.0,0.0,0.0,0.0,0.0,0.0,0.0,0.0,0.0,0.0,0.0,0.0,0.0,0.0,0.0,0.0,0.0,0.0,0.0,0.0,0.0,0.0,0.0,0.0,0.0,0.0,0.0,0.0,0.0,0.0,0.0,0.0,0.0,0.0,0.0,0.0,0.0,0.0,0.0,0.0,0.0,0.0,0.0,0.0,0.0,0.0,0.0,0.0,0.0,0.0,0.0,0.0,0.0,0.0,0.0,0.0,0.0,0.0,0.0,0.0,0.0,0.0,0.0,0.0,0.0,0.0,0.0,0.0,0.0,0.0,0.0,0.0,0.0,0.0,0.0,0.0,0.0,0.0,0.0,0.0,0.0,0.0,0.0,0.0,0.0,0.0,0.0,0.0,0.0,0.0,0.0,0.0,0.0,0.0,0.0,0.0,0.0,0.0,0.0,0.0,0.0,0.0,0.0,0.3856,0.5671,0.5996,0.4666,0.4774,0.5087,0.0,0.0,0.0,0.0,0.0,0.0,0.0,0.0,0.0,0.0,0.0,0.0,0.0,0.0,0.0,0.0,0.0,0.0,0.0,0.0,0.0,0.0,0.0,0.0,0.0,0.0,0.0,0.0,0.0,0.0,0.0,0.0,0.0,0.0,0.0,0.0,0.0,0.0,0.0,0.0,0.0,0.0,0.0,0.0,0.0,0.0,0.0,0.0,0.0,0.0,0.0,0.0,0.0,0.0,0.0,0.0,0.0,0.0,0.0,0.0,0.0,0.0,0.0,0.0,0.0,0.0,0.0,0.0,0.0,0.0,0.0,0.0,0.0,0.0,0.0,0.0,0.0,0.0,0.0,0.0,0.0,0.0,0.0,0.0,0.0,0.0,0.0,0.0,0.0,0.0,0.0,0.0,0.0,0.0,0.0,0.0,0.0,0.0,0.0,0.0,0.0,0.0,0.0,0.0,0.0,0.0,0.0,0.0,0.3731,0.5,0.6698,0.7139,0.6046,0.6099,0.629,0.0,0.0,0.0,0.0,0.0,0.0,0.0,0.0,0.0,0.0,0.0,0.0,0.0,0.0,0.0,0.0,0.0,0.0,0.0,0.0,0.0,0.0,0.0,0.0,0.0,0.0,0.0,0.0,0.0,0.0,0.0,0.0,0.0,0.0,0.0,0.0,0.0,0.0,0.0,0.0,0.0,0.0,0.0,0.0,0.0,0.0,0.0,0.0,0.0,0.0,0.0,0.0,0.0,0.0,0.0,0.0,0.0,0.0,0.0,0.0,0.0,0.0,0.0,0.0,0.0,0.0,0.0,0.0,0.0,0.0,0.0,0.0,0.0,0.0,0.0,0.0,0.0,0.0,0.0,0.0,0.0,0.0,0.0,0.0,0.0,0.0,0.0,0.0,0.0,0.0,0.0,0.0,0.0,0.0,0.0,0.0,0.0,0.0,0.0,0.0,0.0,0.0,0.0,0.0,0.0,0.0,0.0,0.0,0.4378,0.5864,0.7256,0.8031,0.8106,0.7814,0.7743,0.0,0.0,0.0,0.0,0.0,0.0,0.0,0.0,0.0,0.0,0.0,0.0,0.0,0.0,0.0,0.0,0.0,0.0,0.0,0.0,0.0,0.0,0.0,0.0,0.0,0.0,0.0,0.0,0.0,0.0,0.0,0.0,0.0,0.0,0.0,0.0,0.0,0.0,0.0,0.0,0.0,0.0,0.0,0.0,0.0,0.0,0.0,0.0,0.0,0.0,0.0,0.0,0.0,0.0,0.0,0.0,0.0,0.0,0.0,0.0,0.0,0.0,0.0,0.0,0.0,0.0,0.0,0.0,0.0,0.0,0.0,0.0,0.0,0.0,0.0,0.0,0.0,0.0,0.0,0.0,0.0,0.0,0.0,0.0,0.0,0.0,0.0,0.0,0.0,0.0,0.0,0.0,0.0,0.0,0.0,0.0,0.0,0.0,0.0,0.0,0.0,0.0,0.0,0.0,0.0,0.0,0.0,0.0,0.5908,0.7012,0.8069,0.8995,0.9843,0.867,0.8141,0.0,0.0,0.0,0.0,0.0,0.0,0.0,0.0,0.0,0.0,0.0,0.0,0.0,0.0,0.0,0.0,0.0,0.0,0.0,0.0,0.0,0.0,0.0,0.0,0.0,0.0,0.0,0.0,0.0,0.0,0.0,0.0,0.0,0.0,0.0,0.0,0.0,0.0,0.0,0.0,0.0,0.0,0.0,0.0,0.0,0.0,0.0,0.0,0.9958,0.0,0.0,0.0,0.0,0.0,0.0,0.0,0.0,0.0,0.0,0.0,0.0,0.0,0.0,0.0,0.0,0.0,0.0,0.0,0.0,0.0,0.0,0.0,0.0,0.0,0.0,0.0,0.0,0.0,0.0,0.0,0.0,0.0,0.0,0.0,0.0,0.0,0.0,0.0,0.0,0.0,0.0,0.0,0.0,0.0,0.0,0.0,0.0,0.0,0.0,0.0,0.0,0.0,0.0,0.0,0.0,0.0,0.0,0.0,0.6464,0.7624,0.8643,0.9465,0.999,0.954,0.9236,0.0,0.0,0.0,0.0,0.0,0.0,0.0,0.0,0.0,0.0,0.0,0.0,0.0,0.0,0.0,0.0,0.0,0.0,0.0,0.0,0.0,0.0,0.0,0.0,0.0,0.0,0.0,0.0,0.0,0.0,0.0,0.0,0.0,0.0,0.0,0.0,0.0,0.0,0.0,0.0,0.0,0.0,0.0,0.0,0.0,0.0,0.0,0.0,0.0,0.0,0.0,0.0,0.0,0.0,0.0,0.0,0.0,0.0,0.0,0.0,0.0,0.0,0.0,0.0,0.0,0.0,0.0,0.0,0.0,0.0,0.0,0.0,0.0,0.0,0.0,0.0,0.0,0.0,0.0,0.0,0.0,0.0,0.0,0.0,0.0,0.0,0.0,0.0,0.0,0.0,0.0,0.0,0.0,0.0,0.0,0.0,0.0,0.0,0.0,0.0,0.0,0.0,0.0,0.0,0.0,0.0,0.0,0.5391,0.6678,0.8139,0.909,0.9666,0.9865,1.0385,1.0364,0.9727,0.0,0.0,0.0,0.0,0.0,0.0,0.0,0.0,0.0,0.0,0.0,0.0,0.0,0.0,0.0,0.0,0.0,0.0,0.0,0.0,0.0,0.0,0.0,0.0,0.0,0.0,0.0,0.0,0.0,0.0,0.0,0.0,0.0,0.0,0.0,0.0,0.0,0.0,0.7715,0.859,0.0,0.0,0.0,0.0,0.0,0.0,0.0,0.0,1.3897,0.0,0.0,0.0,0.0,0.0,0.0,0.0,0.0,0.0,0.0,0.0,0.0,0.0,0.0,0.0,0.0,0.0,0.0,0.0,0.0,0.0,0.0,0.0,0.0,0.0,0.0,0.0,0.0,0.0,0.0,0.0,0.0,0.0,0.0,0.0,0.0,0.0,0.0,0.0,0.0,0.0,0.0,0.0,0.0,0.0,0.0,0.0,0.0,0.0,0.0,0.0,0.0,0.0,0.0,0.0,0.0,0.6032,0.6301,0.7361,0.9271,0.9504,1.0079,1.0947,1.0793,1.0505,1.012,0.0,0.0,0.0,0.0,0.0,0.0,0.0,0.0,0.0,0.0,0.0,0.0,0.0,0.0,0.0,0.0,0.0,0.0,0.0,0.0,0.0,0.0,0.0,0.0,0.0,0.0,0.0,0.0,0.0,0.0,0.0,0.0,0.0,0.0,0.0,0.0,0.0,0.0,0.0,1.015,1.0441,0.0,0.0,0.0,0.0,0.0,0.0,0.0,0.0,1.5294,0.0,0.0,0.0,0.0,0.0,0.0,0.0,0.0,0.0,0.0,0.0,0.0,0.0,0.0,0.0,0.0,0.0,0.0,0.0,0.0,0.0,0.0,0.0,0.0,0.0,0.0,0.0,0.0,0.0,0.0,0.0,0.0,0.0,0.0,0.0,0.0,0.0,0.0,0.0,0.0,0.0,0.0,0.0,0.0,0.0,0.0,0.0,0.0,0.0,0.0,0.0,0.0,0.0,0.0,0.0,0.6433,0.7558,0.8734,0.9974,1.0336,1.0753,1.1368,1.1472,1.1103,0.0,0.0,0.0,0.0,0.0,0.0,0.0,0.0,0.0,0.0,0.0,0.0,0.0,0.0,0.0,0.0,0.0,0.0,0.0,0.0,0.0,0.0,0.0,0.0,0.0,0.0,0.0,0.0,0.0,0.0,0.0,0.0,0.0,0.0,0.0,0.0,0.0,0.0,0.0,0.0,1.1043,1.16,1.3539,0.0,0.0,0.0,0.0,0.0,0.0,1.5833,1.65,0.0,0.0,0.0,0.0,0.0,0.0,0.0,0.0,0.0,0.0,0.0,0.0,0.0,0.0,0.0,0.0,0.0,0.0,0.0,0.0,0.0,0.0,0.0,0.0,0.0,0.0,0.0,0.0,0.0,0.0,0.0,0.0,0.0,0.0,0.0,0.0,0.0,0.0,0.0,0.0,0.0,0.0,0.0,0.0,0.0,0.0,0.0,0.0,0.0,0.0,0.0,0.0,0.0,0.0,0.0,0.6568,0.8489,0.9866,1.0543,1.12,1.156,1.1801,1.2137,1.1795,0.0,0.0,0.0,0.0,0.0,0.0,0.0,0.0,0.0,0.0,0.0,0.0,0.0,0.0,0.0,0.0,0.0,0.0,0.0,0.0,0.0,0.0,0.0,0.0,0.0,0.0,0.0,0.0,0.0,0.0,0.0,0.0,0.0,0.0,0.0,0.0,0.0,0.0,0.0,0.0,0.0,1.3104,1.5517,1.4864,0.0,0.0,0.0,0.0,1.6473,1.7188,0.0,0.0,0.0,0.0,0.0,0.0,0.0,0.0,0.0,0.0,0.0,0.0,0.0,0.0,0.0,0.0,0.0,0.0,0.0,0.0,0.0,0.0,0.0,0.0,0.0,0.0,0.0,0.0,0.0,0.0,0.0,0.0,0.0,0.0,0.0,0.0,0.0,0.0,0.0,0.0,0.0,0.0,0.0,0.0,0.0,0.0,0.0,0.0,0.0,0.0,0.0,0.0,0.0,0.0,0.0,0.0,0.7045,0.8359,0.9763,1.1166,1.1783,1.2316,1.2812,1.2652,1.2318,0.0,0.0,0.0,0.0,0.0,0.0,0.0,0.0,0.0,0.0,0.0,0.0,0.0,0.0,0.0,0.0,0.0,0.0,0.0,0.0,0.0,0.0,0.0,0.0,0.0,0.0,0.0,0.0,0.0,0.0,0.0,0.0,0.0,0.0,0.0,0.0,0.0,0.0,0.0,0.0,0.0,1.503,1.5569,1.5825,1.6157,0.0,0.0,1.7605,1.8594,1.8818,0.0,0.0,0.0,0.0,0.0,0.0,0.0,0.0,0.0,0.0,0.0,0.0,0.0,0.0,0.0,0.0,0.0,0.0,0.0,0.0,0.0,0.0,0.0,0.0,0.0,0.0,0.0,0.0,0.0,0.0,0.0,0.0,0.0,0.0,0.0,0.0,0.0,0.0,0.0,0.0,0.0,0.0,0.0,0.0,0.0,0.0,0.0,0.0,0.0,0.0,0.0,0.0,0.0,0.0,0.0,0.7494,0.7605,0.9908,1.1588,1.2435,1.287,1.3294,1.3695,1.3238,1.2815,0.0,0.0,0.0,0.0,0.0,0.0,0.0,0.0,0.0,0.0,0.0,0.0,0.0,0.0,0.0,0.0,0.0,0.0,0.0,0.0,0.0,0.0,0.0,0.0,0.0,0.0,0.0,0.0,0.0,0.0,0.0,0.0,0.0,0.0,0.0,0.0,0.0,0.0,0.0,0.0,0.0,0.0,1.7624,1.7665,0.0,0.0,0.0,1.8714,1.9421,0.0,0.0,0.0,0.0,0.0,0.0,0.0,0.0,0.0,0.0,0.0,0.0,0.0,0.0,0.0,0.0,0.0,0.0,0.0,0.0,0.0,0.0,0.0,0.0,0.0,0.0,0.0,0.0,0.0,0.0,0.0,0.0,0.0,0.0,0.0,0.0,0.0,0.0,0.0,0.0,0.0,0.0,0.0,0.0,0.0,0.0,0.0,0.0,0.0,0.0,0.0,0.0,0.0,0.0,0.0,0.0,0.0,0.7899,1.1284,1.3226,1.3564,1.4018,1.4318,1.4503,1.4181,0.0,0.0,0.0,0.0,0.0,0.0,0.0,0.0,0.0,0.0,0.0,0.0,0.0,0.0,0.0,0.0,0.0,0.0,0.0,0.0,0.0,0.0,0.0,0.0,0.0,0.0,0.0,0.7824,0.0,0.0,0.0,0.0,0.0,0.0,0.0,0.0,0.0,0.0,0.0,0.0,0.0,0.0,1.7729,1.9609,1.95,1.9608,0.0,0.0,1.9929,2.045,2.1251,2.1691,0.0,0.0,0.0,0.0,0.0,0.0,0.0,0.0,0.0,0.0,0.0,0.0,0.0,0.0,0.0,0.0,0.0,0.0,0.0,0.0,0.0,0.0,0.0,0.0,0.0,0.0,0.0,0.0,0.0,0.0,0.0,0.0,0.0,0.0,0.0,0.0,0.0,0.0,0.0,0.0,0.0,0.0,0.0,0.0,0.0,0.0,0.0,0.0,0.0,0.0,0.0,0.0,0.0,0.0,0.0,0.802,1.1733,1.3894,1.423,1.5028,1.5499,1.5531,1.5657,1.5222,0.0,0.0,0.0,0.0,0.0,0.0,0.0,0.0,0.0,0.0,0.0,0.0,0.0,0.0,0.0,0.0,0.0,0.0,0.0,0.0,0.0,0.0,0.0,0.0,0.0,0.0,0.0,0.0,0.0,0.0,0.0,0.0,0.0,0.0,0.0,0.0,0.0,0.0,0.0,0.0,0.0,1.9877,2.0776,2.0979,2.1446,0.0,0.0,2.1683,2.241,2.2565,2.2531,2.2326,0.0,0.0,0.0,0.0,0.0,0.0,0.0,0.0,0.0,0.0,0.0,0.0,0.0,0.0,0.0,0.0,0.0,0.0,0.0,0.0,0.0,0.0,0.0,0.0,0.0,0.0,0.0,0.0,0.0,0.0,0.0,0.0,0.0,0.0,0.0,0.0,0.0,0.0,0.0,0.0,0.0,0.0,0.0,0.0,0.0,0.0,0.0,0.0,0.0,0.0,0.0,0.0,0.0,1.0507,0.9865,1.3107,1.5198,1.6049,1.6331,1.6514,1.657,1.634,1.5235,0.0,0.0,0.0,0.0,0.0,0.0,0.0,0.0,0.0,0.0,0.0,0.0,0.0,0.0,0.0,0.0,0.0,0.0,0.0,0.0,0.0,0.0,0.0,0.0,0.0,0.0,0.0,0.0,1.194,1.27,1.415,0.0,0.0,0.0,0.0,0.0,0.0,0.0,0.0,0.0,0.0,2.1082,2.1749,2.1936,0.0,0.0,2.2663,2.2394,2.3023,2.313,2.3112,2.3032,2.2989,0.0,0.0,0.0,0.0,0.0,0.0,0.0,0.0,0.0,0.0,0.0,0.0,0.0,0.0,0.0,0.0,0.0,0.0,0.0,0.0,0.0,0.0,0.0,0.0,0.0,0.0,0.0,0.0,0.0,0.0,0.0,0.0,0.0,0.0,0.0,0.0,0.0,0.0,0.0,0.0,0.0,0.0,0.0,0.0,0.0,0.0,0.0,0.0,0.0,0.0,0.0,0.0,1.1832,1.1931,1.4529,1.6331,1.7273,1.7264,1.7297,1.7393,1.7036,1.5555,0.0,0.0,0.0,0.0,0.0,0.0,0.0,0.0,0.0,0.0,0.0,0.0,0.0,0.0,0.0,0.0,0.0,0.0,0.0,0.0,0.0,0.0,0.0,0.0,0.0,0.0,0.0,0.0,1.4112,1.5215,1.6654,0.0,0.0,0.0,0.0,0.0,0.0,0.0,0.0,0.0,0.0,2.2416,2.2985,2.3079,2.3245,2.3623,2.3325,2.3147,2.3459,2.3574,2.3599,2.3545,0.0,0.0,0.0,0.0,0.0,0.0,0.0,0.0,0.0,0.0,0.0,0.0,0.0,0.0,0.0,0.0,0.0,0.0,0.0,0.0,0.0,0.0,0.0,0.0,0.0,0.0,0.0,0.0,0.0,0.0,0.7863,0.0,0.0,0.0,0.0,0.0,0.0,0.0,0.0,0.0,0.0,0.0,0.0,0.0,0.0,0.0,0.0,0.0,0.0,0.0,0.0,0.0,0.0,1.3324,1.3737,1.5861,1.7183,1.7591,1.7692,1.7801,1.7787,1.7894,1.6515,1.3379,0.0,0.0,0.0,0.0,0.0,0.0,0.0,0.0,0.0,0.0,0.0,0.0,0.0,0.0,0.0,0.0,0.0,0.0,0.0,0.0,0.0,0.0,0.0,0.0,0.0,0.0,1.4433,1.5863,1.7267,0.0,0.0,0.0,0.0,0.0,0.0,0.0,0.0,0.0,0.0,2.3584,2.3962,2.4535,2.4545,2.4407,2.4388,2.4248,2.4075,2.3858,2.3966,2.4026,0.0,0.0,0.0,0.0,0.0,0.0,0.0,0.0,0.0,0.0,0.0,0.0,0.0,0.0,0.0,0.0,0.0,0.0,0.0,0.0,0.0,0.0,0.0,0.0,0.0,0.0,0.0,0.8635,0.8566,0.0,0.0,0.0,0.0,0.0,0.0,0.0,0.0,0.0,0.0,0.0,1.2907,1.3207,0.0,0.0,0.0,0.0,0.0,0.0,0.0,0.0,0.0,0.0,0.0,0.0,1.3952,1.5002,1.6675,1.776,1.8194,1.8245,1.8268,1.8254,1.8307,1.6757,1.3426,0.0,0.0,0.0,0.0,0.0,0.0,0.0,0.0,0.0,0.0,0.0,0.0,0.0,0.0,0.0,0.0,0.0,0.0,0.0,0.0,0.0,0.0,0.0,0.0,0.0,1.6532,0.0,0.0,0.0,0.0,0.0,0.0,0.0,0.0,0.0,0.0,0.0,2.3394,2.3708,2.4197,2.458,2.4816,2.4797,2.4765,0.0,0.0,0.0,0.0,0.0,0.0,0.0,0.0,0.0,0.0,0.0,0.0,0.0,0.0,2.5125,2.5096,2.512,2.5175,2.5375,0.0,0.0,0.0,0.0,0.0,0.0,0.0,0.0,0.0,0.0,0.0,0.0,0.0,0.0,1.0904,0.0,1.0835,0.0,0.0,0.0,0.0,0.0,0.0,0.0,0.0,1.3879,1.442,1.4923,1.5182,1.5131,0.0,1.4711,1.3388,0.0,0.0,0.0,0.0,0.0,0.0,0.0,0.0,1.4514,1.5569,1.7182,1.8204,1.8502,1.8574,1.862,1.862,1.7903,1.6811,1.5318,1.3619,1.2406,0.0,0.0,0.0,0.0,0.0,0.0,0.0,0.0,0.0,0.0,0.0,0.0,0.0,0.0,0.0,0.0,0.0,0.0,0.0,0.0,0.0,0.0,0.0,1.8474,0.0,0.0,0.0,0.0,0.0,0.0,0.0,0.0,0.0,2.3881,2.4168,2.4346,2.4388,2.4801,2.5111,2.5082,0.0,0.0,0.0,0.0,0.0,0.0,0.0,2.4966,2.5026,2.5047,2.5085,2.5114,2.5278,2.5387,2.5361,0.0,0.0,2.5378,2.5311,2.5318,2.5468,2.5503,2.5476,2.5465,2.5454,2.5421,0.0,0.0,0.0,0.0,0.0,0.0,0.0,0.0,1.4057,1.4045,0.0,1.4033,0.0,0.0,0.0,0.0,0.0,1.3525,0.0,0.0,1.6397,1.6913,1.6468,1.6441,1.6494,1.6455,1.594,1.5436,1.4891,1.4442,0.0,0.0,0.0,0.0,0.0,0.0,1.5069,1.5623,1.7515,1.8517,1.8556,1.876,1.8898,1.8869,1.6944,1.6824,1.8579,1.3976,1.3178,1.7432,1.6664,0.0,0.0,0.0,0.0,0.0,0.0,0.0,0.0,0.0,0.0,0.0,0.0,0.0,0.0,0.0,0.0,0.0,0.0,0.0,0.0,1.931,0.0,0.0,0.0,0.0,0.0,0.0,0.0,0.0,0.0,0.0,2.5123,2.4969,2.4949,2.5245,0.0,0.0,0.0,0.0,2.525,2.5143,2.4999,2.4924,2.4943,2.5079,2.5231,2.5286,0.0,0.0,2.5508,2.5553,2.5579,2.5508,2.5564,2.5595,2.5598,2.5572,2.5564,2.552,2.5498,2.5457,2.5418,2.5348,2.5303,1.4618,0.0,0.0,0.0,0.0,1.3395,1.3937,1.4599,1.4701,1.4688,1.4611,1.4599,0.0,0.0,0.0,0.0,0.0,0.0,1.4862,1.6267,1.6468,1.6996,1.7887,1.7901,1.7887,1.7873,1.7733,1.7611,1.7454,1.749,1.603,1.3162,0.0,0.0,0.0,0.0,1.6063,1.6946,1.8393,1.9153,1.9153,1.9213,1.931,1.9376,1.8803,1.8083,1.7243,1.7239,1.6927,1.6304,1.7732,0.0,0.0,0.0,0.0,0.0,0.0,0.0,0.0,0.0,0.0,0.0,0.0,0.0,0.0,0.0,0.0,0.0,0.0,0.0,2.0088,2.105,2.162,0.0,0.0,0.0,0.0,0.0,0.0,0.0,0.0,0.0,2.5379,2.5357,2.5362,0.0,0.0,2.5576,2.5556,2.5517,2.5505,2.5466,2.5427,0.0,2.5403,2.5401,2.5444,2.5508,2.5554,2.558,2.5527,2.5537,2.5576,2.5517,2.5511,2.5518,2.5531,2.5523,2.5511,2.5452,2.543,2.5418,2.5351,2.5303,2.5292,1.7152,1.5164,1.4787,1.4893,1.5281,1.5599,1.6239,1.6996,1.709,1.6957,1.6639,1.6599,1.6218,1.5511,1.5099,0.0,0.0,0.0,1.6492,1.7685,1.814,1.8644,1.9247,1.9247,1.9247,1.9233,1.8965,1.8851,1.8865,1.904,1.7842,1.5442,0.0,0.0,1.53,1.6261,1.7148,1.7899,1.8892,1.9487,1.9588,1.9859,2.0089,2.0265,2.0333,1.9783,1.8584,1.8782,1.8634,1.7973,1.8341,1.8937,0.0,0.0,0.0,0.0,0.0,0.0,0.0,0.0,0.0,0.0,0.0,2.0027,1.9836,0.0,0.0,0.0,2.0831,2.1343,2.1578,2.2419,0.0,0.0,0.0,0.0,0.0,0.0,0.0,2.5049,2.5258,2.5426,2.5521,2.5554,2.5567,2.5612,2.5597,2.5605,2.5605,0.0,2.5556,2.5558,2.5547,2.5547,2.5554,2.5537,2.5544,2.5606,2.5565,2.5549,2.5517,2.5498,2.551,2.548,2.5445,2.5448,2.5387,2.5378,2.5378,2.537,2.5341,2.5341,2.528,2.5241,2.5201,1.9258,1.9159,1.7622,1.7467,1.82,1.8286,1.9092,2.0386,2.0386,2.0063,1.9542,1.9542,1.8961,1.795,1.6943,0.0,1.7224,1.8177,1.874,1.9065,2.0602,2.0996,2.0419,2.0365,2.0365,2.0389,1.979,1.9524,1.9524,1.9501,1.9182,1.8594,1.8247,1.7757,1.7122,1.7644,1.8168,1.8614,1.9159,1.9651,2.0024,2.0618,2.107,2.1339,2.1462,2.1538,2.1579,1.9216,1.9022,2.1315,1.8948,1.8545,2.0751,0.0,0.0,0.0,0.0,0.0,0.0,0.0,0.0,0.0,0.0,0.0,0.0,0.0,0.0,0.0,2.1919,0.0,2.2869,2.3521,0.0,0.0,0.0,2.4403,2.4482,2.4912,2.5216,2.5243,0.0,0.0,2.5579,2.5605,2.5584,2.5508,2.5565,2.5613,2.56,2.555,2.5515,2.5505,2.5476,2.5495,2.5498,2.5531,2.5562,2.555,2.5524,2.5495,2.5499,2.5421,2.5387,2.5378,2.5369,2.5332,2.5209,2.5168,2.5206,2.5261,2.5261,2.5239,2.5172,2.5122,2.508,2.1569,2.177,2.1377,2.0492,1.9358,1.972,2.006,2.04,2.04,2.0458,2.0524,2.0565,2.0546,2.0494,2.0255,1.9922,1.9633,2.0337,2.0445,2.0059,2.0454,2.0552,2.0419,2.0365,2.0365,2.0404,2.0505,2.0526,2.0533,2.0493,2.0124,1.9435,1.9594,1.8967,1.7687,1.7999,1.8606,1.9468,1.9893,2.0431,2.1086,2.1275,2.1446,2.1691,2.1721,2.1869,2.2175,2.1411,2.1319,2.2113,2.1335,2.1105,2.1698,2.0957,0.0,0.0,0.0,0.0,0.0,0.0,0.0,0.0,0.0,2.2173,2.2023,0.0,2.249,0.0,2.2845,2.3337,2.3624,2.3989,0.0,0.0,2.4403,2.4609,2.5101,2.5219,2.5328,2.5479,2.558,2.5641,2.5605,2.5611,2.56,2.5593,2.5597,2.5606,2.5613,2.554,2.5505,2.5495,2.5456,2.5432,2.5412,2.5421,2.5445,2.5437,2.544,2.5395,2.5361,2.5351,2.5313,2.5262,2.516,2.5077,2.5041,2.5019,2.5,2.4981,2.4994,2.4981,2.4974,2.4962,2.4949,2.2814,2.2979,2.2979,2.2305,2.1322,2.157,2.1672,2.1715,2.1672,2.1628,2.1505,2.1228,2.1234,2.138,2.138,2.1173,2.0892,2.1689,2.1724,2.1141,2.1813,2.2076,2.1965,2.195,2.2048,2.222,2.2108,2.1902,2.1569,2.1531,2.1167,2.043,2.0586,2.017,1.918,1.918,1.94,1.9842,2.0649,2.1275,2.1718,2.201,2.2113,2.194,2.2313,2.2493,2.2473,2.2573,2.2652,2.2694,2.2571,2.25,2.2466,2.1071,2.0237,0.0,0.0,0.0,0.0,0.0,0.0,0.0,0.0,0.0,0.0,0.0,2.375,2.3741,2.3856,2.4022,2.4232,2.4538,2.4797,2.4979,2.4962,2.5082,2.5454,2.5477,2.5517,2.5626,2.564,2.5641,2.5601,2.5605,2.5605,2.5607,2.5579,2.5551,2.5565,2.5492,2.5448,2.5404,2.5379,2.5351,2.5387,2.5387,2.5387,2.536,2.5332,2.5283,2.519,2.5138,2.5103,2.5075,2.5,2.4949,2.4923,2.4888,2.4865,2.4823,2.4779,2.4775,2.4874,2.4828,2.4762,2.3436,2.3508,2.3508,2.3551,2.3595,2.3595,2.348,2.326,2.326,2.2979,2.2488,2.1966,2.1754,2.1739,2.1754,2.1749,2.1784,2.2743,2.2802,2.2317,2.369,2.4186,2.3988,2.3988,2.4159,2.4454,2.3958,2.3373,2.272,2.2688,2.2263,2.1493,2.146,2.1246,2.0793,2.0605,2.041,2.0162,2.1454,2.2141,2.2124,2.2686,2.2756,2.2292,2.2996,2.3189,2.2746,2.3141,2.3318,2.3133,2.3133,2.3151,2.3056,2.0565,2.029,0.0,2.0598,0.0,0.0,0.0,0.0,0.0,0.0,0.0,0.0,2.4099,2.4561,2.5153,2.4816,2.4662,2.4759,2.5098,2.5354,2.542,2.5535,2.5615,2.5609,2.5662,2.5687,2.5703,2.5621,2.5603,2.5609,2.56,2.5601,2.5601,2.5551,2.5524,2.5488,2.5421,2.537,2.5311,2.529,2.5282,2.5332,2.5332,2.5313,2.5243,2.519,2.5122,2.5024,2.4955,2.4888,2.4888,2.4874,2.4847,2.4813,2.4779,2.4749,2.4707,2.4578,2.4559,2.4775,2.4716,2.4588,2.4112,2.4681,2.4681,2.4855,2.5067,2.5067,2.4389,2.3319,2.326,2.3376,2.3558,2.3675,2.3753,2.3753,2.3753,2.3634,2.3474,2.4202,2.4334,2.4023,2.4349,2.4434,2.4362,2.4414,2.4398,2.4506,2.4638,2.4644,2.4512,2.4228,2.3545,2.2449,2.2415,2.1816,2.0732,0.0,0.0,0.0,2.2408,2.2884,2.2902,2.3003,2.3028,2.291,2.3224,0.0,2.3259,2.3346,2.3369,2.3341,2.3341,0.0,0.0,0.0,0.0,0.0,0.0,0.0,0.0,0.0,0.0,0.0,2.4171,2.4172,2.419,2.4551,2.4896,2.5177,2.5165,2.5154,2.5197,2.5307,2.5446,2.554,2.5581,2.5621,2.5673,2.5699,2.5683,2.5618,2.5595,2.5613,2.5598,2.56,2.5601,2.5601,2.5595,2.5531,2.5421,2.5351,2.5312,2.5282,2.5195,2.5144,2.5156,2.5082,2.5031,2.4962,2.4968,2.4955,2.491,2.4861,2.4823,2.4823,2.4783,2.4738,2.4711,2.4714,2.4695,2.4631,2.4462,2.441,2.4679,2.4578,2.4479,2.4894,0.0,2.5243,2.5319,0.0,2.5519,2.5051,2.4389,2.4389,2.4471,2.4648,2.4823,2.4902,2.4902,2.4902,2.483,2.4702,2.5038,2.5121,2.5021,2.5005,2.5098,2.5294,2.5294,2.5401,2.5576,2.595,2.5913,2.5605,2.5601,2.4893,2.3551,2.3551,2.2986,2.1993,2.2632,2.2883,2.2635,2.3047,2.3259,2.3259,2.3376,2.333,2.3122,2.3562,0.0,0.0,0.0,0.0,0.0,0.0,0.0,0.0,2.3522,0.0,2.378,2.3787,2.389,2.4081,2.4173,2.4362,2.4666,2.4752,2.4719,2.4512,2.482,2.5113,2.5284,2.529,2.5337,2.5432,2.546,2.5532,2.5644,2.5648,2.567,2.5702,2.5663,2.5637,2.5595,2.5613,2.5613,2.56,2.5613,2.5589,2.5538,2.5444,2.5382,2.5312,2.5284,2.5262,2.5122,2.5038,2.5012,2.5012,2.4947,2.4888,2.4861,2.4842,2.4828,2.479,2.4764,2.4753,2.4753,2.4707,2.4679,2.4682,2.4685,2.4631,2.4599,2.4464,2.4411,2.4549,2.432,2.4081,2.5668,2.5726,2.5709,2.5726,2.5726,2.5726,2.5709,2.5689,0.0,0.0,0.0,2.5324,2.5308,2.5324,2.5324,2.5281,2.5241,2.5371,2.5473,2.5493,2.555,2.5832,2.6282,2.6217,2.6438,2.6889,2.7026,2.6901,2.6521,2.6792,2.6162,2.4811,2.4668,2.4254,2.3549,2.388,2.3919,2.3544,2.3482,2.3459,2.3477,2.3692,2.361,2.3236,2.3858,2.4018,2.3678,2.4037,2.4153,2.3979,2.3943,2.3943,2.3961,2.402,2.4135,2.4302,2.4474,2.457,2.4582,2.4756,2.4896,2.5043,2.5171,2.5094,2.4816,2.5061,2.5274,2.5418,2.5365,2.5439,2.5581,2.5628,2.5652,2.5698,2.5698,2.5703,2.5683,2.5638,2.5601,2.5601,2.5604,2.561,2.5609,2.5577,2.5564,2.5471,2.5363,2.5235,2.5205,2.5203,2.5126,2.4968,2.4902,2.4874,2.4874,2.4865,2.4851,2.4798,2.4779,2.4746,2.4689,2.4692,2.4676,2.4676,2.4679,2.4666,2.4666,2.4615,2.4582,2.4582,2.4464,2.4339,2.4302,2.3983,2.3735,2.621,2.6539,2.6556,2.6539,2.6539,2.6539,2.6539,2.6454,2.5799,2.5125,2.4539,2.4576,2.4576,2.4523,2.4539,2.4414,2.4199,2.4792,2.5245,2.5613,2.587,2.6416,2.7078,2.6718,2.6959,2.7637,2.7056,2.7095,2.76,2.7674,2.7059,2.5901,2.5781,2.5199,2.4218,2.4811,2.4829,2.4112,2.3876,2.3735,2.3753,2.3774,2.3774,2.3714,2.4054,2.4229,2.4265,2.4355,2.4442,2.4578,2.4591,2.457,2.457,2.4636,2.4682,2.4697,2.4746,2.4828,2.4924,2.4943,2.5053,2.5243,2.533,2.5311,2.5163,2.5226,2.5339,2.5473,2.5518,2.5556,2.5604,2.5655,2.5676,2.5705,2.5689,2.5681,2.5637,2.5609,2.5609,2.5609,2.5601,2.5595,2.5577,2.5544,2.5478,2.5379,2.5363,2.5354,2.5124,2.5005,2.4955,2.4902,2.4847,2.4823,2.4794,2.4772,2.4726,2.4714,2.466,2.4645,2.4613,2.4615,2.4631,2.4615,2.4615,2.4599,2.4528,2.4512,2.4513,2.4498,2.4339,2.4116,2.3943,2.3699,2.3666,2.7066,2.7227,2.7258,2.7227,2.7227,2.7258,2.7047,2.6718,2.6747,2.6354,2.5658,2.5642,2.5426,2.5078,2.5246,2.5023,2.455,2.5497,2.5786,2.5605,2.6133,2.6359,2.6335,2.6528,2.6629,2.6631,2.6819,2.6907,2.6887,2.7058,2.6627,2.5703,2.5266,2.4746,2.4263,2.4557,2.4615,2.4303,2.4114,2.4057,2.4154,2.4596,2.4653,2.4302,2.4853,2.4957,2.4575,2.5017,2.5308,2.5405,2.585,2.5887,2.5454,2.546,2.53,2.4851,2.491,2.4987,2.5041,2.5146,2.5255,2.5367,2.541,2.5432,2.5418,2.543,2.5466,2.5596,2.562,2.5617,2.5662,2.5676,2.5705,2.5707,2.5662,2.5662,2.565,2.5619,2.5615,2.5601,2.5602,2.559,2.555,2.5517,2.5503,2.5429,2.5357,2.5194,2.4923,2.4837,2.4802,2.4783,2.4753,2.4742,2.4692,2.4645,2.4631,2.465,2.4615,2.4599,2.4599,2.4601,2.4603,2.4599,2.4564,2.453,2.4515,2.4462,2.4446,2.4393,2.4303,2.4154,2.4019,2.3912,2.3789,2.7701,2.7701,2.7701,2.773,2.7713,2.776,2.7465,2.7028,2.7593,2.7517,2.7002,2.68,2.6219,2.5398,2.5772,2.5484,2.4861,2.5877,2.6091,2.5632,2.6402,2.6552,2.6242,2.6703,2.6702,2.6354,2.6788,2.6784,2.6457,2.6476,2.6148,2.5401,2.4777,2.4373,2.419,2.4431,2.4487,2.4408,2.4339,2.4338,2.4495,2.5313,2.5493,2.5098,2.5822,2.5963,2.5408,2.5815,2.6181,2.6399,2.6883,2.6826,2.6205,2.6189,2.5817,2.5044,2.5061,2.516,2.5173,2.5318,2.5418,2.5437,2.5486,2.554,2.5579,2.577,2.5785,2.5726,2.5664,2.5645,2.5683,2.5687,2.5689,2.5694,2.5624,2.5633,2.5657,2.5624,2.5601,2.5602,2.557,2.555,2.5529,2.5515,2.5472,2.5395,2.5182,2.4915,2.4738,2.4714,2.4666,2.4666,2.4666,2.4666,2.4615,2.4599,2.4599,2.4582,2.4564,2.4547,2.4549,2.4535,2.4537,2.4515,2.4497,2.4445,2.4465,2.443,2.4358,2.4321,2.4284,2.4266,2.4155,2.4012,2.3901,2.773,2.7701,2.773,2.7742,2.7811,2.7869,2.7826,2.7802,2.788,2.7869,2.7706,2.7088,2.5949,2.4646,2.5226,2.4837,2.3636,2.4933,2.5614,2.5666,2.6645,2.7497,2.79,2.7761,2.7976,2.8296,2.7277,2.6948,2.7336,2.6811,2.6153,2.5495,2.5329,2.4888,2.4375,2.5005,2.5114,2.4444,2.4578,2.466,2.4714,2.5477,2.5866,2.5894,2.666,2.715,2.701,2.6624,2.6715,2.7477,2.7041,2.668,2.6565,2.6549,2.6175,2.5349,2.5302,2.5293,2.5401,2.5453,2.557,2.5498,2.5625,2.5695,2.5734,2.639,2.6509,2.5987,2.5749,2.5761,2.5707,2.5687,2.5696,2.5703,2.5643,2.5616,2.5609,2.5615,2.5585,2.5525,2.5517,2.5522,2.5515,2.5499,2.5412,2.5235,2.5006,2.4779,2.4749,2.4676,2.458,2.4547,2.4582,2.4599,2.4599,2.4584,2.4568,2.453,2.4459,2.4444,2.441,2.4356,2.432,2.4393,2.4339,2.4339,2.4321,2.4303,2.4321,2.4266,2.4248,2.4211,2.3971,2.3769,2.3635,2.8291,2.8299,2.8344,2.837,2.8378,2.8404,2.8456,2.8482,2.8464,2.8254,2.7881,2.8015,2.6968,2.5083,2.5579,2.5195,2.4364,2.6062,2.6584,2.6258,2.7118,2.7474,2.7369,2.7661,2.7746,2.7585,2.6906,2.6539,2.6245,2.5585,2.5038,2.482,2.4801,2.4689,2.453,2.4877,2.4955,2.479,2.4847,2.4915,2.5076,2.5698,2.5901,2.5647,2.6339,2.6568,2.6335,2.6818,2.7428,2.7876,2.8464,2.8368,2.7418,2.7371,2.6967,2.6197,2.6612,2.6917,2.6931,2.7045,2.7094,2.7094,2.7156,2.7195,2.7215,2.7557,2.7598,2.7264,2.6778,2.6294,2.5828,2.568,2.5644,2.5682,2.5648,2.5597,2.5546,2.554,2.5525,2.5517,2.5522,2.5515,2.5499,2.5464,2.534,2.513,2.4929,2.4804,2.4654,2.4578,2.4512,2.4464,2.4464,2.4498,2.4534,2.4554,2.4519,2.4465,2.4429,2.4393,2.4339,2.4303,2.4303,2.4284,2.4284,2.4247,2.4247,2.4228,2.4228,2.4172,2.4134,2.4078,2.3985,2.3844,2.3899,2.8737,2.8761,2.881,2.8834,2.8815,2.862,2.868,2.8874,2.8691,2.8384,2.8191,2.8539,2.776,2.6308,2.6381,2.6082,2.5655,2.7057,2.7493,2.7053,2.775,2.7842,2.7365,2.7824,2.7842,2.7255,2.6859,2.6165,2.5263,2.4654,2.4393,2.4493,2.4715,2.4909,2.5032,2.5096,2.5215,2.5317,2.5184,2.5103,2.5305,2.5932,2.618,2.6009,2.6749,2.7028,2.6762,2.7687,2.8352,2.8602,2.9352,2.9275,2.8332,2.8025,2.7622,2.7123,2.7644,2.8054,2.8054,2.815,2.8213,2.8236,2.8274,2.8283,2.8342,2.8518,2.8522,2.8232,2.794,2.7393,2.6541,2.6348,2.6168,2.5805,2.5777,2.5834,2.556,2.5512,2.551,2.5515,2.5507,2.5499,2.5456,2.5378,2.5184,2.5012,2.4896,2.4804,2.4561,2.4478,2.4445,2.4412,2.4394,2.4393,2.4447,2.4485,2.445,2.4394,2.4358,2.4321,2.4266,2.4266,2.4229,2.4192,2.421,2.421,2.4153,2.4133,2.4113,2.4036,2.3978,2.3996,2.3979,2.3996,2.3937,2.8804,2.881,2.8858,2.8905,2.885,2.8201,2.8315,2.8938,2.8246,2.8282,2.876,2.8246,2.7824,2.7647,2.7647,2.727,2.672,2.7435,2.7879,2.7879,2.8594,2.892,2.8902,2.8938,2.8925,2.8736,2.7503,2.6264,2.4998,2.4807,2.4689,2.4794,2.5559,2.5929,2.5966,2.6151,2.6224,2.6187,2.5681,2.5318,2.5435,2.6184,2.6952,2.7627,2.8461,2.9106,2.9744,2.9352,2.9371,3.0206,2.8948,2.8409,2.8882,2.8324,2.7933,2.7956,2.8132,2.8247,2.829,2.8418,2.8435,2.8379,2.8515,2.8381,2.8596,2.9146,2.9228,2.8429,2.9078,2.9003,2.8239,2.7864,2.7264,2.6037,2.6315,2.6275,2.5594,2.5515,2.5511,2.5492,2.5484,2.5476,2.5401,2.5173,2.5049,2.4891,2.4697,2.4547,2.4515,2.4447,2.4393,2.4394,2.4339,2.4303,2.4321,2.4377,2.4395,2.434,2.4266,2.4211,2.4191,2.4171,2.4115,2.4096,2.4075,2.4056,2.4018,2.4018,2.3998,2.3958,2.3935,2.3935,2.3876,2.3976,2.3876,2.8881,2.8947,2.8952,2.897,2.8915,2.8663,2.876,2.8957,2.87,2.8741,2.8902,2.8705,2.8576,2.8553,2.8576,2.8136,2.7475,2.8191,2.8851,2.931,2.9641,3.012,3.0705,3.0239,3.0068,2.9973,2.8596,2.7616,2.7261,2.7182,2.7244,2.7205,2.7049,2.701,2.7154,2.7235,2.729,2.7294,2.7039,2.6946,2.6956,2.7283,2.7802,2.8552,2.8418,2.8456,2.8775,2.8967,2.9256,2.9563,2.9486,2.9371,2.9094,2.8868,2.8799,2.8934,2.9463,2.9814,2.9819,2.9868,2.9904,2.9904,2.9947,2.991,3.0007,3.0245,3.0287,3.0075,3.0137,3.0129,2.9718,2.8873,2.795,2.7351,2.6903,2.6466,2.5739,2.5511,2.5484,2.5456,2.544,2.5423,2.536,2.5203,2.5018,2.491,2.4716,2.4564,2.4446,2.4394,2.4339,2.4303,2.4266,2.4229,2.4247,2.4321,2.434,2.4247,2.4172,2.4115,2.4057,2.4057,2.4057,2.4039,2.3998,2.3974,2.3955,2.3878,2.3878,2.3855,2.3813,2.3768,2.3682,2.3768,2.3598,2.9163,2.9203,2.9203,2.9185,2.9148,2.8926,2.8963,2.9129,2.8926,2.8901,2.906,2.916,2.916,2.9115,2.9141,2.8926,2.8445,2.8916,2.958,3.0368,3.0428,3.0962,3.1616,3.1019,3.0728,3.0622,2.9261,2.8582,2.8654,2.846,2.8384,2.8383,2.8116,2.8089,2.8203,2.8214,2.8206,2.8159,2.7986,2.7948,2.8132,2.8255,2.8536,2.8967,2.8832,2.8698,2.8717,2.9236,2.9525,2.9575,2.9847,2.9775,2.9274,2.9508,2.9712,2.988,3.0403,3.0758,3.0758,3.0796,3.0806,3.0827,3.0849,3.0911,3.0911,3.0913,3.0897,3.0859,3.0816,3.0777,3.0509,2.9649,2.8973,2.881,2.8078,2.7108,2.616,2.5959,2.5738,2.547,2.5395,2.5379,2.5303,2.5182,2.4993,2.4847,2.467,2.4545,2.4393,2.4321,2.4266,2.421,2.4191,2.4172,2.417,2.4226,2.4246,2.417,2.4058,2.3981,2.3959,2.3959,2.3959,2.3961,2.3939,2.3915,2.3852,2.3792,2.3732,2.3689,2.3642,2.3611,2.3549,2.3526,2.3389,2.9626,2.9645,2.9626,2.9758,2.9683,2.912,2.9007,2.9495,2.897,2.9063,2.9334,2.9531,2.9548,2.9375,2.9474,2.9551,2.9458,2.9398,2.9939,3.0882,3.0939,3.1447,3.2239,3.145,3.0922,3.0788,2.9482,2.894,2.9155,2.8638,2.8279,2.818,2.8833,2.9075,2.9102,2.9102,2.8986,2.8756,2.839,2.8343,2.8662,2.8997,2.914,2.9275,2.9833,3.0198,3.0263,3.0283,3.0294,3.024,2.9709,2.9326,2.9583,3.0155,3.0637,3.0626,3.0819,3.0871,3.0907,3.0891,3.0894,3.0894,3.0894,3.0914,3.0914,3.0897,3.0859,3.0814,3.0801,3.0781,3.0706,3.0477,3.0346,3.0449,2.9513,2.8423,2.7323,2.6792,2.6359,2.558,2.5388,2.5313,2.5182,2.5134,2.5,2.4746,2.461,2.4513,2.4339,2.4247,2.421,2.4173,2.4153,2.4114,2.4112,2.411,2.4092,2.4074,2.3943,2.3848,2.3901,2.3919,2.3883,2.3883,2.3873,2.3847,2.3703,2.3642,2.3638,2.3571,2.3522,2.3453,2.3407,2.336,2.3271,3.0509,3.0584,3.1091,3.1336,3.1299,3.1035,3.0829,3.0565,3.0772,3.0434,2.9757,3.0208,3.0133,2.9645,2.9626,2.9734,2.9799,2.982,3.0487,3.1562,3.1732,3.2506,3.345,3.2596,3.1483,3.0686,3.068,3.0727,3.0739,3.0528,3.0482,3.0475,3.011,3.0013,2.9967,2.9987,2.9917,2.9852,2.9717,2.9717,2.9871,2.9929,2.9987,3.0025,3.0263,3.0398,3.0398,3.0398,3.0425,3.0462,3.0231,3.0153,3.0311,3.0548,3.0726,3.0823,3.087,3.0913,3.0913,3.0913,3.0914,3.0914,3.0915,3.0916,3.0917,3.0897,3.087,3.0799,3.0743,3.0697,3.0646,3.0571,3.0546,3.0607,2.9812,2.8763,2.744,2.6437,2.5763,2.5484,2.5361,2.5303,2.5261,2.5203,2.5044,2.4746,2.4591,2.4462,2.4303,2.421,2.419,2.4134,2.4095,2.4056,2.4034,2.4032,2.3994,2.3976,2.3883,2.3808,2.3842,2.3878,2.3842,2.3816,2.3804,2.3714,2.3589,2.3544,2.3522,2.3453,2.336,2.3313,2.3241,2.3193,2.3144,3.1559,3.1616,3.2107,3.2541,3.273,3.2502,3.2275,3.2067,3.2255,3.1708,3.0956,3.1328,3.1273,3.0803,3.0795,3.0912,3.0986,3.1016,3.1683,3.2539,3.2103,3.2778,3.383,3.2813,3.1776,3.0996,3.1059,3.1359,3.166,3.1371,3.1198,3.1083,3.066,3.0379,3.0398,3.0398,3.0398,3.0398,3.0379,3.0398,3.041,3.0425,3.0439,3.0449,3.0452,3.0482,3.0482,3.0482,3.0482,3.0519,3.0543,3.0639,3.0762,3.0777,3.0806,3.0873,3.0915,3.0916,3.0915,3.0916,3.0916,3.0916,3.0917,3.0879,3.0858,3.0845,3.0852,3.0745,3.0665,3.0614,3.0565,3.053,3.0501,3.0509,3.0105,2.9207,2.801,2.6959,2.6439,2.641,2.6351,2.6058,2.5707,2.5564,2.5205,2.4782,2.451,2.4409,2.4247,2.4171,2.4133,2.4075,2.4036,2.3996,2.3976,2.3935,2.3894,2.3876,2.384,2.3801,2.3837,2.3816,2.3798,2.3739,2.3719,2.3606,2.3495,2.3465,2.3442,2.333,2.3241,2.3193,2.3168,2.3144,2.3119,3.2844,3.2825,3.2978,3.3627,3.4197,3.3616,3.3612,3.3838,3.3446,3.289,3.2527,3.266,3.2641,3.2542,3.2393,3.2488,3.2741,3.2588,3.29,3.3178,3.2584,3.2393,3.3039,3.253,3.2052,3.1667,3.109,3.116,3.1833,3.1141,3.0475,3.0679,3.0533,3.0398,3.0398,3.0398,3.0398,3.0398,3.0398,3.041,3.041,3.0462,3.0491,3.0498,3.0571,3.0594,3.0594,3.0587,3.0574,3.0532,3.0631,3.0765,3.0871,3.0896,3.0896,3.0915,3.0918,3.0918,3.0917,3.0918,3.0918,3.0918,3.0918,3.0857,3.0762,3.0788,3.0789,3.0644,3.0552,3.0509,3.0472,3.0479,3.0449,3.0409,3.0218,2.9745,2.9222,2.8285,2.764,2.7648,2.7731,2.735,2.6208,2.6081,2.5465,2.4664,2.4337,2.4302,2.4228,2.4151,2.4094,2.4036,2.3958,2.3937,2.3896,2.3876,2.3855,2.3834,2.3798,2.3816,2.3795,2.3795,2.375,2.3688,2.3613,2.3496,2.3389,2.3342,2.3283,2.3193,2.3144,2.3119,2.3119,2.3119,2.3095,3.4541,3.4674,3.593,3.6597,3.6769,3.6588,3.591,3.5181,3.545,3.4419,3.3255,3.3461,3.3384,3.2814,3.2875,3.2864,3.2993,3.2948,3.2942,3.3115,3.2846,3.3058,3.3692,3.3609,3.3128,3.2622,3.2391,3.2352,3.2506,3.1756,3.1371,3.1333,3.0698,3.0417,3.0398,3.0456,3.0398,3.0398,3.0398,3.046,3.0524,3.0501,3.0537,3.0582,3.0626,3.0645,3.0611,3.0648,3.0676,3.0667,3.0771,3.0873,3.0896,3.0917,3.0918,3.0918,3.0918,3.0918,3.0918,3.0918,3.0918,3.0917,3.0917,3.0853,3.0707,3.0676,3.0658,3.0579,3.0491,3.0433,3.0419,3.0428,3.0417,3.0325,2.9971,2.9509,2.9132,2.8398,2.7838,2.7816,2.7778,2.726,2.6588,2.6095,2.5622,2.4666,2.4319,2.4302,2.4171,2.4074,2.4016,2.3958,2.3917,2.3858,2.3837,2.3816,2.3816,2.3813,2.3795,2.3795,2.3774,2.3735,2.3646,2.3585,2.3502,2.3393,2.3256,2.3168,2.3119,2.3119,2.3119,2.3119,2.3119,2.3119,2.3119,3.6313,3.6422,3.7398,3.8027,3.8274,3.8016,3.7533,3.6995,3.6646,3.5912,3.4683,3.4567,3.4414,3.3953,3.3986,3.4019,3.3999,3.3974,3.4026,3.4026,3.4045,3.391,3.3833,3.393,3.391,3.3583,3.3833,3.3757,3.3353,3.2602,3.2256,3.1948,3.1006,3.0744,3.1506,3.1076,3.1018,3.1114,3.1049,3.1056,3.1226,3.0795,3.0613,3.0736,3.0964,3.1246,3.1253,3.0975,3.0786,3.0808,3.0855,3.0917,3.0918,3.0918,3.0918,3.0918,3.0918,3.0918,3.0918,3.0918,3.0917,3.0916,3.0915,3.0827,3.0723,3.0628,3.06,3.0554,3.0453,3.0413,3.0386,3.0383,3.0371,3.0309,2.9874,2.9586,2.9598,2.9221,2.889,2.8816,2.8683,2.8212,2.7205,2.6767,2.5794,2.4793,2.4337,2.4229,2.4095,2.4034,2.4046,2.4135,2.4003,2.3946,2.3871,2.3852,2.3795,2.3795,2.3786,2.3786,2.3707,2.3646,2.3567,2.346,2.3406,2.3302,2.3172,2.3119,2.3119,2.3119,2.3119,2.3119,2.3119,2.3119,2.3119,3.7967,3.8019,3.8082,3.8523,3.909,3.8524,3.8558,3.877,3.7536,3.6762,3.6339,3.5782,3.532,3.5507,3.5166,3.5411,3.5397,3.5218,3.5315,3.5276,3.518,3.4718,3.3776,3.4237,3.4507,3.4641,3.5315,3.5238,3.4699,3.3795,3.3237,3.2942,3.1672,3.1576,3.23,3.2119,3.2073,3.2259,3.2053,3.2145,3.2266,3.1728,3.1325,3.1406,3.1882,3.2223,3.2109,3.1699,3.1309,3.1211,3.1016,3.0918,3.0918,3.0918,3.0918,3.0918,3.0917,3.0917,3.0916,3.0915,3.0914,3.0913,3.0913,3.0845,3.0732,3.0648,3.0613,3.051,3.0424,3.0392,3.0371,3.0336,3.0323,3.0292,3.0248,3.0286,3.0279,3.0292,3.0299,3.0279,3.0202,2.9546,2.8713,2.774,2.6761,2.5523,2.506,2.4942,2.4837,2.4811,2.4714,2.4584,2.4363,2.4031,2.3958,2.3886,2.381,2.3771,2.3739,2.3692,2.3585,2.3517,2.3431,2.3364,2.3298,2.3214,2.3154,2.3119,2.3119,2.3119,2.3119,2.3119,2.3119,2.3119,2.3119,3.8827,3.8901,3.9624,4.0024,4.0156,4.0015,3.9681,3.9204,3.818,3.7392,3.668,3.5892,3.5584,3.5526,3.5584,3.5507,3.5526,3.5545,3.5507,3.5507,3.5507,3.5372,3.493,3.5161,3.5545,3.5988,3.6315,3.6661,3.6622,3.5622,3.4943,3.47,3.3294,3.2632,3.2964,3.2995,3.3006,3.3338,3.3083,3.313,3.3429,3.3,3.2641,3.2756,3.2966,3.3086,3.3125,3.2969,3.2871,3.2559,3.1699,3.1055,3.1094,3.1035,3.1055,3.1093,3.1034,3.0975,3.0953,3.105,3.0931,3.1007,3.1007,3.0838,3.072,3.0695,3.0618,3.0501,3.0389,3.0314,3.033,3.0305,3.0305,3.0305,3.0292,3.0279,3.0247,3.0215,3.0253,3.0245,3.0094,2.9858,2.9542,2.8424,2.7438,2.639,2.597,2.5859,2.5681,2.5528,2.5379,2.5198,2.4759,2.4447,2.432,2.4118,2.3765,2.3685,2.3652,2.3598,2.3489,2.3389,2.3329,2.3245,2.3186,2.3144,2.3119,2.3119,2.3119,2.3119,2.3119,2.3119,2.3119,2.3119,2.3119,3.9756,3.981,4.029,4.0499,4.0495,4.0489,4.0254,3.9738,3.8969,3.8354,3.7815,3.7046,3.6469,3.6084,3.6045,3.5911,3.5666,3.593,3.6084,3.6084,3.6065,3.6084,3.6065,3.6084,3.6334,3.6796,3.7603,3.8022,3.7767,3.7261,3.6735,3.6511,3.466,3.4229,3.4453,3.4033,3.4063,3.4433,3.409,3.3954,3.4147,3.3676,3.3658,3.3782,3.3691,3.3535,3.3945,3.3574,3.3418,3.3125,3.2363,3.1836,3.1953,3.1855,3.1815,3.2028,3.2065,3.2065,3.2082,3.2041,3.1923,3.1472,3.145,3.1139,3.0871,3.0728,3.063,3.0482,3.0351,3.0256,3.0305,3.0266,3.0266,3.0253,3.0272,3.0226,3.0166,3.018,3.0226,3.0218,3.0117,3.0015,2.9569,2.8764,2.7884,2.6801,2.6436,2.6307,2.6036,2.5919,2.5973,2.5733,2.5244,2.4918,2.4755,2.4364,2.3736,2.3594,2.3499,2.3448,2.3378,2.33,2.3197,2.3161,2.3144,2.3144,2.3119,2.3119,2.3119,2.3119,2.3119,2.3119,2.3119,2.3119,2.3119,4.0899,4.0873,4.0765,4.0707,4.0662,4.0566,4.0469,4.0369,3.9642,3.9142,3.9104,3.8392,3.7411,3.6988,3.668,3.6276,3.6103,3.6526,3.6911,3.6911,3.6911,3.6911,3.6925,3.6944,3.6964,3.7118,3.8349,3.8768,3.8483,3.8285,3.8009,3.7688,3.5912,3.5288,3.5944,3.5377,3.482,3.5287,3.495,3.4717,3.4734,3.4245,3.437,3.4629,3.4414,3.4336,3.4668,3.4355,3.3906,3.3769,3.3359,3.3396,3.3494,3.3221,3.2927,3.3372,3.3174,3.3114,3.3073,3.3146,3.289,3.2207,3.2263,3.1815,3.1208,3.1099,3.115,3.1004,3.0926,3.0854,3.0682,3.0852,3.0672,3.0466,3.0395,3.0276,3.0117,3.0123,3.0138,3.02,3.0072,2.995,2.959,2.8968,2.8091,2.7341,2.7069,2.6786,2.659,2.6566,2.6765,2.6711,2.6331,2.561,2.5375,2.4707,2.406,2.3731,2.3579,2.3372,2.33,2.321,2.3137,2.3137,2.3119,2.3119,2.3119,2.3119,2.3119,2.3119,2.3119,2.3119,2.3119,2.3119,2.3119,4.2681,4.2604,4.1876,4.1585,4.147,4.0835,4.0527,4.0373,3.9662,3.9315,3.9219,3.843,3.8046,3.7661,3.6969,3.6622,3.6757,3.7353,3.7796,3.7777,3.7777,3.7805,3.7852,3.7852,3.7828,3.8092,3.8926,3.9273,3.9147,3.9179,3.8942,3.8138,3.703,3.6528,3.6184,3.5588,3.5444,3.5766,3.557,3.5455,3.5403,3.5394,3.537,3.5644,3.5351,3.5469,3.5624,3.5624,3.5565,3.5563,3.5484,3.5444,3.5188,3.4487,3.3939,3.3682,3.366,3.3734,3.369,3.3534,3.2988,3.2497,3.2758,3.2673,3.2052,3.1957,3.2116,3.2366,3.2275,3.2197,3.2282,3.1928,3.1741,3.1367,3.0898,3.0681,3.0143,2.9956,3.0026,3.0105,2.9962,2.9799,2.9433,2.9139,2.8623,2.8135,2.794,2.7825,2.7719,2.7797,2.7997,2.7852,2.758,2.6742,2.6021,2.5165,2.4438,2.4135,2.3837,2.3364,2.3281,2.3161,2.3119,2.3119,2.3119,2.3119,2.3119,2.3119,2.3119,2.3119,2.3119,2.3119,2.3119,2.3119,2.3119,4.3085,4.3066,4.2643,4.22,4.1777,4.1354,4.0893,4.0485,4.0085,3.9912,3.9811,3.9469,3.9046,3.8661,3.8296,3.7834,3.768,3.8253,3.8652,3.8671,3.87,3.8733,3.878,3.8761,3.8466,3.8614,3.9328,3.9739,3.9496,3.9901,3.9754,3.9373,3.8291,3.7568,3.7274,3.6367,3.6144,3.62,3.608,3.5869,3.5853,3.5954,3.5996,3.6015,3.6015,3.6014,3.6014,3.6013,3.5993,3.5971,3.5989,3.6007,3.5829,3.5515,3.5025,3.4749,3.4669,3.4686,3.4693,3.4671,3.4335,3.3598,3.379,3.344,3.2823,3.2677,3.3118,3.3607,3.2981,3.2648,3.2572,3.233,3.1711,3.1314,3.0937,3.0452,3.0026,2.9914,2.9935,2.9995,2.9792,2.9606,2.9364,2.913,2.902,2.8887,2.8712,2.8637,2.8612,2.8587,2.8587,2.8327,2.7879,2.7158,2.6394,2.5697,2.5027,2.4686,2.4264,2.3791,2.3443,2.3435,2.326,2.3119,2.3119,2.3383,2.3119,2.3119,2.3119,2.3119,2.3119,2.3119,2.3119,2.3119,2.3119,4.3585,4.3605,4.3412,4.2854,4.2104,4.1854,4.1277,4.0604,4.0469,4.045,4.0489,4.0412,4.0065,3.9642,3.9411,3.9084,3.8387,3.9167,3.9528,3.9562,3.9609,3.9642,3.9656,3.9598,3.9419,3.9303,3.9902,4.0269,3.9728,4.023,4.0572,3.9985,3.8934,3.8605,3.8512,3.7221,3.6908,3.6798,3.6553,3.6147,3.5968,3.5976,3.6015,3.6015,3.6012,3.6011,3.6012,3.6011,3.6009,3.6007,3.6003,3.6021,3.6021,3.5994,3.5968,3.5988,3.5968,3.5958,3.5853,3.5782,3.5247,3.4392,3.4639,3.4165,3.3613,3.3511,3.3939,3.4626,3.4149,3.3268,3.3251,3.2517,3.2046,3.1632,3.1102,3.0387,3.0336,3.0225,2.9981,2.9889,2.9626,2.9474,2.9339,2.9124,2.9034,2.8815,2.8662,2.8637,2.8587,2.8587,2.8551,2.8366,2.7939,2.7272,2.6677,2.6251,2.5729,2.5394,2.4954,2.4478,2.4118,2.3847,2.3716,2.3769,2.3857,2.4032,2.3593,2.3137,2.3119,2.3119,2.3119,2.3119,2.3119,2.3119,2.3119,4.5297,4.524,4.447,4.3682,4.2854,4.2162,4.1316,4.0546,4.0489,4.0489,4.0489,4.0489,4.0446,4.0312,4.0273,3.9865,3.961,3.9875,4.0289,4.0298,4.0351,4.0364,4.0474,4.0532,4.0385,4.0159,4.0526,4.0249,3.9939,4.043,4.0404,3.9843,3.9533,3.9146,3.8791,3.8025,3.808,3.7996,3.7401,3.6671,3.6094,3.5976,3.6013,3.6012,3.601,3.6009,3.6007,3.6005,3.6003,3.6016,3.6013,3.6013,3.5991,3.5919,3.5912,3.5912,3.5931,3.5927,3.5899,3.5885,3.5624,3.4989,3.5119,3.4894,3.441,3.4391,3.4751,3.4804,3.4656,3.4526,3.432,3.432,3.3942,3.311,3.2147,3.1751,3.1562,3.081,3.0547,3.0471,3.0432,2.9843,2.9455,2.9218,2.9012,2.8773,2.8612,2.8612,2.8562,2.8536,2.8458,2.8264,2.813,2.7539,2.7171,2.6725,2.6335,2.6033,2.5665,2.5165,2.4778,2.4541,2.4822,2.4892,2.4875,2.4524,2.3979,2.3558,2.326,2.3119,2.3119,2.3119,2.3119,2.3119,2.3137,4.5586,4.5547,4.5182,4.4278,4.3124,4.2662,4.1758,4.0681,4.0489,4.0489,4.0489,4.0489,4.0523,4.0539,4.0549,4.0371,4.0169,4.0491,4.066,4.0687,4.0681,4.0713,4.0726,4.0746,4.079,4.079,4.079,4.0674,4.0423,4.0481,4.0551,4.023,3.9797,3.9669,3.9336,3.876,3.8751,3.8572,3.7939,3.6855,3.6228,3.6031,3.603,3.6049,3.6064,3.6081,3.6042,3.6018,3.6016,3.601,3.601,3.5988,3.5962,3.5912,3.5884,3.5885,3.5894,3.5903,3.5897,3.5891,3.5606,3.5418,3.5475,3.5345,3.4927,3.492,3.5072,3.4925,3.4927,3.4888,3.4717,3.4337,3.3918,3.3332,3.2825,3.254,3.22,3.1768,3.1297,3.1258,3.118,3.0665,3.0089,2.9706,2.9406,2.8991,2.8785,2.8619,2.8518,2.838,2.83,2.8164,2.8063,2.7844,2.7635,2.7338,2.6869,2.6567,2.6394,2.5897,2.5417,2.5312,2.562,2.5559,2.5279,2.4857,2.4348,2.405,2.3821,2.347,2.3119,2.326,2.34,2.3225,2.3225,4.5413,4.5586,4.5586,4.4739,4.3431,4.341,4.2601,4.1251,4.0962,4.1016,4.1058,4.0997,4.0819,4.0699,4.0805,4.0858,4.0621,4.0899,4.0855,4.0823,4.0759,4.079,4.079,4.081,4.081,4.079,4.079,4.0732,4.0752,4.079,4.079,4.0784,4.025,4.0211,4.0305,3.9855,3.9472,3.9478,3.8669,3.7713,3.6965,3.6786,3.6749,3.6728,3.6645,3.6543,3.635,3.6367,3.6384,3.601,3.5985,3.5939,3.5912,3.5895,3.5894,3.5878,3.5872,3.5872,3.5872,3.5864,3.5842,3.5765,3.5618,3.5393,3.5224,3.5124,3.4982,3.4813,3.4849,3.479,3.4634,3.4099,3.4005,3.3609,3.3064,3.2799,3.2555,3.2217,3.2086,3.2178,3.2062,3.1796,3.1206,3.0504,2.9921,2.9318,2.8974,2.8687,2.8466,2.8273,2.8164,2.8042,2.794,2.7882,2.7824,2.7578,2.7262,2.7181,2.6988,2.6813,2.6416,2.6212,2.637,2.6153,2.5858,2.5735,2.5559,2.498,2.4418,2.4208,2.4015,2.3786,2.3716,2.3558,2.3628,4.4874,4.5586,4.5566,4.5028,4.4198,4.4289,4.3747,4.2649,4.2078,4.2213,4.2598,4.2131,4.1301,4.1031,4.1374,4.1368,4.0835,4.1569,4.1428,4.1068,4.081,4.0848,4.0829,4.079,4.079,4.079,4.079,4.079,4.0848,4.0984,4.0887,4.0745,4.0604,4.0762,4.0816,4.0569,4.0088,3.9999,3.9411,3.8977,3.8387,3.817,3.8188,3.8244,3.8261,3.8043,3.7265,3.7126,3.683,3.6205,3.5997,3.5903,3.5895,3.5883,3.5879,3.5859,3.5838,3.5834,3.5834,3.5826,3.5784,3.5648,3.5457,3.5292,3.5207,3.5018,3.4832,3.4695,3.473,3.4708,3.4647,3.4526,3.4339,3.4095,3.3738,3.3663,3.3344,3.2797,3.2741,3.3004,3.2964,3.2732,3.2347,3.166,3.0471,2.9807,2.8775,2.844,2.8309,2.8109,2.8053,2.794,2.7836,2.7795,2.7818,2.7736,2.7877,2.7941,2.7859,2.7724,2.7514,2.7414,2.7017,2.7081,2.6876,2.6823,2.6683,2.6068,2.5559,2.5208,2.4892,2.4541,2.4506,2.4567,2.4725,4.4083,4.4867,4.4867,4.4675,4.4366,4.4402,4.3936,4.3216,4.2845,4.2845,4.3168,4.2353,4.2058,4.2135,4.1892,4.2143,4.2273,4.2582,4.2228,4.1796,4.1525,4.1235,4.1042,4.0848,4.079,4.0829,4.0829,4.079,4.0829,4.1241,4.1106,4.0994,4.0994,4.0882,4.0916,4.0945,4.0585,4.0132,3.9854,3.9459,3.8793,3.8615,3.8612,3.8612,3.8609,3.8473,3.8063,3.7536,3.7139,3.6684,3.6165,3.5973,3.5889,3.5892,3.5872,3.585,3.5807,3.5799,3.5791,3.5791,3.5736,3.5557,3.5412,3.5281,3.5198,3.4965,3.4791,3.467,3.4668,3.4645,3.4623,3.4583,3.4526,3.4508,3.4451,3.4376,3.4113,3.351,3.3395,3.3636,3.3783,3.3717,3.3314,3.2827,3.15,3.0259,2.914,2.83,2.8294,2.828,2.8299,2.8306,2.8217,2.8328,2.8386,2.8491,2.8614,2.8644,2.8675,2.8556,2.8386,2.7789,2.7514,2.7683,2.7806,2.7613,2.7368,2.7052,2.656,2.5928,2.5489,2.5138,2.5253,2.5481,2.5657,4.3387,4.4325,4.4129,4.4357,4.4762,4.48,4.4523,4.4013,4.3719,4.3429,4.3217,4.2844,4.2878,4.3065,4.3079,4.2821,4.3227,4.3421,4.3073,4.257,4.2048,4.168,4.1332,4.1197,4.1274,4.1158,4.1209,4.1248,4.1784,4.1947,4.1946,4.1758,4.1409,4.129,4.0949,4.0969,4.0761,4.04,4.0199,4.0023,3.9432,3.9432,3.9451,3.9468,3.9507,3.9016,3.8603,3.7956,3.732,3.6742,3.6216,3.5942,3.5898,3.5864,3.583,3.5807,3.5791,3.5791,3.581,3.5773,3.5689,3.5554,3.5386,3.5293,3.5151,3.4925,3.4687,3.4645,3.4623,3.4602,3.4602,3.4602,3.4602,3.4545,3.4545,3.4508,3.4486,3.4127,3.4158,3.4285,3.4278,3.4134,3.3677,3.3068,3.1832,3.0667,2.983,2.916,2.9089,2.9017,2.8868,2.8838,2.8772,2.8965,2.9158,2.9263,2.9351,2.9386,2.9369,2.9347,2.9053,2.8509,2.8368,2.8754,2.8737,2.8368,2.8105,2.7912,2.7227,2.6437,2.6191,2.6104,2.5981,2.6191,2.6349,4.2842,4.4225,4.3543,4.4118,4.5387,4.5727,4.5626,4.5259,4.4805,4.4181,4.3678,4.4065,4.4007,4.373,4.402,4.3982,4.3866,4.4272,4.4098,4.3305,4.2763,4.2222,4.2028,4.199,4.199,4.199,4.2047,4.2396,4.3092,4.2801,4.2825,4.2721,4.2249,4.1728,4.1089,4.1072,4.1077,4.1033,4.0974,4.0857,4.0756,4.0678,4.0659,4.0636,4.0616,4.0005,3.9228,3.8677,3.7986,3.7083,3.6417,3.6145,3.6112,3.59,3.5826,3.5799,3.5791,3.5801,3.5803,3.5803,3.5658,3.5483,3.5302,3.5209,3.5115,3.4865,3.4623,3.4602,3.4602,3.4602,3.4602,3.4602,3.4602,3.4602,3.4602,3.4539,3.4517,3.4473,3.4427,3.4386,3.4358,3.4213,3.3759,3.3143,3.1982,3.1022,3.0393,3.0011,2.9804,2.9646,2.9439,2.9404,2.9369,2.9685,2.9878,2.9983,3.0039,3.0109,3.0197,3.0264,3.0042,2.9624,2.9624,2.9863,2.9614,2.9176,2.9,2.8842,2.807,2.7403,2.735,2.7227,2.7052,2.6865,2.6953,4.1726,4.2763,4.2507,4.3057,4.4211,4.5351,4.5505,4.5128,4.522,4.522,4.4929,4.4813,4.4852,4.4852,4.4659,4.4717,4.5007,4.5065,4.4949,4.4175,4.3711,4.3343,4.3053,4.286,4.286,4.2866,4.2935,4.3033,4.3325,4.3467,4.3114,4.2863,4.2773,4.1929,4.1304,4.1099,4.1091,4.1091,4.1088,4.1088,4.1108,4.1108,4.1101,4.1109,4.1109,4.0667,3.992,3.9452,3.8694,3.7864,3.726,3.6701,3.653,3.6304,3.5935,3.5868,3.5821,3.5775,3.5708,3.5637,3.5463,3.5311,3.5212,3.507,3.4848,3.4706,3.4623,3.4639,3.4714,3.4695,3.4602,3.4577,3.4595,3.4573,3.4555,3.4473,3.4409,3.4381,3.4358,3.4316,3.4269,3.4005,3.3605,3.336,3.2412,3.1617,3.1006,3.0489,3.0211,3.0053,2.9895,2.9895,2.9948,3.0334,3.0615,3.0738,3.1036,3.1265,3.1352,3.1423,3.1128,3.0658,3.0361,3.0337,3.0162,3.0001,2.9755,2.9439,2.8947,2.8509,2.8315,2.7999,2.7601,2.7414,2.7372,4.1156,4.1975,4.1989,4.2311,4.3079,4.465,4.5206,4.5065,4.5297,4.5529,4.5606,4.522,4.5258,4.551,4.5355,4.5181,4.58,4.578,4.5684,4.4968,4.4659,4.4194,4.3866,4.3744,4.3763,4.378,4.3859,4.3994,4.4501,4.4694,4.4306,4.3651,4.3227,4.2951,4.2304,4.1911,4.142,4.1283,4.1108,4.1108,4.1108,4.1101,4.1109,4.1096,4.1028,4.083,4.0461,3.9993,3.9422,3.8809,3.8132,3.7358,3.707,3.6897,3.6597,3.6647,3.6338,3.6135,3.5775,3.5538,3.5372,3.5178,3.5133,3.4944,3.4689,3.4623,3.4961,3.5033,3.5033,3.5218,3.5308,3.5225,3.5049,3.5067,3.4857,3.4815,3.4489,3.446,3.4479,3.4418,3.4389,3.3987,3.3642,3.3343,3.2919,3.2282,3.1663,3.1175,3.0773,3.0738,3.0685,3.072,3.0808,3.1194,3.144,3.1528,3.1861,3.2335,3.2371,3.2352,3.1968,3.1478,3.111,3.0865,3.1038,3.1001,3.0457,3.0018,2.953,2.9215,2.8991,2.8623,2.8167,2.8019,2.7958,4.1183,4.1917,4.1977,4.1932,4.226,4.375,4.4871,4.5606,4.5007,4.5104,4.5703,4.5606,4.5548,4.5645,4.5645,4.5684,4.578,4.58,4.5742,4.5548,4.5084,4.4755,4.4686,4.466,4.4699,4.4735,4.4826,4.5097,4.5907,4.5232,4.4803,4.4867,4.4605,4.4133,4.3489,4.2959,4.2217,4.1667,4.1179,4.114,4.1094,4.1081,4.1091,4.1075,4.1,4.0701,4.0283,3.9801,3.893,3.8361,3.7964,3.7722,3.7694,3.7909,3.8152,3.8016,3.7336,3.657,3.5944,3.5669,3.5288,3.5102,3.5096,3.4886,3.4837,3.4921,3.5334,3.5762,3.5964,3.633,3.6587,3.6315,3.6018,3.5813,3.5533,3.5205,3.4747,3.463,3.4673,3.4692,3.4705,3.446,3.4182,3.3862,3.3502,3.2844,3.2315,3.2018,3.1721,3.1809,3.1791,3.1826,3.1949,3.2142,3.2248,3.209,3.2371,3.2722,3.295,3.2915,3.2564,3.2283,3.202,3.1915,3.2195,3.2002,3.1352,3.0723,3.0182,2.9919,2.975,2.935,2.8949,2.8728,2.863,4.0913,4.1145,4.1139,4.1139,4.1293,4.2299,4.3576,4.4852,4.522,4.5355,4.4929,4.4949,4.4987,4.4949,4.4929,4.5297,4.5606,4.58,4.58,4.5645,4.5471,4.5519,4.553,4.5517,4.5599,4.5643,4.5743,4.5796,4.5915,4.5369,4.5436,4.5776,4.5363,4.4914,4.4633,4.4294,4.3177,4.2217,4.1534,4.1257,4.1106,4.107,4.1058,4.102,4.1006,4.0715,4.0516,3.9982,3.9304,3.912,3.8538,3.8188,3.8103,3.819,3.8278,3.813,3.7478,3.6787,3.635,3.5648,3.519,3.5247,3.5378,3.5574,3.5544,3.5672,3.5987,3.6433,3.6723,3.6994,3.7187,3.7063,3.6926,3.6758,3.6454,3.6112,3.5708,3.5578,3.5578,3.5541,3.5535,3.5246,3.496,3.4491,3.4127,3.3448,3.2967,3.2756,3.2476,3.2511,3.2406,3.2406,3.2441,3.2441,3.2458,3.2318,3.2704,3.3055,3.3512,3.3653,3.3178,3.2932,3.2862,3.2704,3.2546,3.2406,3.2142,3.1512,3.0832,3.073,3.0558,3.0157,2.9758,2.9535,2.9348,4.079,4.079,4.079,4.079,4.0926,4.1661,4.2667,4.3692,4.4813,4.5026,4.462,4.462,4.4407,4.4175,4.4465,4.4891,4.5258,4.5664,4.58,4.58,4.5814,4.5828,4.5947,4.6017,4.5994,4.6123,4.6178,4.6131,4.6092,4.5907,4.589,4.6144,4.5675,4.5551,4.525,4.4616,4.3797,4.2869,4.2142,4.1668,4.1383,4.1149,4.1011,4.0976,4.098,4.0935,4.0878,4.0286,4.0043,3.9869,3.9199,3.917,3.9083,3.9072,3.8993,3.886,3.8344,3.7482,3.681,3.6353,3.5835,3.5646,3.5972,3.6483,3.6587,3.6639,3.6953,3.7285,3.7386,3.7524,3.766,3.7757,3.7776,3.7783,3.7471,3.714,3.6954,3.6768,3.6694,3.663,3.6424,3.6149,3.5754,3.5302,3.4763,3.4215,3.3863,3.3776,3.3248,3.2774,3.2581,3.2406,3.2458,3.2493,3.2564,3.2739,3.302,3.374,3.4959,3.487,3.4074,3.3634,3.3581,3.3108,3.2582,3.2476,3.2354,3.2004,3.1498,3.1394,3.1272,3.1029,3.0647,3.0318,3.0179,4.079,4.079,4.079,4.079,4.0906,4.1641,4.2048,4.2183,4.3808,4.4427,4.4311,4.433,4.3827,4.3382,4.375,4.4311,4.4794,4.5297,4.5659,4.5794,4.5848,4.5914,4.6017,4.6024,4.6119,4.6182,4.6211,4.6247,4.6293,4.6144,4.6105,4.63,4.6199,4.5976,4.5533,4.4674,4.3942,4.3545,4.2641,4.1979,4.1746,4.14,4.0988,4.098,4.0954,4.0888,4.0869,4.0684,4.0432,4.016,4.0043,4.0091,4.0148,4.0153,4.0053,3.967,3.9113,3.8281,3.7466,3.7013,3.671,3.6587,3.6801,3.7305,3.7464,3.7365,3.7566,3.8016,3.8171,3.8268,3.8401,3.8449,3.8486,3.8439,3.8207,3.7976,3.7835,3.7679,3.7578,3.7541,3.7495,3.7173,3.6783,3.6297,3.5846,3.5154,3.4712,3.4659,3.4394,3.3651,3.3283,3.2967,3.3038,3.3231,3.3354,3.3476,3.3405,3.4233,3.5578,3.5719,3.4672,3.4388,3.4335,3.3738,3.3089,3.2669,3.2406,3.2091,3.1846,3.1758,3.1686,3.1789,3.1545,3.1077,3.0939,4.079,4.079,4.079,4.079,4.0906,4.1661,4.197,4.2106,4.3131,4.3227,4.2725,4.2647,4.257,4.2454,4.2763,4.3421,4.4485,4.5021,4.5318,4.5711,4.5914,4.6007,4.6131,4.6128,4.6186,4.6248,4.6278,4.6276,4.6284,4.628,4.6261,4.6257,4.6093,4.5743,4.5181,4.4319,4.4063,4.3778,4.273,4.1835,4.1341,4.1177,4.0926,4.0926,4.0888,4.0888,4.0743,4.0267,3.9966,3.9723,3.9761,4.004,4.0502,4.0699,4.0597,4.0232,3.9619,3.8843,3.8194,3.7697,3.7327,3.731,3.7479,3.7882,3.8059,3.7959,3.8134,3.8637,3.8912,3.8997,3.9063,3.9073,3.9064,3.898,3.8887,3.8765,3.8617,3.8515,3.8414,3.8414,3.8414,3.8126,3.7734,3.7332,3.6867,3.6359,3.5764,3.5519,3.5562,3.5169,3.4835,3.4518,3.4216,3.4303,3.4338,3.4265,3.4193,3.4401,3.546,3.5425,3.5159,3.4894,3.4626,3.4207,3.3681,3.3084,3.2577,3.2192,3.2034,3.191,3.1875,3.1819,3.1888,3.1541,3.1524,4.0442,4.0771,4.079,4.079,4.0868,4.1293,4.1448,4.1545,4.199,4.1932,4.1583,4.1777,4.1816,4.1816,4.2202,4.2879,4.4176,4.4944,4.5464,4.5871,4.5996,4.6079,4.616,4.6207,4.623,4.6276,4.6287,4.6284,4.6261,4.5781,4.564,4.564,4.5406,4.4857,4.4241,4.3958,4.3731,4.3499,4.2286,4.1471,4.0888,4.0888,4.0888,4.0888,4.0888,4.0898,4.0791,4.0383,4.0295,4.0158,4.0223,4.0335,4.066,4.0784,4.0687,4.0419,3.9948,3.9334,3.8762,3.8364,3.797,3.8005,3.8327,3.8808,3.87,3.8618,3.8656,3.9061,3.9034,3.9073,3.9073,3.9082,3.9082,3.9036,3.9017,3.8943,3.8906,3.8868,3.8804,3.8804,3.8776,3.8627,3.8302,3.8114,3.7703,3.7461,3.6902,3.6771,3.6767,3.663,3.6314,3.5918,3.5563,3.5403,3.5438,3.5294,3.5054,3.5332,3.5588,3.5815,3.5867,3.5339,3.4882,3.4631,3.414,3.3289,3.278,3.2553,3.21,3.1873,3.1819,3.18,3.1886,3.2076,3.2231,4.0036,4.0752,4.079,4.079,4.079,4.081,4.0842,4.0842,4.0842,4.0854,4.1001,4.1718,4.1473,4.1582,4.2349,4.2986,4.3768,4.4812,4.555,4.5963,4.604,4.6132,4.618,4.623,4.6248,4.628,4.629,4.6287,4.6264,4.5605,4.5041,4.4738,4.4163,4.3506,4.3171,4.2777,4.2477,4.2256,4.1568,4.1063,4.0888,4.0888,4.0907,4.0907,4.0898,4.0888,4.0888,4.0867,4.0826,4.0773,4.0672,4.0687,4.07,4.0746,4.0598,4.0364,4.0174,3.9546,3.9091,3.9133,3.8831,3.879,3.9252,3.9369,3.92,3.9192,3.9229,3.9183,3.911,3.9082,3.9082,3.9082,3.9082,3.9082,3.9082,3.9101,3.9101,3.9101,3.9101,3.9101,3.9027,3.8923,3.8818,3.8651,3.8517,3.8281,3.8201,3.8216,3.8136,3.788,3.7585,3.7148,3.6678,3.6592,3.6417,3.6127,3.577,3.5885,3.616,3.6469,3.6574,3.5993,3.5566,3.5376,3.4748,3.3917,3.3381,3.3101,3.2596,3.213,3.211,3.2231,3.2248,3.249,3.2938,4.001,4.079,4.079,4.079,4.079,4.079,4.0808,4.0804,4.0815,4.0818,4.1052,4.1635,4.1665,4.0858,4.1874,4.2777,4.386,4.4845,4.5526,4.6001,4.6104,4.6182,4.6172,4.6074,4.6211,4.615,4.6083,4.6189,4.5652,4.5085,4.4811,4.465,4.3829,4.3144,4.2521,4.2147,4.1859,4.149,4.1257,4.0888,4.0888,4.0898,4.0888,4.0908,4.0888,4.0858,4.0837,4.0804,4.0812,4.0808,4.0815,4.0803,4.0765,4.066,4.0489,4.0321,4.012,3.98,3.9482,3.9451,3.9164,3.9133,3.9406,3.9335,3.9256,3.9266,3.9239,3.9129,3.9082,3.9082,3.9101,3.9101,3.9082,3.9082,3.9101,3.9101,3.9101,3.9101,3.9101,3.9101,3.9055,3.9027,3.9027,3.8923,3.8923,3.8748,3.8748,3.8748,3.8718,3.8737,3.8743,3.8214,3.7667,3.7202,3.6823,3.6682,3.6449,3.6544,3.6533,3.658,3.6615,3.6557,3.6232,3.5866,3.5462,3.4789,3.4323,3.3753,3.3356,3.2959,3.2783,3.2748,3.2766,3.3024,3.3593]}]]